[[{"header":{"parameterUnit":"m.s-1","parameterCategory":1,"la1":31.0,"la2":29.5877,"lo1":-88.7671,"lo2":-86.6584,"dy":0.0162,"dx":0.0185,"nx":115,"ny":88,"refTime":"2026-03-18T12:00:00:Z","depth":0,"parameterNumber":2,"parameterNumberName":"U-component_of_WINDS"},"data":[0.0,0.0,0.0,0.0,0.0,0.0,0.0,0.0,0.0,0.0,0.0,0.0,0.0,0.0,0.0,0.0,0.0,0.0,0.0,0.0,0.0,0.0,0.0,0.0,0.0,0.0,0.0,0.0,0.0,0.0,0.0,0.0,0.0,0.0,0.0,0.0,0.0,0.0,0.0,0.0,0.0,0.0,0.0,0.0,0.0,0.0,0.0,0.0,0.0,0.0,0.0,0.0,0.0,0.0,0.0,0.0,0.0,0.0,0.0,0.0,0.0,0.0,0.0,0.0,0.0,0.0,0.0,0.0,0.0,0.0,0.0,0.0,0.0,0.0,0.0,0.0,0.0,0.0,0.0,0.0,0.0,0.0,0.0,0.0,0.0,0.0,0.0,0.0,0.0,0.0,0.0,0.0,0.0,0.0,0.0,0.0,0.0,0.0,0.0,0.0,0.0,0.0,0.0,0.0,0.0,0.0,0.0,0.0,0.0,0.0,0.0,0.0,0.0,0.0,0.0,0.0,0.0,0.0,0.0,0.0,0.0,0.0,0.0,0.0,0.0,0.0,0.0,0.0,0.0,0.0,0.0,0.0,0.0,0.0,0.0,0.0,0.0,0.0,0.0,0.0,0.0,0.0,0.0,0.0,0.0,0.0,0.0,0.0,0.0,0.0,0.0,0.0,0.0,0.0,0.0,0.0,0.0,0.0,0.0,0.0,0.0,0.0,0.0,0.0,0.0,0.0,0.0,0.0,0.0,0.0,0.0,0.0,0.0,0.0,0.0,0.0,0.0,0.0,0.0,0.0,0.0,0.0,0.0,0.0,0.0,0.0,0.0,0.0,0.0,0.0,0.0,0.0,0.0,0.0,0.0,0.0,0.0,0.0,0.0,0.0,0.0,0.0,0.0,0.0,0.0,0.0,0.0,0.0,0.0,0.0,0.0,0.0,0.0,0.0,0.0,0.0,0.0,0.0,0.0,0.0,0.0,0.0,0.0,0.0,0.0,0.0,0.0,0.0,0.0,0.0,0.0,0.0,0.0,0.0,0.0,0.0,0.0,0.0,0.0,0.0,0.0,0.0,0.0,0.0,0.0,0.0,0.0,0.0,0.0,0.0,0.0,0.0,0.0,0.0,0.0,0.0,0.0,0.0,0.0,0.0,0.0,0.0,0.0,0.0,0.0,0.0,0.0,0.0,0.0,0.0,0.0,0.0,0.0,0.0,0.0,0.0,0.0,0.0,0.0,0.0,0.0,0.0,0.0,0.0,0.0,0.0,0.0,0.0,0.0,0.0,0.0,0.0,0.0,0.0,0.0,0.0,0.0,0.0,0.0,0.0,0.0,0.0,0.0,0.0,0.0,0.0,0.0,0.0,0.0,0.0,0.0,0.0,0.0,0.0,0.0,0.0,0.0,0.0,0.0,0.0,0.0,0.0,0.0,0.0,0.0,0.0,0.0,0.0,0.0,0.0,0.0,0.0,0.0,0.0,0.0,0.0,0.0,0.0,0.0,0.0,0.0,0.0,0.0,0.0,0.0,0.0,0.0,0.0,0.0,0.0,0.0,0.0,0.0,0.0,0.0,0.0,0.0,0.0,0.0,0.0,0.0,0.0,0.0,0.0,0.0,0.0,0.0,0.0,0.0,0.0,0.0,0.0,0.0,0.0,0.0,0.0,0.0,0.0,0.0,0.0,0.0,0.0,0.0,0.0,0.0,0.0,0.0,0.0,0.0,0.0,0.0,0.0,0.0,0.0,0.0,0.0,0.0,0.0,0.0,0.0,0.0,0.0,0.0,0.0,0.0,0.0,0.0,0.0,0.0,0.0,0.0,0.0,0.0,0.0,0.0,0.0,0.0,0.0,0.0,0.0,0.0,0.0,0.0,0.0,0.0,0.0,0.0,0.0,0.0,0.0,0.0,0.0,0.0,0.0,0.0,0.0,0.0,0.0,0.0,0.0,0.0,0.0,0.0,0.0,0.0,0.0,0.0,0.0,0.0,0.0,0.0,0.0,0.0,0.0,0.0,0.0,0.0,0.0,0.0,0.0,0.0,0.0,0.0,0.0,0.0,0.0,0.0,0.0,0.0,0.0,0.0,0.0,0.0,0.0,0.0,0.0,0.0,0.0,0.0,0.0,0.0,0.0,0.0,0.0,0.0,0.0,0.0,0.0,0.0,0.0,0.0,0.0,0.0,0.0,0.0,0.0,0.0,0.0,0.0,0.0,0.0,0.0,0.0,0.0,0.0,0.0,0.0,0.0,0.0,0.0,0.0,0.0,0.0,0.0,0.0,0.0,0.0,0.0,0.0,0.0,0.0,0.0,0.0,0.0,0.0,0.0,0.0,0.0,0.0,0.0,0.0,0.0,0.0,0.0,0.0,0.0,0.0,0.0,0.0,0.0,0.0,0.0,0.0,0.0,0.0,0.0,0.0,0.0,0.0,0.0,0.0,0.0,0.0,0.0,0.0,0.0,0.0,0.0,0.0,0.0,0.0,0.0,0.0,0.0,0.0,0.0,0.0,0.0,0.0,0.0,0.0,0.0,0.0,0.0,0.0,0.0,0.0,0.0,0.0,0.0,0.0,0.0,0.0,0.0,0.0,0.0,0.0,0.0,0.0,0.0,0.0,0.0,0.0,0.0,0.0,0.0,0.0,0.0,0.0,0.0,0.0,0.0,0.0,0.0,0.0,0.0,0.0,0.0,0.0,0.0,0.0,0.0,0.0,0.0,0.0,0.0,0.0,0.0,0.0,0.0,0.0,0.0,0.0,0.0,0.0,0.0,0.0,0.0,0.0,0.0,0.0,0.0,0.0,0.0,0.0,0.0,0.0,0.0,0.0,0.0,0.0,0.0,0.0,0.0,0.0,0.0,0.0,0.0,0.0,0.0,0.0,0.0,0.0,0.0,0.0,0.0,0.0,0.0,0.0,0.0,0.0,0.0,0.0,0.0,0.0,0.0,0.0,0.0,0.0,0.0,0.0,0.0,0.0,0.0,0.0,0.0,0.0,0.0,0.0,0.0,0.0,0.0,0.0,0.0,0.0,0.0,0.0,0.0,0.0,0.0,0.0,0.0,0.0,0.0,0.0,0.0,0.0,0.0,0.0,0.0,0.0,0.0,0.0,0.0,0.0,0.0,0.0,0.0,0.0,0.0,0.0,0.0,0.0,0.0,0.0,0.0,0.0,0.0,0.0,0.0,0.0,0.0,0.0,0.0,0.0,0.0,0.0,0.0,0.0,0.0,0.0,0.0,0.0,0.0,0.0,0.0,0.0,0.0,0.0,0.0,0.0,0.0,0.0,0.0,0.0,0.0,0.0,0.0,0.0,0.0,0.0,0.0,0.0,0.0,0.0,0.0,0.0,0.0,0.0,0.0,0.0,0.0,0.0,0.0,0.0,0.0,0.0,0.0,0.0,0.0,0.0,0.0,0.0,0.0,0.0,0.0,0.0,0.0,0.0,0.0,0.0,0.0,0.0,0.0,0.0,0.0,0.0,0.0,0.0,0.0,0.0,0.0,0.0,0.0,0.0,0.0,0.0,0.0,0.0,0.0,0.0,0.0,0.0,0.0,0.0,0.0,0.0,0.0,0.0,0.0,0.0,0.0,0.0,0.0,0.0,0.0,0.0,0.0,0.0,0.0,0.0,0.0,0.0,0.0,0.0,0.0,0.0,0.0,0.0,0.0,0.0,0.0,0.0,0.0,0.0,0.0,0.0,0.0,0.0,0.0,0.0,0.0,0.0,0.0,0.0,0.0,0.0,0.0,0.0,0.0,0.0,0.0,0.0,0.0,0.0,0.0,0.0,0.0,0.0,0.0,0.0,0.0,0.0,0.0,0.0,0.0,0.0,0.0,0.0,0.0,0.0,0.0,0.0,0.0,0.0,0.0,0.0,0.0,0.0,0.0,0.0,0.0,0.0,0.0,0.0,0.0,0.0,0.0,0.0,0.0,0.0,0.0,0.0,0.0,0.0,0.0,0.0,0.0,0.0,0.0,0.0,0.0,0.0,0.0,0.0,0.0,0.0,0.0,0.0,0.0,0.0,0.0,0.0,0.0,0.0,0.0,0.0,0.0,0.0,0.0,0.0,0.0,0.0,0.0,0.0,0.0,0.0,0.0,0.0,0.0,0.0,0.0,0.0,0.0,0.0,0.0,0.0,0.0,0.0,0.0,0.0,0.0,0.0,0.0,0.0,0.0,0.0,0.0,0.0,0.0,0.0,0.0,0.0,0.0,0.0,0.0,0.0,0.0,0.0,0.0,0.0,0.0,0.0,0.0,0.0,0.0,-1.0943,0.0,0.0,0.0,0.0,0.0,0.0,0.0,0.0,0.0,0.0,0.0,0.0,0.0,0.0,0.0,0.0,0.0,0.0,0.0,0.0,0.0,0.0,0.0,0.0,0.0,0.0,0.0,0.0,0.0,0.0,0.0,0.0,0.0,0.0,0.0,0.0,0.0,0.0,0.0,0.0,0.0,0.0,0.0,0.0,0.0,0.0,0.0,0.0,0.0,0.0,0.0,0.0,0.0,0.0,0.0,0.0,0.0,0.0,0.0,0.0,0.0,0.0,0.0,0.0,0.0,0.0,0.0,0.0,0.0,0.0,0.0,0.0,0.0,0.0,0.0,0.0,0.0,0.0,0.0,0.0,0.0,0.0,0.0,0.0,0.0,0.0,0.0,0.0,0.0,0.0,0.0,0.0,0.0,0.0,0.0,0.0,0.0,0.0,0.0,0.0,0.0,0.0,0.0,0.0,0.0,0.0,0.0,0.0,0.0,0.0,-1.1234,-1.1486,-1.102,-1.0619,-1.0293,0.0,0.0,0.0,0.0,0.0,0.0,0.0,0.0,0.0,0.0,0.0,0.0,0.0,0.0,0.0,0.0,0.0,0.0,0.0,0.0,0.0,0.0,0.0,0.0,0.0,0.0,0.0,0.0,0.0,0.0,0.0,0.0,0.0,0.0,0.0,0.0,0.0,0.0,0.0,0.0,0.0,0.0,0.0,0.0,0.0,0.0,0.0,0.0,0.0,0.0,0.0,0.0,0.0,0.0,0.0,0.0,0.0,0.0,0.0,0.0,0.0,0.0,0.0,0.0,0.0,0.0,0.0,0.0,0.0,0.0,0.0,0.0,0.0,0.0,0.0,0.0,0.0,0.0,0.0,0.0,0.0,0.0,0.0,0.0,0.0,0.0,0.0,0.0,0.0,0.0,0.0,0.0,0.0,0.0,0.0,0.0,0.0,0.0,0.0,0.0,0.0,0.0,0.0,0.0,0.0,0.0,0.0,0.0,0.0,0.0,0.0,0.0,-1.0406,-1.0111,-0.9636,0.0,0.0,0.0,0.0,0.0,0.0,0.0,0.0,0.0,0.0,0.0,0.0,0.0,0.0,0.0,0.0,0.0,0.0,0.0,0.0,0.0,0.0,0.0,0.0,0.0,0.0,0.0,0.0,0.0,0.0,0.0,0.0,0.0,0.0,0.0,0.0,0.0,0.0,0.0,0.0,0.0,0.0,0.0,0.0,0.0,0.0,0.0,0.0,0.0,0.0,0.0,0.0,0.0,0.0,0.0,0.0,0.0,0.0,0.0,0.0,0.0,0.0,0.0,0.0,0.0,0.0,0.0,0.0,0.0,0.0,0.0,0.0,0.0,0.0,0.0,0.0,0.0,0.0,0.0,0.0,0.0,0.0,0.0,0.0,0.0,0.0,0.0,0.0,0.0,0.0,0.0,0.0,0.0,0.0,0.0,0.0,0.0,0.0,0.0,0.0,0.0,0.0,0.0,0.0,0.0,0.0,0.0,0.0,0.0,0.0,-0.9938,-1.0469,-1.0077,0.0,-0.9619,0.0,0.0,0.0,0.0,0.0,0.0,0.0,0.0,0.0,0.0,0.0,0.0,0.0,0.0,0.0,0.0,0.0,0.0,0.0,0.0,0.0,0.0,0.0,0.0,0.0,0.0,0.0,0.0,0.0,0.0,0.0,0.0,0.0,0.0,0.0,0.0,0.0,0.0,0.0,0.0,0.0,0.0,0.0,0.0,0.0,0.0,0.0,0.0,0.0,0.0,0.0,0.0,0.0,0.0,0.0,0.0,0.0,0.0,0.0,0.0,0.0,0.0,0.0,0.0,0.0,0.0,0.0,0.0,0.0,0.0,0.0,0.0,0.0,0.0,0.0,0.0,0.0,0.0,0.0,0.0,0.0,0.0,0.0,0.0,0.0,0.0,0.0,0.0,0.0,0.0,0.0,0.0,0.0,0.0,0.0,0.0,0.0,0.0,0.0,0.0,0.0,0.0,0.0,0.0,0.0,0.0,0.0,0.0,0.0,0.0,-0.9127,-0.9602,-0.9423,-0.9308,0.0,0.0,0.0,0.0,0.0,0.0,0.0,0.0,0.0,0.0,0.0,0.0,0.0,0.0,0.0,0.0,0.0,0.0,0.0,0.0,0.0,0.0,0.0,0.0,0.0,0.0,0.0,0.0,0.0,0.0,0.0,0.0,0.0,0.0,0.0,0.0,0.0,0.0,0.0,0.0,0.0,0.0,0.0,0.0,0.0,0.0,0.0,0.0,0.0,0.0,0.0,0.0,0.0,0.0,0.0,0.0,0.0,0.0,0.0,0.0,0.0,0.0,0.0,0.0,0.0,0.0,0.0,0.0,0.0,0.0,0.0,0.0,0.0,0.0,0.0,0.0,0.0,0.0,0.0,0.0,0.0,0.0,0.0,0.0,0.0,0.0,0.0,0.0,0.0,0.0,0.0,0.0,0.0,0.0,0.0,0.0,0.0,0.0,0.0,0.0,0.0,0.0,0.0,0.0,0.0,0.0,0.0,0.0,0.0,0.0,-0.7729,0.0,-0.8955,-0.9004,-0.9004,-0.9004,0.0,0.0,0.0,0.0,0.0,0.0,0.0,0.0,0.0,0.0,0.0,0.0,0.0,0.0,0.0,0.0,0.0,0.0,0.0,0.0,0.0,0.0,0.0,0.0,0.0,0.0,0.0,0.0,0.0,0.0,0.0,0.0,0.0,0.0,0.0,0.0,0.0,0.0,0.0,0.0,0.0,0.0,0.0,0.0,0.0,0.0,0.0,0.0,0.0,0.0,0.0,0.0,0.0,0.0,0.0,0.0,0.0,0.0,0.0,0.0,0.0,0.0,0.0,0.0,0.0,0.0,0.0,0.0,0.0,0.0,0.0,0.0,0.0,0.0,0.0,0.0,0.0,0.0,0.0,0.0,0.0,0.0,0.0,0.0,0.0,0.0,0.0,0.0,0.0,0.0,0.0,0.0,0.0,0.0,0.0,0.0,0.0,0.0,0.0,0.0,0.0,0.0,0.0,0.0,0.0,0.0,0.0,0.0,0.0,-0.7162,-0.7754,-0.8936,-0.8994,-0.8994,0.0,0.0,0.0,0.0,0.0,0.0,0.0,0.0,0.0,0.0,0.0,0.0,0.0,0.0,0.0,0.0,0.0,0.0,0.0,0.0,0.0,0.0,0.0,0.0,0.0,0.0,0.0,0.0,0.0,0.0,0.0,0.0,0.0,0.0,0.0,0.0,0.0,0.0,0.0,0.0,0.0,0.0,0.0,0.0,0.0,0.0,0.0,0.0,0.0,0.0,0.0,0.0,0.0,0.0,0.0,0.0,0.0,0.0,0.0,0.0,0.0,0.0,0.0,0.0,0.0,0.0,0.0,0.0,0.0,0.0,0.0,0.0,0.0,0.0,0.0,0.0,0.0,0.0,0.0,0.0,0.0,0.0,0.0,0.0,0.0,0.0,0.0,0.0,0.0,0.0,0.0,0.0,0.0,0.0,0.0,0.0,0.0,0.0,0.0,0.0,0.0,0.0,0.0,0.0,0.0,0.0,0.0,0.0,0.0,-0.633,-0.7057,-0.77,-0.8133,-0.8153,-0.8041,0.0,0.0,0.0,0.0,0.0,0.0,0.0,0.0,0.0,0.0,0.0,0.0,0.0,0.0,0.0,0.0,0.0,0.0,0.0,0.0,0.0,0.0,0.0,0.0,0.0,0.0,0.0,0.0,0.0,0.0,0.0,0.0,0.0,0.0,0.0,0.0,0.0,0.0,0.0,0.0,0.0,0.0,0.0,0.0,0.0,0.0,0.0,0.0,0.0,0.0,0.0,0.0,0.0,0.0,0.0,0.0,0.0,0.0,0.0,0.0,0.0,0.0,0.0,0.0,0.0,0.0,0.0,0.0,0.0,0.0,0.0,0.0,0.0,0.0,0.0,0.0,0.0,0.0,0.0,0.0,0.0,0.0,0.0,0.0,0.0,0.0,0.0,0.0,0.0,0.0,0.0,0.0,0.0,0.0,0.0,0.0,0.0,0.0,0.0,0.0,0.0,0.0,0.0,0.0,0.0,0.0,0.0,0.0,0.0,-0.6578,0.0,-0.8223,0.0,-0.8079,-0.7907,0.0,0.0,0.0,0.0,0.0,0.0,0.0,0.0,0.0,0.0,0.0,0.0,0.0,0.0,0.0,0.0,0.0,0.0,0.0,0.0,0.0,0.0,0.0,0.0,0.0,0.0,0.0,0.0,0.0,0.0,0.0,0.0,0.0,0.0,0.0,0.0,0.0,0.0,0.0,0.0,0.0,0.0,0.0,0.0,0.0,0.0,0.0,0.0,0.0,0.0,0.0,0.0,0.0,0.0,0.0,0.0,0.0,0.0,0.0,0.0,0.0,0.0,0.0,0.0,0.0,0.0,0.0,0.0,0.0,0.0,0.0,0.0,0.0,0.0,0.0,0.0,0.0,0.0,0.0,0.0,0.0,0.0,0.0,0.0,0.0,0.0,0.0,0.0,0.0,0.0,0.0,0.0,0.0,0.0,0.0,0.0,0.0,0.0,0.0,0.0,0.0,0.0,0.0,0.0,0.0,0.0,0.0,0.0,-0.8131,-0.8019,-0.8785,-0.9178,-0.9281,-0.8817,-0.8636,0.0,0.0,0.0,0.0,0.0,0.0,0.0,0.0,0.0,0.0,0.0,0.0,0.0,0.0,0.0,0.0,0.0,0.0,0.0,0.0,0.0,0.0,0.0,0.0,0.0,0.0,0.0,0.0,0.0,0.0,0.0,0.0,0.0,0.0,0.0,0.0,0.0,0.0,0.0,0.0,0.0,0.0,0.0,0.0,0.0,0.0,0.0,0.0,0.0,0.0,0.0,0.0,0.0,0.0,0.0,0.0,0.0,0.0,0.0,0.0,0.0,0.0,0.0,0.0,0.0,0.0,0.0,0.0,0.0,0.0,0.0,0.0,0.0,0.0,0.0,0.0,0.0,0.0,0.0,0.0,0.0,0.0,0.0,0.0,0.0,0.0,0.0,0.0,0.0,0.0,0.0,0.0,0.0,0.0,0.0,0.0,0.0,0.0,0.0,0.0,0.0,0.0,0.0,0.0,0.0,0.0,0.0,0.0,0.0,-0.8024,-0.8534,-0.8674,-0.8403,-0.8013,-0.7672,0.0,0.0,0.0,0.0,0.0,0.0,0.0,0.0,0.0,0.0,0.0,0.0,0.0,0.0,0.0,0.0,0.0,0.0,0.0,0.0,0.0,0.0,0.0,0.0,0.0,0.0,0.0,0.0,0.0,0.0,0.0,0.0,0.0,0.0,0.0,0.0,0.0,0.0,0.0,0.0,0.0,0.0,0.0,0.0,0.0,0.0,0.0,0.0,0.0,0.0,0.0,0.0,0.0,0.0,0.0,0.0,0.0,0.0,0.0,0.0,0.0,0.0,0.0,0.0,0.0,0.0,0.0,0.0,0.0,0.0,0.0,0.0,0.0,0.0,0.0,0.0,0.0,0.0,0.0,0.0,0.0,0.0,0.0,0.0,0.0,0.0,0.0,0.0,0.0,0.0,0.0,0.0,0.0,0.0,0.0,0.0,0.0,0.0,0.0,0.0,0.0,0.0,0.0,0.0,0.0,0.0,0.0,0.0,0.0,-0.9337,-0.9689,-0.9717,-0.93,-0.8772,-0.828,-0.7896,0.0,0.0,0.0,0.0,0.0,0.0,0.0,0.0,0.0,0.0,0.0,0.0,0.0,0.0,0.0,0.0,0.0,0.0,0.0,0.0,0.0,0.0,0.0,0.0,0.0,0.0,0.0,0.0,0.0,0.0,0.0,0.0,0.0,0.0,0.0,0.0,0.0,0.0,0.0,0.0,0.0,0.0,0.0,0.0,0.0,0.0,0.0,0.0,0.0,0.0,0.0,0.0,0.0,0.0,0.0,0.0,0.0,0.0,0.0,0.0,0.0,0.0,0.0,0.0,0.0,0.0,0.0,0.0,0.0,0.0,0.0,0.0,0.0,0.0,0.0,0.0,0.0,0.0,0.0,0.0,0.0,0.0,0.0,0.0,0.0,0.0,0.0,0.0,0.0,0.0,0.0,0.0,0.0,0.0,0.0,0.0,0.0,0.0,0.0,0.0,0.0,0.0,0.0,0.0,0.0,0.0,0.0,0.0,-1.1572,-1.2018,-1.2,-1.1513,-1.0741,-1.0162,0.0,0.0,0.0,0.0,0.0,0.0,0.0,0.0,0.0,0.0,0.0,0.0,0.0,0.0,0.0,0.0,0.0,0.0,0.0,0.0,0.0,0.0,0.0,0.0,0.0,0.0,0.0,0.0,0.0,0.0,0.0,0.0,0.0,0.0,0.0,0.0,0.0,0.0,0.0,0.0,0.0,0.0,0.0,0.0,0.0,0.0,0.0,0.0,0.0,0.0,0.0,0.0,0.0,0.0,0.0,0.0,0.0,0.0,0.0,0.0,0.0,0.0,0.0,0.0,0.0,0.0,0.0,0.0,0.0,0.0,0.0,0.0,0.0,0.0,0.0,0.0,0.0,0.0,0.0,0.0,0.0,0.0,0.0,0.0,0.0,0.0,0.0,0.0,0.0,0.0,0.0,0.0,0.0,0.0,0.0,0.0,0.0,0.0,0.0,0.0,0.0,0.0,0.0,0.0,0.0,0.0,0.0,0.0,0.0,-1.28,-1.3506,-1.325,-1.2,-1.1458,-1.0701,0.0,0.0,0.0,0.0,0.0,0.0,0.0,0.0,0.0,0.0,0.0,0.0,0.0,0.0,0.0,0.0,0.0,0.0,0.0,0.0,0.0,0.0,0.0,0.0,0.0,0.0,0.0,0.0,0.0,0.0,0.0,0.0,0.0,0.0,0.0,0.0,0.0,0.0,0.0,0.0,0.0,0.0,0.0,0.0,0.0,0.0,0.0,0.0,0.0,0.0,0.0,0.0,0.0,0.0,0.0,0.0,0.0,0.0,0.0,0.0,0.0,0.0,0.0,0.0,0.0,0.0,0.0,0.0,0.0,0.0,0.0,0.0,0.0,0.0,0.0,0.0,0.0,0.0,0.0,0.0,0.0,0.0,0.0,0.0,0.0,0.0,0.0,0.0,0.0,0.0,0.0,0.0,0.0,0.0,0.0,0.0,0.0,0.0,0.0,0.0,0.0,0.0,0.0,0.0,0.0,0.0,0.0,0.0,-1.2579,-1.3516,-1.4332,-1.4148,-1.2865,-1.2147,-1.1274,0.0,0.0,0.0,0.0,0.0,0.0,0.0,0.0,0.0,0.0,0.0,0.0,0.0,0.0,0.0,0.0,0.0,0.0,0.0,0.0,0.0,0.0,0.0,0.0,0.0,0.0,0.0,0.0,0.0,0.0,0.0,0.0,0.0,0.0,0.0,0.0,0.0,0.0,0.0,0.0,0.0,0.0,0.0,0.0,0.0,0.0,0.0,0.0,0.0,0.0,0.0,0.0,0.0,0.0,0.0,0.0,0.0,0.0,0.0,0.0,0.0,0.0,0.0,0.0,0.0,0.0,0.0,0.0,0.0,0.0,0.0,0.0,0.0,0.0,0.0,0.0,0.0,0.0,0.0,0.0,0.0,0.0,0.0,0.0,0.0,0.0,0.0,0.0,0.0,0.0,0.0,0.0,0.0,0.0,0.0,0.0,0.0,0.0,0.0,0.0,0.0,0.0,0.0,0.0,0.0,0.0,0.0,0.0,-1.2817,-1.3983,-1.4717,-1.4726,-1.3994,-1.2855,-1.1862,0.0,0.0,0.0,0.0,0.0,0.0,0.0,0.0,0.0,0.0,0.0,0.0,0.0,0.0,0.0,0.0,0.0,0.0,0.0,0.0,0.0,0.0,0.0,0.0,0.0,0.0,0.0,0.0,0.0,0.0,0.0,0.0,0.0,0.0,0.0,0.0,0.0,0.0,0.0,0.0,0.0,0.0,0.0,0.0,0.0,0.0,0.0,0.0,0.0,0.0,0.0,0.0,0.0,0.0,0.0,0.0,0.0,0.0,0.0,0.0,0.0,0.0,0.0,0.0,0.0,0.0,0.0,0.0,0.0,0.0,0.0,0.0,0.0,0.0,0.0,0.0,0.0,0.0,0.0,0.0,0.0,0.0,0.0,0.0,0.0,0.0,0.0,0.0,0.0,0.0,0.0,0.0,0.0,0.0,0.0,0.0,0.0,0.0,0.0,0.0,0.0,0.0,0.0,0.0,0.0,0.0,0.0,0.0,-1.3626,-1.4799,-1.501,-1.4873,-1.4387,-1.3809,-1.2845,0.0,0.0,0.0,0.0,0.0,0.0,0.0,0.0,0.0,0.0,0.0,0.0,0.0,0.0,0.0,0.0,0.0,0.0,0.0,0.0,0.0,0.0,0.0,0.0,0.0,0.0,0.0,0.0,0.0,0.0,0.0,0.0,0.0,0.0,0.0,0.0,0.0,0.0,0.0,0.0,0.0,0.0,0.0,0.0,0.0,0.0,0.0,0.0,-0.9629,0.0,0.0,0.0,0.0,0.0,0.0,0.0,0.0,0.0,0.0,0.0,0.0,0.0,0.0,0.0,0.0,0.0,0.0,0.0,0.0,0.0,0.0,0.0,0.0,0.0,0.0,0.0,0.0,0.0,0.0,0.0,0.0,0.0,0.0,0.0,0.0,0.0,0.0,0.0,0.0,0.0,0.0,0.0,0.0,0.0,0.0,0.0,0.0,0.0,0.0,0.0,0.0,0.0,0.0,0.0,0.0,0.0,0.0,0.0,-1.4359,-1.534,-1.557,-1.5386,-1.4818,-1.457,-1.3553,0.0,0.0,0.0,0.0,0.0,0.0,0.0,0.0,0.0,0.0,0.0,0.0,0.0,0.0,0.0,0.0,0.0,0.0,0.0,0.0,0.0,0.0,0.0,0.0,0.0,0.0,0.0,0.0,0.0,0.0,0.0,0.0,0.0,0.0,0.0,0.0,0.0,0.0,0.0,0.0,0.0,0.0,0.0,0.0,0.0,0.0,0.0,0.0,0.0,0.0,0.0,0.0,0.0,0.0,0.0,0.0,0.0,0.0,0.0,0.0,0.0,0.0,0.0,0.0,0.0,0.0,0.0,0.0,0.0,0.0,0.0,0.0,0.0,0.0,0.0,0.0,0.0,0.0,0.0,0.0,0.0,0.0,0.0,0.0,0.0,0.0,0.0,0.0,0.0,0.0,0.0,0.0,0.0,0.0,0.0,0.0,0.0,0.0,0.0,0.0,0.0,0.0,0.0,0.0,0.0,0.0,0.0,-1.3375,-1.4921,-1.5721,-1.6129,-1.5949,-1.5272,-1.504,-1.3897,-1.1749,0.0,0.0,0.0,0.0,0.0,0.0,0.0,0.0,0.0,0.0,0.0,0.0,0.0,0.0,0.0,0.0,0.0,0.0,0.0,0.0,0.0,0.0,0.0,0.0,0.0,0.0,0.0,0.0,0.0,0.0,0.0,0.0,0.0,0.0,0.0,0.0,0.0,0.0,-0.6357,-0.8005,0.0,0.0,0.0,0.0,0.0,0.0,0.0,0.0,-0.8592,0.0,0.0,0.0,0.0,0.0,0.0,0.0,0.0,0.0,0.0,0.0,0.0,0.0,0.0,0.0,0.0,0.0,0.0,0.0,0.0,0.0,0.0,0.0,0.0,0.0,0.0,0.0,0.0,0.0,0.0,0.0,0.0,0.0,0.0,0.0,0.0,0.0,0.0,0.0,0.0,0.0,0.0,0.0,0.0,0.0,0.0,0.0,0.0,0.0,0.0,0.0,0.0,0.0,0.0,0.0,0.0,-1.1432,-1.3514,-1.5038,-1.6018,-1.6218,-1.6148,-1.5843,-1.4747,-1.364,-1.2474,0.0,0.0,0.0,0.0,0.0,0.0,0.0,0.0,0.0,0.0,0.0,0.0,0.0,0.0,0.0,0.0,0.0,0.0,0.0,0.0,0.0,0.0,0.0,0.0,0.0,0.0,0.0,0.0,0.0,0.0,0.0,0.0,0.0,0.0,0.0,0.0,0.0,0.0,0.0,-0.9013,-0.9947,0.0,0.0,0.0,0.0,0.0,0.0,0.0,0.0,-0.8811,0.0,0.0,0.0,0.0,0.0,0.0,0.0,0.0,0.0,0.0,0.0,0.0,0.0,0.0,0.0,0.0,0.0,0.0,0.0,0.0,0.0,0.0,0.0,0.0,0.0,0.0,0.0,0.0,0.0,0.0,0.0,0.0,0.0,0.0,0.0,0.0,0.0,0.0,0.0,0.0,0.0,0.0,0.0,0.0,0.0,0.0,0.0,0.0,0.0,0.0,0.0,0.0,0.0,0.0,0.0,-1.1097,-1.3442,-1.5009,-1.5757,-1.631,-1.6287,-1.5596,-1.4656,-1.3391,0.0,0.0,0.0,0.0,0.0,0.0,0.0,0.0,0.0,0.0,0.0,0.0,0.0,0.0,0.0,0.0,0.0,0.0,0.0,0.0,0.0,0.0,0.0,0.0,0.0,0.0,0.0,0.0,0.0,0.0,0.0,0.0,0.0,0.0,0.0,0.0,0.0,0.0,0.0,0.0,-1.0361,-1.1177,-1.015,0.0,0.0,0.0,0.0,0.0,0.0,-0.8912,-0.8823,0.0,0.0,0.0,0.0,0.0,0.0,0.0,0.0,0.0,0.0,0.0,0.0,0.0,0.0,0.0,0.0,0.0,0.0,0.0,0.0,0.0,0.0,0.0,0.0,0.0,0.0,0.0,0.0,0.0,0.0,0.0,0.0,0.0,0.0,0.0,0.0,0.0,0.0,0.0,0.0,0.0,0.0,0.0,0.0,0.0,0.0,0.0,0.0,0.0,0.0,0.0,0.0,0.0,0.0,0.0,-1.0663,-1.3199,-1.473,-1.524,-1.6172,-1.6221,-1.523,-1.4435,-1.3072,0.0,0.0,0.0,0.0,0.0,0.0,0.0,0.0,0.0,0.0,0.0,0.0,0.0,0.0,0.0,0.0,0.0,0.0,0.0,0.0,0.0,0.0,0.0,0.0,0.0,0.0,0.0,0.0,0.0,0.0,0.0,0.0,0.0,0.0,0.0,0.0,0.0,0.0,0.0,0.0,0.0,-1.2125,-1.0783,-1.126,0.0,0.0,0.0,0.0,-0.9278,-0.9199,0.0,0.0,0.0,0.0,0.0,0.0,0.0,0.0,0.0,0.0,0.0,0.0,0.0,0.0,0.0,0.0,0.0,0.0,0.0,0.0,0.0,0.0,0.0,0.0,0.0,0.0,0.0,0.0,0.0,0.0,0.0,0.0,0.0,0.0,0.0,0.0,0.0,0.0,0.0,0.0,0.0,0.0,0.0,0.0,0.0,0.0,0.0,0.0,0.0,0.0,0.0,0.0,0.0,0.0,0.0,0.0,-1.0453,-1.2671,-1.4104,-1.4702,-1.5504,-1.5693,-1.5196,-1.3769,-1.255,0.0,0.0,0.0,0.0,0.0,0.0,0.0,0.0,0.0,0.0,0.0,0.0,0.0,0.0,0.0,0.0,0.0,0.0,0.0,0.0,0.0,0.0,0.0,0.0,0.0,0.0,0.0,0.0,0.0,0.0,0.0,0.0,0.0,0.0,0.0,0.0,0.0,0.0,0.0,0.0,0.0,-1.1984,-1.0984,-1.1134,-1.1282,0.0,0.0,-0.984,-1.065,-1.0597,0.0,0.0,0.0,0.0,0.0,0.0,0.0,0.0,0.0,0.0,0.0,0.0,0.0,0.0,0.0,0.0,0.0,0.0,0.0,0.0,0.0,0.0,0.0,0.0,0.0,0.0,0.0,0.0,0.0,0.0,0.0,0.0,0.0,0.0,0.0,0.0,0.0,0.0,0.0,0.0,0.0,0.0,0.0,0.0,0.0,0.0,0.0,0.0,0.0,0.0,0.0,0.0,0.0,0.0,0.0,-0.8797,-1.0207,-1.2415,-1.3753,-1.4163,-1.4989,-1.4947,-1.4045,-1.2804,-1.1677,0.0,0.0,0.0,0.0,0.0,0.0,0.0,0.0,0.0,0.0,0.0,0.0,0.0,0.0,0.0,0.0,0.0,0.0,0.0,0.0,0.0,0.0,0.0,0.0,0.0,0.0,0.0,0.0,0.0,0.0,0.0,0.0,0.0,0.0,0.0,0.0,0.0,0.0,0.0,0.0,0.0,0.0,-1.1015,-1.1515,0.0,0.0,0.0,-1.0368,-1.1206,0.0,0.0,0.0,0.0,0.0,0.0,0.0,0.0,0.0,0.0,0.0,0.0,0.0,0.0,0.0,0.0,0.0,0.0,0.0,0.0,0.0,0.0,0.0,0.0,0.0,0.0,0.0,0.0,0.0,0.0,0.0,0.0,0.0,0.0,0.0,0.0,0.0,0.0,0.0,0.0,0.0,0.0,0.0,0.0,0.0,0.0,0.0,0.0,0.0,0.0,0.0,0.0,0.0,0.0,0.0,0.0,0.0,-1.0012,-1.2192,-1.3477,-1.3741,-1.4416,-1.4258,-1.3153,-1.2099,0.0,0.0,0.0,0.0,0.0,0.0,0.0,0.0,0.0,0.0,0.0,0.0,0.0,0.0,0.0,0.0,0.0,0.0,0.0,0.0,0.0,0.0,0.0,0.0,0.0,0.0,0.0,-0.5938,0.0,0.0,0.0,0.0,0.0,0.0,0.0,0.0,0.0,0.0,0.0,0.0,0.0,0.0,-1.2097,-1.115,-1.1901,-1.2245,0.0,0.0,-1.0955,-1.1677,-1.143,-1.0964,0.0,0.0,0.0,0.0,0.0,0.0,0.0,0.0,0.0,0.0,0.0,0.0,0.0,0.0,0.0,0.0,0.0,0.0,0.0,0.0,0.0,0.0,0.0,0.0,0.0,0.0,0.0,0.0,0.0,0.0,0.0,0.0,0.0,0.0,0.0,0.0,0.0,0.0,0.0,0.0,0.0,0.0,0.0,0.0,0.0,0.0,0.0,0.0,0.0,0.0,0.0,0.0,0.0,0.0,0.0,-1.0025,-1.1928,-1.3151,-1.3615,-1.384,-1.3717,-1.3194,-1.1848,-1.0765,0.0,0.0,0.0,0.0,0.0,0.0,0.0,0.0,0.0,0.0,0.0,0.0,0.0,0.0,0.0,0.0,0.0,0.0,0.0,0.0,0.0,0.0,0.0,0.0,0.0,0.0,0.0,0.0,0.0,0.0,0.0,0.0,0.0,0.0,0.0,0.0,0.0,0.0,0.0,0.0,0.0,-1.1536,-1.1613,-1.2137,-1.2406,0.0,0.0,-1.1774,-1.2278,-1.1901,-1.1445,-1.1106,0.0,0.0,0.0,0.0,0.0,0.0,0.0,0.0,0.0,0.0,0.0,0.0,0.0,0.0,0.0,0.0,0.0,0.0,0.0,0.0,0.0,0.0,0.0,0.0,0.0,0.0,0.0,0.0,0.0,0.0,0.0,0.0,0.0,0.0,0.0,0.0,0.0,0.0,0.0,0.0,0.0,0.0,0.0,0.0,0.0,0.0,0.0,0.0,0.0,0.0,0.0,0.0,0.0,-0.8944,-1.0073,-1.2055,-1.3094,-1.3141,-1.3358,-1.322,-1.265,-1.1614,-1.0744,0.0,0.0,0.0,0.0,0.0,0.0,0.0,0.0,0.0,0.0,0.0,0.0,0.0,0.0,0.0,0.0,0.0,0.0,0.0,0.0,0.0,0.0,0.0,0.0,0.0,0.0,0.0,0.0,-0.6296,-0.6341,-0.6265,0.0,0.0,0.0,0.0,0.0,0.0,0.0,0.0,0.0,0.0,-1.0853,-1.1471,-1.1914,0.0,0.0,-1.212,-1.2129,-1.232,-1.1903,-1.1275,-1.0501,-0.9408,0.0,0.0,0.0,0.0,0.0,0.0,0.0,0.0,0.0,0.0,0.0,0.0,0.0,0.0,0.0,0.0,0.0,0.0,0.0,0.0,0.0,0.0,0.0,0.0,0.0,0.0,0.0,0.0,0.0,0.0,0.0,0.0,0.0,0.0,0.0,0.0,0.0,0.0,0.0,0.0,0.0,0.0,0.0,0.0,0.0,0.0,0.0,0.0,0.0,0.0,0.0,0.0,-0.9165,-1.0247,-1.2198,-1.3106,-1.2924,-1.31,-1.2959,-1.2438,-1.167,-1.0902,0.0,0.0,0.0,0.0,0.0,0.0,0.0,0.0,0.0,0.0,0.0,0.0,0.0,0.0,0.0,0.0,0.0,0.0,0.0,0.0,0.0,0.0,0.0,0.0,0.0,0.0,0.0,0.0,-0.6925,-0.6732,-0.6337,0.0,0.0,0.0,0.0,0.0,0.0,0.0,0.0,0.0,0.0,-1.059,-1.1504,-1.1832,-1.2161,-1.2506,-1.2481,-1.2433,-1.2433,-1.1886,-1.1236,-1.0503,0.0,0.0,0.0,0.0,0.0,0.0,0.0,0.0,0.0,0.0,0.0,0.0,0.0,0.0,0.0,0.0,0.0,0.0,0.0,0.0,0.0,0.0,0.0,0.0,0.0,0.0,0.0,0.0,0.0,0.0,-0.5367,0.0,0.0,0.0,0.0,0.0,0.0,0.0,0.0,0.0,0.0,0.0,0.0,0.0,0.0,0.0,0.0,0.0,0.0,0.0,0.0,0.0,0.0,-0.9653,-1.0586,-1.2311,-1.3206,-1.3193,-1.3206,-1.3066,-1.2777,-1.2201,-1.1337,-1.0134,0.0,0.0,0.0,0.0,0.0,0.0,0.0,0.0,0.0,0.0,0.0,0.0,0.0,0.0,0.0,0.0,0.0,0.0,0.0,0.0,0.0,0.0,0.0,0.0,0.0,0.0,-0.7019,-0.6628,-0.6281,0.0,0.0,0.0,0.0,0.0,0.0,0.0,0.0,0.0,0.0,-1.0003,-1.096,-1.1754,-1.2137,-1.2445,-1.3012,-1.2874,-1.2705,-1.2693,-1.2041,-1.1483,0.0,0.0,0.0,0.0,0.0,0.0,0.0,0.0,0.0,0.0,0.0,0.0,0.0,0.0,0.0,0.0,0.0,0.0,0.0,0.0,0.0,0.0,0.0,0.0,0.0,0.0,0.0,-0.8019,-0.7732,0.0,0.0,0.0,0.0,0.0,0.0,0.0,0.0,0.0,0.0,0.0,-1.0157,-1.0314,0.0,0.0,0.0,0.0,0.0,0.0,0.0,0.0,0.0,0.0,0.0,0.0,-0.9744,-1.0894,-1.2405,-1.3206,-1.3213,-1.336,-1.3313,-1.306,-1.2478,-1.1329,-0.9564,0.0,0.0,0.0,0.0,0.0,0.0,0.0,0.0,0.0,0.0,0.0,0.0,0.0,0.0,0.0,0.0,0.0,0.0,0.0,0.0,0.0,0.0,0.0,0.0,0.0,-0.7049,0.0,0.0,0.0,0.0,0.0,0.0,0.0,0.0,0.0,0.0,0.0,-0.8857,-0.979,-1.0202,-1.0779,-1.1787,-1.2253,-1.2638,0.0,0.0,0.0,0.0,0.0,0.0,0.0,0.0,0.0,0.0,0.0,0.0,0.0,0.0,-1.0677,-0.9678,-0.9504,-0.9281,-0.8572,0.0,0.0,0.0,0.0,0.0,0.0,0.0,0.0,0.0,0.0,0.0,0.0,0.0,0.0,-0.9419,0.0,-0.8891,0.0,0.0,0.0,0.0,0.0,0.0,0.0,0.0,-1.1336,-1.1937,-1.1538,-1.1777,-1.2118,0.0,-1.2248,-1.1503,0.0,0.0,0.0,0.0,0.0,0.0,0.0,0.0,-1.0097,-1.1289,-1.2559,-1.326,-1.3327,-1.3507,-1.3513,-1.332,-1.2572,-1.1376,-0.9753,-0.9045,-0.8469,0.0,0.0,0.0,0.0,0.0,0.0,0.0,0.0,0.0,0.0,0.0,0.0,0.0,0.0,0.0,0.0,0.0,0.0,0.0,0.0,0.0,0.0,0.0,-0.7881,0.0,0.0,0.0,0.0,0.0,0.0,0.0,0.0,0.0,-0.8096,-0.8819,-0.9506,-1.0091,-1.0557,-1.1166,-1.195,0.0,0.0,0.0,0.0,0.0,0.0,0.0,-1.2277,-1.2193,-1.2024,-1.2041,-1.2271,-1.2493,-1.2668,-1.2794,0.0,0.0,-1.1248,-1.099,-1.0767,-1.0063,-0.9931,-0.9871,-0.9684,-0.9799,-1.0033,0.0,0.0,0.0,0.0,0.0,0.0,0.0,0.0,-1.0895,-1.07,0.0,-0.9724,0.0,0.0,0.0,0.0,0.0,-1.0274,0.0,0.0,-1.2701,-1.348,-1.3267,-1.3473,-1.3626,-1.364,-1.3606,-1.3313,-1.2717,-1.1357,0.0,0.0,0.0,0.0,0.0,0.0,-1.0701,-1.1879,-1.2759,-1.3327,-1.3586,-1.3626,-1.3626,-1.3553,-1.2498,-1.1517,-1.064,-0.9704,-0.9118,-0.8864,-0.8245,0.0,0.0,0.0,0.0,0.0,0.0,0.0,0.0,0.0,0.0,0.0,0.0,0.0,0.0,0.0,0.0,0.0,0.0,0.0,0.0,-0.8409,0.0,0.0,0.0,0.0,0.0,0.0,0.0,0.0,0.0,0.0,-0.908,-0.9985,-1.0473,-1.0055,0.0,0.0,0.0,0.0,-1.3498,-1.4539,-1.4292,-1.4069,-1.4292,-1.3688,-1.3278,-1.3538,0.0,0.0,-1.3954,-1.3984,-1.399,-1.3984,-1.4171,-1.4093,-1.3326,-1.265,-1.2103,-1.1561,-1.1411,-1.1353,-1.0912,-1.1128,-1.1483,-1.3561,0.0,0.0,0.0,0.0,-1.212,-1.2532,-1.294,-1.2581,-1.2572,-1.2692,-1.1597,0.0,0.0,0.0,0.0,0.0,0.0,-1.2362,-1.2525,-1.397,-1.4429,-1.4106,-1.4186,-1.4382,-1.4569,-1.4162,-1.3761,-1.338,-1.292,-1.1948,-1.0494,0.0,0.0,0.0,0.0,-1.0941,-1.1906,-1.2959,-1.352,-1.3606,-1.4013,-1.3926,-1.3313,-1.2585,-1.1864,-1.1196,-1.0296,-0.9927,-1.0064,-0.8905,0.0,0.0,0.0,0.0,0.0,0.0,0.0,0.0,0.0,0.0,0.0,0.0,0.0,0.0,0.0,0.0,0.0,0.0,0.0,-0.8092,-0.8376,-0.8489,0.0,0.0,0.0,0.0,0.0,0.0,0.0,0.0,0.0,-1.0886,-1.1112,-1.131,0.0,0.0,-1.283,-1.3139,-1.3797,-1.437,-1.4672,-1.5059,0.0,-1.5173,-1.4811,-1.463,-1.489,-1.524,-1.5578,-1.5855,-1.5734,-1.5602,-1.5584,-1.5348,-1.5071,-1.4829,-1.3912,-1.291,-1.2059,-1.1772,-1.1862,-1.2101,-1.2276,-1.2542,-1.5826,-1.4238,-1.3956,-1.3735,-1.3567,-1.401,-1.4526,-1.4997,-1.4476,-1.4372,-1.4609,-1.344,-1.2852,-1.275,-1.2071,0.0,0.0,0.0,-1.3876,-1.3948,-1.511,-1.5498,-1.5231,-1.5331,-1.5418,-1.5471,-1.5244,-1.4917,-1.4466,-1.4585,-1.3968,-1.2589,0.0,0.0,-1.0808,-1.1022,-1.1491,-1.2261,-1.3273,-1.3773,-1.3821,-1.4162,-1.3988,-1.3194,-1.2852,-1.2331,-1.1623,-1.0982,-1.0661,-1.0747,-0.9588,-0.8758,0.0,0.0,0.0,0.0,0.0,0.0,0.0,0.0,0.0,0.0,0.0,-0.565,0.0,0.0,0.0,0.0,-0.7375,-0.8127,-0.893,-0.9002,0.0,0.0,0.0,0.0,0.0,0.0,0.0,-1.1048,-1.183,-1.2348,-1.2458,-1.297,-1.3022,-1.2329,-1.2905,-1.3532,-1.3791,0.0,-1.4944,-1.5149,-1.568,-1.6,-1.5843,-1.5596,-1.5511,-1.5771,-1.6157,-1.6483,-1.6652,-1.6555,-1.641,-1.6278,-1.6024,-1.571,-1.5403,-1.4672,-1.39,-1.3055,-1.2958,-1.3035,-1.3181,-1.326,-1.3495,-1.7621,-1.7286,-1.6159,-1.5645,-1.5585,-1.6112,-1.6717,-1.7192,-1.6299,-1.6099,-1.6286,-1.5137,-1.4456,-1.4142,-1.3874,0.0,-1.3826,-1.4937,-1.5297,-1.5189,-1.6213,-1.6567,-1.6326,-1.6573,-1.6567,-1.6313,-1.6533,-1.6353,-1.5791,-1.6086,-1.5846,-1.4975,-1.3125,-1.2141,-1.2017,-1.202,-1.2301,-1.2891,-1.3762,-1.4168,-1.4188,-1.4148,-1.3841,-1.3267,-1.322,-1.2799,-1.1986,-1.1617,-1.1336,-1.1056,-1.0278,-0.9646,-0.9277,0.0,0.0,0.0,0.0,0.0,0.0,0.0,0.0,0.0,0.0,0.0,0.0,0.0,0.0,0.0,-0.8931,0.0,-0.9775,-0.9973,0.0,0.0,0.0,-0.9208,-0.9643,-1.0334,-1.1132,-1.1993,0.0,0.0,-1.3832,-1.5053,-1.5216,-1.3199,-1.3652,-1.4261,-1.4455,-1.4968,-1.5439,-1.5922,-1.6229,-1.6404,-1.6429,-1.6223,-1.6145,-1.6368,-1.6592,-1.6773,-1.6791,-1.6785,-1.6658,-1.6423,-1.6332,-1.6097,-1.5342,-1.5197,-1.501,-1.4491,-1.4497,-1.4485,-1.4105,-1.4171,-1.4346,-1.8898,-1.8867,-1.8537,-1.7829,-1.6797,-1.6931,-1.7281,-1.7762,-1.7128,-1.7045,-1.7194,-1.5984,-1.5237,-1.475,-1.4683,-1.489,-1.5278,-1.5558,-1.5925,-1.6293,-1.6573,-1.6667,-1.6613,-1.6673,-1.6673,-1.658,-1.6213,-1.5917,-1.5791,-1.5899,-1.5605,-1.5028,-1.4689,-1.4108,-1.3247,-1.3006,-1.3186,-1.3802,-1.4465,-1.4908,-1.507,-1.4649,-1.4135,-1.3513,-1.3287,-1.2893,-1.2225,-1.1924,-1.1765,-1.1685,-1.1069,-1.0448,-0.9897,-0.9264,0.0,0.0,0.0,0.0,0.0,0.0,0.0,0.0,0.0,-0.7116,-0.7289,0.0,-0.7964,0.0,-0.8831,-0.959,-1.0318,-1.0207,0.0,0.0,-1.0361,-1.041,-1.1288,-1.1468,-1.1916,-1.2855,-1.3542,-1.4065,-1.4314,-1.5424,-1.5919,-1.519,-1.5844,-1.6317,-1.6187,-1.6398,-1.6658,-1.6773,-1.7002,-1.7201,-1.7177,-1.7153,-1.7098,-1.7189,-1.7249,-1.7292,-1.7292,-1.7292,-1.7213,-1.6948,-1.6724,-1.6453,-1.606,-1.5849,-1.568,-1.5481,-1.4926,-1.4503,-1.4751,-1.4877,-1.5028,-1.9679,-1.9559,-1.9559,-1.9062,-1.8191,-1.8191,-1.833,-1.8591,-1.8143,-1.8029,-1.8123,-1.7355,-1.6834,-1.6589,-1.6583,-1.6707,-1.7007,-1.7014,-1.7194,-1.7495,-1.7502,-1.7502,-1.7502,-1.7495,-1.7355,-1.7081,-1.6633,-1.6346,-1.6226,-1.6171,-1.5992,-1.5604,-1.5759,-1.5398,-1.4585,-1.4195,-1.4088,-1.4275,-1.4736,-1.5149,-1.5371,-1.495,-1.4382,-1.3626,-1.3447,-1.3053,-1.2325,-1.2024,-1.1906,-1.1886,-1.1309,-1.0788,-1.0334,-0.976,-0.9078,0.0,0.0,0.0,0.0,0.0,0.0,0.0,0.0,0.0,0.0,0.0,-0.8898,-0.9243,-0.9807,-1.0468,-1.1115,-1.1256,-1.1483,-1.1856,-1.1784,-1.1896,-1.2458,-1.2751,-1.3134,-1.3705,-1.4469,-1.5041,-1.5284,-1.6357,-1.6923,-1.6598,-1.7136,-1.7364,-1.6817,-1.6827,-1.696,-1.708,-1.7316,-1.7485,-1.7485,-1.7485,-1.7485,-1.7485,-1.7485,-1.7485,-1.7485,-1.7485,-1.74,-1.7141,-1.6972,-1.6785,-1.6525,-1.6362,-1.6254,-1.6175,-1.5789,-1.5439,-1.5439,-1.5451,-1.5565,-2.006,-1.9806,-1.9806,-1.9633,-1.9424,-1.9424,-1.9424,-1.941,-1.9052,-1.8905,-1.8851,-1.8597,-1.8464,-1.8437,-1.8437,-1.841,-1.8377,-1.8377,-1.837,-1.8377,-1.841,-1.8437,-1.8437,-1.8477,-1.8196,-1.7642,-1.736,-1.7014,-1.6767,-1.672,-1.658,-1.6339,-1.6409,-1.6239,-1.5891,-1.5478,-1.5097,-1.481,-1.5057,-1.5311,-1.5545,-1.5256,-1.4636,-1.3813,-1.3626,-1.316,-1.2398,-1.2114,-1.1946,-1.1893,-1.141,-1.1015,-1.0713,-1.0177,-0.9593,0.0,-0.8971,0.0,0.0,0.0,0.0,0.0,0.0,0.0,0.0,-0.9604,-0.994,-1.07,-1.1256,-1.171,-1.2017,-1.2643,-1.2934,-1.2791,-1.3191,-1.3419,-1.3403,-1.3945,-1.4337,-1.4443,-1.53,-1.5973,-1.6243,-1.7249,-1.7767,-1.7438,-1.7654,-1.7588,-1.6974,-1.6845,-1.6936,-1.7117,-1.7334,-1.7485,-1.7485,-1.7485,-1.7485,-1.7485,-1.7485,-1.7485,-1.7485,-1.7485,-1.7394,-1.7159,-1.7086,-1.699,-1.6748,-1.6688,-1.6682,-1.6658,-1.6598,-1.6447,-1.6103,-1.5994,-1.5994,-2.0007,-1.9806,-1.9806,-1.9633,-1.9424,-1.9424,-1.9424,-1.9403,-1.9052,-1.8791,-1.8571,-1.851,-1.8357,-1.8082,-1.8075,-1.7996,-1.7762,-1.7756,-1.7756,-1.7762,-1.7962,-1.8075,-1.8089,-1.8377,-1.8303,-1.7882,-1.7408,-1.7172,-1.7112,-1.682,-1.668,-1.6627,-1.686,-1.684,-1.656,0.0,0.0,0.0,-1.6346,-1.6406,-1.6426,-1.5712,-1.5124,-1.471,-1.3788,0.0,-1.2717,-1.2378,-1.2111,-1.1926,-1.1991,0.0,0.0,0.0,0.0,0.0,0.0,0.0,0.0,0.0,0.0,0.0,-1.206,-1.1839,-1.173,-1.1724,-1.169,-1.1678,-1.2187,-1.2663,-1.2933,-1.3701,-1.4182,-1.4153,-1.4278,-1.4461,-1.4696,-1.4477,-1.4518,-1.519,-1.5452,-1.5759,-1.63,-1.6868,-1.7258,-1.7231,-1.7438,-1.7495,-1.734,-1.7304,-1.7346,-1.7412,-1.7449,-1.7485,-1.7485,-1.7485,-1.7485,-1.7485,-1.7485,-1.7485,-1.7485,-1.7485,-1.7394,-1.7153,-1.7092,-1.7014,-1.6761,-1.67,-1.673,-1.6706,-1.6712,-1.667,-1.6567,-1.6549,-1.6549,-2.0494,0.0,-2.0227,-2.0067,0.0,-1.9793,-1.9793,-1.9766,-1.9332,-1.9058,-1.8925,-1.8925,-1.8758,-1.847,-1.833,-1.8103,-1.7809,-1.7649,-1.7662,-1.7822,-1.8123,-1.8343,-1.8435,-1.8784,-1.8698,-1.8257,-1.7796,-1.7428,-1.7206,-1.7045,-1.6847,-1.6707,-1.7058,-1.7052,-1.6727,-1.7052,-1.7125,-1.6927,-1.678,-1.6707,-1.668,-1.6132,-1.5551,-1.5015,0.0,0.0,0.0,0.0,0.0,0.0,0.0,0.0,0.0,0.0,0.0,-1.0783,-1.1176,-1.1416,-1.1484,-1.2111,-1.2741,-1.3407,-1.3976,-1.3895,-1.3,-1.2927,-1.2966,-1.2979,-1.3367,-1.3741,-1.4062,-1.4736,-1.5224,-1.5371,-1.5425,-1.5536,-1.5608,-1.5474,-1.5453,-1.5872,-1.6162,-1.6473,-1.671,-1.7181,-1.7441,-1.735,-1.7388,-1.7485,-1.7485,-1.7485,-1.7485,-1.7485,-1.7485,-1.7485,-1.7485,-1.7485,-1.7485,-1.7485,-1.7485,-1.7485,-1.7485,-1.7485,-1.743,-1.731,-1.7286,-1.7231,-1.7129,-1.7086,-1.7092,-1.7105,-1.7195,-1.7274,-1.7261,-1.6978,-1.67,-2.0942,-2.0675,-2.0675,-2.0508,-2.0173,-2.0173,-2.0173,-2.0201,0.0,0.0,0.0,-1.9466,-1.9279,-1.8985,-1.8637,-1.833,-1.7975,-1.7722,-1.7749,-1.8009,-1.8357,-1.8644,-1.8931,-1.9232,-1.9092,-1.8571,-1.825,-1.7856,-1.7447,-1.7333,-1.7192,-1.6974,-1.7186,-1.7101,-1.6894,-1.7108,-1.728,-1.7266,-1.6987,-1.686,-1.6847,-1.6526,-1.6047,-1.5336,-1.4836,-1.4115,-1.3146,-1.2726,-1.2518,-1.2458,-1.2238,-1.2111,-1.2147,-1.2331,-1.2271,-1.1862,-1.2599,-1.3038,-1.2872,-1.3634,-1.4235,-1.4522,-1.5478,-1.5484,-1.4086,-1.4039,-1.4162,-1.4302,-1.4629,-1.491,-1.511,-1.5745,-1.6192,-1.6346,-1.6489,-1.6507,-1.6531,-1.6475,-1.6497,-1.669,-1.7064,-1.7336,-1.7297,-1.7644,-1.7908,-1.7602,-1.7473,-1.7485,-1.7485,-1.7485,-1.7485,-1.7485,-1.7485,-1.7485,-1.7485,-1.7485,-1.7485,-1.7485,-1.7485,-1.7485,-1.7485,-1.7485,-1.7485,-1.7467,-1.7479,-1.7467,-1.7473,-1.7449,-1.7485,-1.7485,-1.769,-1.7931,-1.7883,-1.7412,-1.7032,-2.0942,-2.0675,-2.0675,-2.0501,-2.0173,-2.0173,-2.0173,-2.0227,-2.0147,-2.0107,-2.01,-1.9846,-1.9579,-1.9279,-1.8731,-1.8323,-1.7982,-1.7722,-1.7749,-1.8002,-1.8357,-1.8644,-1.8931,-1.9225,-1.9192,-1.8858,-1.8564,-1.8384,-1.8257,-1.7782,-1.7629,-1.7742,-1.7635,-1.7495,-1.7468,-1.7502,-1.7522,-1.7568,-1.7482,-1.7455,-1.7448,-1.6921,-1.6593,-1.6433,-1.5484,-1.4716,-1.4282,-1.37,-1.33,-1.31,-1.3046,-1.3019,-1.3026,-1.306,-1.3153,-1.33,-1.3921,-1.4469,-1.4923,-1.5551,-1.6032,-1.6326,-1.6777,-1.6553,-1.5631,-1.5758,-1.5712,-1.5304,-1.5718,-1.5932,-1.5764,-1.6687,-1.7128,-1.678,-1.7101,-1.7415,-1.7403,-1.72,-1.7244,-1.7746,-1.7852,-1.7761,-1.7615,-1.7832,-1.7908,-1.7608,-1.7485,-1.7485,-1.7485,-1.7485,-1.7485,-1.7485,-1.7485,-1.7485,-1.7545,-1.7491,-1.7521,-1.7485,-1.7503,-1.7509,-1.7485,-1.7485,-1.7485,-1.7485,-1.7485,-1.7485,-1.7485,-1.7485,-1.7503,-1.7527,-1.7798,-1.7973,-1.8004,-1.7937,-1.7943,-2.1029,-2.0915,-2.0909,-2.0835,-2.0708,-2.0708,-2.0708,-2.0708,-2.0708,-2.0528,-2.0153,-1.9927,-1.9639,-1.9325,-1.8751,-1.833,-1.7982,-1.7722,-1.7749,-1.8002,-1.835,-1.8644,-1.8931,-1.9225,-1.9292,-1.9158,-1.9032,-1.8885,-1.8711,-1.8437,-1.8223,-1.7989,-1.7736,-1.7589,-1.7589,-1.7589,-1.7589,-1.7589,-1.7589,-1.7589,-1.7575,-1.7168,-1.6867,-1.67,-1.5865,-1.5217,-1.4821,-1.4349,-1.3939,-1.3694,-1.3687,-1.3687,-1.3687,-1.3834,-1.4055,-1.4355,-1.491,-1.5344,-1.5618,-1.6032,-1.6466,-1.6951,-1.7119,-1.7112,-1.6807,-1.6907,-1.6867,-1.6627,-1.6987,-1.7181,-1.7054,-1.7662,-1.7963,-1.7702,-1.7796,-1.7896,-1.8023,-1.7809,-1.79,-1.8443,-1.8492,-1.8345,-1.8096,-1.8112,-1.8018,-1.7602,-1.7485,-1.7485,-1.7497,-1.7612,-1.7696,-1.7708,-1.7823,-1.7913,-1.7919,-1.7925,-1.7865,-1.7726,-1.7696,-1.7636,-1.7527,-1.7485,-1.7485,-1.7485,-1.7485,-1.7485,-1.7485,-1.7605,-1.7672,-1.7732,-1.8046,-1.8263,-1.8336,-1.8426,-1.8342,-2.1102,-2.1102,-2.1102,-2.1102,-2.1102,-2.1102,-2.1102,-2.1102,-2.1102,-2.0855,-2.0428,-2.0127,-1.9873,-1.9671,-1.9045,-1.8664,-1.8417,-1.8056,-1.805,-1.8343,-1.8517,-1.8744,-1.9018,-1.9323,-1.9424,-1.9424,-1.9424,-1.9245,-1.9038,-1.8958,-1.8624,-1.8022,-1.7809,-1.7649,-1.7589,-1.7589,-1.7589,-1.7589,-1.7589,-1.7589,-1.7575,-1.7414,-1.7179,-1.6887,-1.6406,-1.5885,-1.5424,-1.507,-1.4783,-1.4502,-1.4416,-1.4382,-1.4396,-1.4596,-1.4877,-1.5251,-1.5738,-1.6077,-1.6277,-1.6607,-1.7018,-1.7454,-1.7507,-1.7601,-1.7749,-1.7849,-1.7789,-1.7662,-1.7876,-1.8042,-1.7982,-1.8357,-1.8564,-1.8497,-1.835,-1.8343,-1.8517,-1.837,-1.8417,-1.8918,-1.9025,-1.8889,-1.8532,-1.8421,-1.8188,-1.7655,-1.7527,-1.7569,-1.7599,-1.7835,-1.8101,-1.8143,-1.8203,-1.8257,-1.83,-1.8275,-1.8149,-1.7979,-1.7925,-1.7738,-1.7569,-1.7485,-1.7485,-1.7485,-1.7485,-1.7485,-1.7503,-1.769,-1.7829,-1.7943,-1.8251,-1.8662,-1.874,-1.8758,-1.8553,-2.1102,-2.1102,-2.1102,-2.1102,-2.1102,-2.1102,-2.1102,-2.1102,-2.1102,-2.1089,-2.0969,-2.0722,-2.0568,-2.0481,-1.992,-1.9626,-1.9553,-1.9052,-1.8951,-1.9158,-1.8991,-1.9038,-1.9292,-1.941,-1.9424,-1.9424,-1.9424,-1.9403,-1.9285,-1.9052,-1.8568,-1.8055,-1.7962,-1.7856,-1.7615,-1.7589,-1.7589,-1.7589,-1.7589,-1.7589,-1.7589,-1.7562,-1.7528,-1.7502,-1.7239,-1.6881,-1.65,-1.6273,-1.5972,-1.5685,-1.5411,-1.5271,-1.5284,-1.5304,-1.5571,-1.6161,-1.6453,-1.6967,-1.7676,-1.8116,-1.8257,-1.8357,-1.8323,-1.8337,-1.839,-1.8631,-1.8437,-1.7923,-1.8136,-1.8357,-1.8069,-1.8564,-1.8784,-1.8611,-1.8711,-1.8858,-1.8871,-1.8858,-1.8965,-1.9343,-1.9292,-1.9107,-1.8532,-1.8363,-1.8123,-1.7602,-1.7666,-1.7787,-1.7835,-1.8215,-1.8523,-1.8523,-1.8456,-1.8336,-1.8342,-1.8306,-1.8245,-1.8052,-1.7955,-1.7817,-1.7666,-1.7557,-1.7497,-1.7642,-1.7551,-1.7563,-1.7593,-1.769,-1.7901,-1.804,-1.8372,-1.8764,-1.8963,-1.9012,-1.8728,-2.1102,-2.1102,-2.1102,-2.1102,-2.1102,-2.1102,-2.1102,-2.1102,-2.1102,-2.1102,-2.1096,-2.0982,-2.0835,-2.0655,-2.0241,-2.0054,-2.0027,-1.9626,-1.9499,-1.9593,-1.9325,-1.931,-1.9417,-1.9424,-1.9424,-1.9424,-1.9424,-1.9424,-1.9312,-1.9065,-1.8711,-1.833,-1.8082,-1.7889,-1.7609,-1.7589,-1.7589,-1.7589,-1.7589,-1.7669,-1.7809,-1.7675,-1.7589,-1.7555,-1.736,-1.7152,-1.7012,-1.668,-1.6473,-1.6353,-1.6233,-1.6172,-1.6172,-1.6166,-1.6353,-1.6824,-1.7241,-1.7602,-1.7975,-1.8323,-1.8497,-1.8497,-1.8497,-1.8497,-1.8504,-1.8758,-1.8751,-1.8517,-1.8758,-1.8951,-1.8851,-1.9052,-1.9138,-1.9045,-1.9125,-1.9185,-1.9185,-1.9185,-1.9245,-1.941,-1.9424,-1.9127,-1.8538,-1.8064,-1.7772,-1.7568,-1.7708,-1.7943,-1.7913,-1.8336,-1.8644,-1.8698,-1.871,-1.8758,-1.8746,-1.8752,-1.8625,-1.8432,-1.8354,-1.8257,-1.8016,-1.7968,-1.7968,-1.795,-1.7925,-1.7925,-1.7992,-1.8167,-1.836,-1.8414,-1.8583,-1.8957,-1.9054,-1.9136,-1.8788,-2.1102,-2.1102,-2.1102,-2.1102,-2.1102,-2.1102,-2.1102,-2.1102,-2.1102,-2.1102,-2.1102,-2.1102,-2.0995,-2.0782,-2.0568,-2.0474,-2.0434,-2.0174,-2.004,-2.0007,-1.974,-1.9606,-1.9599,-1.9519,-1.9486,-1.9479,-1.9399,-1.9424,-1.9403,-1.9165,-1.8898,-1.8604,-1.831,-1.8016,-1.7729,-1.7635,-1.7589,-1.7589,-1.7589,-1.7729,-1.7916,-1.7829,-1.7749,-1.7802,-1.7682,-1.7568,-1.7561,-1.7315,-1.7194,-1.7194,-1.7121,-1.7074,-1.7016,-1.6994,-1.7081,-1.7395,-1.7956,-1.8229,-1.8235,-1.8564,-1.8731,-1.8731,-1.8738,-1.8731,-1.8764,-1.8925,-1.9032,-1.9045,-1.9245,-1.9403,-1.9424,-1.9424,-1.945,-1.9524,-1.9486,-1.9486,-1.9492,-1.9479,-1.9452,-1.9444,-1.9424,-1.9127,-1.848,-1.8012,-1.7679,-1.7671,-1.7829,-1.8034,-1.8131,-1.8499,-1.8801,-1.8794,-1.8957,-1.9042,-1.9136,-1.903,-1.8957,-1.8782,-1.8644,-1.8547,-1.836,-1.83,-1.8287,-1.8143,-1.8257,-1.8287,-1.8215,-1.8432,-1.8722,-1.8776,-1.8855,-1.8957,-1.9048,-1.9024,-1.8788,-2.1102,-2.1116,-2.1116,-2.1142,-2.1116,-2.1129,-2.1122,-2.1169,-2.1136,-2.1129,-2.1129,-2.1122,-2.1102,-2.1076,-2.1015,-2.1049,-2.1015,-2.0722,-2.0581,-2.0555,-2.0287,-2.012,-2.0174,-1.9913,-1.9773,-1.972,-1.9479,-1.9424,-1.9424,-1.9403,-1.9199,-1.8891,-1.8604,-1.8317,-1.7955,-1.7742,-1.7589,-1.7589,-1.7589,-1.7742,-1.7962,-1.7989,-1.8109,-1.8417,-1.8417,-1.8364,-1.8384,-1.8397,-1.8377,-1.839,-1.8035,-1.7909,-1.7896,-1.7695,-1.7675,-1.7983,-1.8531,-1.8865,-1.8878,-1.9105,-1.9336,-1.9357,-1.9259,-1.9363,-1.9303,-1.9336,-1.9357,-1.9397,-1.9339,-1.9424,-1.9457,-1.9444,-1.9486,-1.972,-1.9766,-1.9753,-1.9766,-1.974,-1.9646,-1.9432,-1.9366,-1.9127,-1.8538,-1.8142,-1.7978,-1.7936,-1.8088,-1.8342,-1.8553,-1.8849,-1.9,-1.9024,-1.9048,-1.9136,-1.9136,-1.9136,-1.8957,-1.8837,-1.8746,-1.865,-1.8444,-1.8294,-1.8318,-1.8336,-1.8402,-1.842,-1.8378,-1.8505,-1.8776,-1.8825,-1.8656,-1.8716,-1.9024,-1.8855,-1.8638,-2.167,-2.167,-2.167,-2.167,-2.167,-2.1663,-2.167,-2.167,-2.1677,-2.1563,-2.1416,-2.1396,-2.1289,-2.1102,-2.1102,-2.1102,-2.1082,-2.0808,-2.0675,-2.0641,-2.0374,-2.0173,-2.0201,-1.994,-1.9806,-1.976,-1.9506,-1.9424,-1.9424,-1.9424,-1.9219,-1.8958,-1.8824,-1.8475,-1.8055,-1.7889,-1.7789,-1.7609,-1.7589,-1.7822,-1.8283,-1.833,-1.8551,-1.9055,-1.8684,-1.8497,-1.8497,-1.8497,-1.8497,-1.8497,-1.8384,-1.833,-1.8323,-1.8223,-1.8203,-1.8337,-1.8704,-1.8868,-1.8901,-1.9205,-1.9424,-1.9424,-1.9424,-1.9424,-1.9424,-1.9424,-1.9424,-1.9424,-1.9424,-1.9432,-1.9566,-1.9486,-1.9486,-1.974,-1.9813,-1.9826,-1.9806,-1.98,-1.9686,-1.9446,-1.9243,-1.8939,-1.8758,-1.8462,-1.8257,-1.8261,-1.8441,-1.8609,-1.8686,-1.8903,-1.9136,-1.9136,-1.9136,-1.9136,-1.9136,-1.9136,-1.903,-1.8988,-1.8927,-1.8915,-1.8782,-1.8734,-1.8752,-1.8722,-1.871,-1.8704,-1.8716,-1.871,-1.8939,-1.8939,-1.8758,-1.868,-1.9036,-1.8897,-1.8674,-2.1984,-2.1984,-2.1984,-2.1984,-2.1984,-2.1984,-2.1984,-2.1984,-2.1984,-2.1871,-2.1769,-2.1661,-2.1443,-2.1249,-2.1156,-2.1102,-2.1089,-2.0902,-2.0815,-2.0795,-2.0608,-2.0521,-2.0468,-2.0221,-2.008,-2.0047,-1.9786,-1.9599,-1.9512,-1.9506,-1.9352,-1.9092,-1.8978,-1.8731,-1.8322,-1.8182,-1.8076,-1.7909,-1.7929,-1.813,-1.8571,-1.8631,-1.8858,-1.9232,-1.9035,-1.8778,-1.8778,-1.8778,-1.8771,-1.8771,-1.8771,-1.8778,-1.8778,-1.8778,-1.8778,-1.8798,-1.8958,-1.9072,-1.9085,-1.9259,-1.9424,-1.9424,-1.9424,-1.9424,-1.9424,-1.9424,-1.9424,-1.9424,-1.943,-1.9486,-1.9679,-1.9626,-1.9666,-1.9993,-2.0087,-2.004,-1.9953,-1.994,-1.976,-1.9472,-1.9342,-1.9135,-1.8933,-1.8816,-1.8638,-1.8556,-1.8605,-1.868,-1.8819,-1.8945,-1.9136,-1.9136,-1.9136,-1.9136,-1.9136,-1.9136,-1.9136,-1.9036,-1.9024,-1.9054,-1.9136,-1.9136,-1.9136,-1.9136,-1.9136,-1.9136,-1.9048,-1.9006,-1.9012,-1.9112,-1.8813,-1.8619,-1.8837,-1.8976,-1.8746,-2.2011,-2.2038,-2.1997,-2.2051,-2.2071,-2.2071,-2.2024,-2.2058,-2.2044,-2.2051,-2.1964,-2.1724,-2.1688,-2.1574,-2.1316,-2.1149,-2.1142,-2.1122,-2.1089,-2.1062,-2.1049,-2.1036,-2.1009,-2.0722,-2.0555,-2.0535,-2.0327,-2.0047,-1.9773,-1.9746,-1.9606,-1.9339,-1.9078,-1.8931,-1.8835,-1.8617,-1.8484,-1.8417,-1.8397,-1.8591,-1.8878,-1.8891,-1.9032,-1.939,-1.9377,-1.935,-1.9377,-1.9377,-1.935,-1.9363,-1.9377,-1.941,-1.935,-1.935,-1.939,-1.935,-1.9339,-1.9352,-1.9403,-1.9352,-1.9424,-1.9424,-1.9424,-1.9437,-1.9484,-1.9477,-1.9484,-1.9531,-1.9472,-1.9546,-1.9813,-1.9867,-2.004,-2.0541,-2.0575,-2.0468,-2.0274,-2.0194,-2.0007,-1.9559,-1.9541,-1.9476,-1.9065,-1.9016,-1.9005,-1.8741,-1.8718,-1.8776,-1.8927,-1.9018,-1.913,-1.9136,-1.9136,-1.9136,-1.9136,-1.9136,-1.9136,-1.913,-1.906,-1.9136,-1.9136,-1.9136,-1.9136,-1.9136,-1.9136,-1.9136,-1.9054,-1.9018,-1.8988,-1.9027,-1.871,-1.8638,-1.8831,-1.8976,-1.8825,-2.2585,-2.2585,-2.2653,-2.2592,-2.2592,-2.2592,-2.2592,-2.2592,-2.2653,-2.2472,-2.2291,-2.2191,-2.2044,-2.1871,-2.1744,-2.1603,-2.1423,-2.1474,-2.1303,-2.1142,-2.1109,-2.1102,-2.1056,-2.0815,-2.0568,-2.0388,-2.0281,-2.0087,-1.9867,-1.982,-1.9653,-1.9392,-1.9279,-1.9118,-1.8945,-1.8824,-1.8711,-1.851,-1.8497,-1.8637,-1.8891,-1.8925,-1.9072,-1.939,-1.9424,-1.9424,-1.9424,-1.9424,-1.9424,-1.9424,-1.9424,-1.9424,-1.9424,-1.9424,-1.9424,-1.9424,-1.9424,-1.9424,-1.9424,-1.9424,-1.9424,-1.9424,-1.9424,-1.9531,-1.9633,-1.9659,-1.9746,-1.9907,-1.9967,-2.0087,-2.0334,-2.0408,-2.0481,-2.0717,-2.0668,-2.0568,-2.0261,-1.9907,-1.9686,-1.9634,-1.9569,-1.9456,-1.9363,-1.9362,-1.9069,-1.8803,-1.8848,-1.8945,-1.8861,-1.8994,-1.913,-1.9136,-1.9136,-1.9136,-1.9136,-1.9136,-1.9136,-1.9136,-1.9136,-1.9136,-1.9136,-1.9136,-1.9136,-1.9136,-1.9136,-1.913,-1.9112,-1.91,-1.9012,-1.9012,-1.8921,-1.8945,-1.903,-1.8982,-1.8867,-2.2866,-2.2866,-2.2866,-2.2866,-2.2866,-2.2866,-2.2866,-2.2866,-2.2866,-2.2759,-2.2592,-2.2458,-2.2325,-2.2151,-2.2038,-2.1891,-2.171,-2.1681,-2.1456,-2.1269,-2.1136,-2.1109,-2.1089,-2.0935,-2.0755,-2.0595,-2.0555,-2.0408,-2.0134,-2.0114,-1.9927,-1.9593,-1.9526,-1.9386,-1.9118,-1.9085,-1.8985,-1.8838,-1.8824,-1.8911,-1.9052,-1.9085,-1.9178,-1.9397,-1.9424,-1.9424,-1.9424,-1.9424,-1.9424,-1.9424,-1.9424,-1.9424,-1.9424,-1.9424,-1.9424,-1.9424,-1.9424,-1.9424,-1.9424,-1.9424,-1.9424,-1.9424,-1.9424,-1.9492,-1.9726,-1.9806,-1.9933,-2.0113,-2.016,-2.0347,-2.0601,-2.0668,-2.0715,-2.0828,-2.0848,-2.0655,-2.0294,-1.992,-1.966,-1.9661,-1.964,-1.9587,-1.9407,-1.9449,-1.9186,-1.8975,-1.8981,-1.9054,-1.8909,-1.8982,-1.9036,-1.9072,-1.9136,-1.9136,-1.9136,-1.9136,-1.9136,-1.9136,-1.9136,-1.9136,-1.9136,-1.9136,-1.9136,-1.9136,-1.9136,-1.9136,-1.9124,-1.9124,-1.9054,-1.9136,-1.9136,-1.9072,-1.9066,-1.9066,-1.8982,-2.2928,-2.2934,-2.2859,-2.2866,-2.2866,-2.2866,-2.2866,-2.2866,-2.2866,-2.2914,-2.2779,-2.2592,-2.2458,-2.2378,-2.2225,-2.2091,-2.1964,-2.173,-2.1641,-2.145,-2.1256,-2.1102,-2.1096,-2.1062,-2.1029,-2.1036,-2.1042,-2.0902,-2.0581,-2.0575,-2.0381,-1.982,-1.9746,-1.9646,-1.9372,-1.9417,-1.9383,-1.9343,-1.9363,-1.9319,-1.939,-1.9403,-1.941,-1.9424,-1.9424,-1.9424,-1.9424,-1.9424,-1.9424,-1.9424,-1.9424,-1.9424,-1.9424,-1.9424,-1.9424,-1.9424,-1.9424,-1.9424,-1.9424,-1.9484,-1.9491,-1.9497,-1.9492,-1.9598,-1.9873,-1.998,-2.0087,-2.0286,-2.0306,-2.0448,-2.0675,-2.0673,-2.0786,-2.0979,-2.0952,-2.0768,-2.0293,-2.016,-1.9859,-1.9613,-1.9785,-1.9917,-1.9262,-1.9373,-1.9281,-1.906,-1.9033,-1.9024,-1.8939,-1.8921,-1.903,-1.9042,-1.9012,-1.9136,-1.9136,-1.9136,-1.9136,-1.9136,-1.9078,-1.9084,-1.9078,-1.9136,-1.9136,-1.9136,-1.9136,-1.9136,-1.9136,-1.9136,-1.9136,-1.9136,-1.9136,-1.9136,-1.9136,-1.9136,-1.913,-2.327,-2.327,-2.2996,-2.2866,-2.2866,-2.2866,-2.2866,-2.2866,-2.2866,-2.2866,-2.2839,-2.2786,-2.2732,-2.2726,-2.2659,-2.2519,-2.2278,-2.1997,-2.1802,-2.1588,-2.1249,-2.1116,-2.1102,-2.1102,-2.1102,-2.1102,-2.1096,-2.0962,-2.0695,-2.0695,-2.0394,-1.9826,-1.9846,-1.9673,-1.947,-1.9444,-1.9424,-1.9424,-1.9424,-1.9424,-1.9424,-1.9424,-1.9424,-1.9424,-1.9424,-1.9424,-1.9424,-1.9424,-1.9424,-1.9424,-1.9424,-1.9424,-1.9424,-1.9424,-1.9424,-1.9424,-1.9424,-1.943,-1.947,-1.9559,-1.9666,-1.9706,-1.9846,-2.0134,-2.0414,-2.0441,-2.0588,-2.0808,-2.0882,-2.0889,-2.0913,-2.0737,-2.0607,-2.0436,-2.0654,-2.0706,-2.05,-2.0123,-1.9848,-1.9944,-1.9591,-1.9362,-1.923,-1.9189,-1.9054,-1.8779,-1.8819,-1.8982,-1.8855,-1.8921,-1.906,-1.8933,-1.8909,-1.9012,-1.9136,-1.9136,-1.9136,-1.9136,-1.9084,-1.9108,-1.909,-1.9136,-1.9136,-1.9136,-1.9136,-1.9136,-1.9136,-1.9136,-1.9136,-1.9136,-1.9136,-1.9136,-1.9136,-1.9136,-1.9136,-2.3938,-2.3611,-2.314,-2.2866,-2.2866,-2.2866,-2.2866,-2.2866,-2.2866,-2.2866,-2.2866,-2.2866,-2.2866,-2.2866,-2.2859,-2.2772,-2.2572,-2.2178,-2.1904,-2.1697,-2.1309,-2.1122,-2.1102,-2.1102,-2.1102,-2.1102,-2.1102,-2.1022,-2.0889,-2.0855,-2.0595,-2.0274,-2.0167,-1.996,-1.9586,-1.9546,-1.9479,-1.945,-1.9424,-1.9424,-1.9424,-1.9424,-1.9424,-1.9424,-1.9424,-1.9424,-1.9424,-1.9424,-1.9424,-1.9424,-1.9424,-1.9424,-1.9424,-1.9424,-1.9424,-1.9424,-1.9424,-1.9412,-1.9553,-1.972,-1.9846,-1.9973,-2.016,-2.0368,-2.0588,-2.0681,-2.0802,-2.1036,-2.1096,-2.1046,-2.0862,-2.0609,-2.0297,-2.0214,-2.0333,-2.0378,-2.0335,-2.0028,-1.9816,-1.9706,-1.9519,-1.9217,-1.9024,-1.9042,-1.8894,-1.8674,-1.8849,-1.8861,-1.8801,-1.8951,-1.903,-1.8921,-1.9,-1.9181,-1.932,-1.935,-1.9392,-1.9368,-1.9326,-1.9307,-1.9175,-1.9145,-1.9096,-1.9096,-1.9084,-1.9136,-1.9136,-1.9136,-1.9136,-1.9136,-1.9136,-1.9136,-1.9136,-1.9136,-1.9136,-2.4684,-2.3959,-2.3208,-2.2866,-2.2866,-2.2866,-2.2866,-2.2866,-2.2866,-2.2866,-2.2866,-2.2866,-2.2866,-2.2866,-2.2866,-2.2853,-2.2881,-2.2238,-2.1951,-2.1683,-2.1349,-2.1102,-2.1102,-2.1102,-2.1102,-2.1102,-2.1102,-2.1096,-2.1056,-2.1076,-2.0935,-2.0655,-2.0608,-2.0327,-1.9867,-1.9766,-1.9639,-1.947,-1.9424,-1.9424,-1.9424,-1.9424,-1.9424,-1.9424,-1.9424,-1.9424,-1.9424,-1.9424,-1.9424,-1.9424,-1.9424,-1.9424,-1.9424,-1.9424,-1.9424,-1.945,-1.9484,-1.9553,-1.9766,-1.9867,-2.002,-2.0241,-2.0321,-2.0421,-2.0695,-2.0713,-2.0743,-2.0963,-2.1052,-2.0736,-2.0482,-2.0227,-2.0043,-1.9909,-1.996,-1.9846,-1.9726,-1.9897,-1.9808,-1.9268,-1.9441,-1.9232,-1.8969,-1.8867,-1.8969,-1.8686,-1.8849,-1.8897,-1.8879,-1.8963,-1.8994,-1.8933,-1.9126,-1.9416,-1.9549,-1.9658,-1.9724,-1.9754,-1.9706,-1.9633,-1.938,-1.9289,-1.9187,-1.9138,-1.9132,-1.9108,-1.9136,-1.9136,-1.9136,-1.9136,-1.9136,-1.9136,-1.9136,-1.9136,-1.9136,-2.5022,-2.4292,-2.3331,-2.2866,-2.2866,-2.2866,-2.2866,-2.2866,-2.2866,-2.2866,-2.2866,-2.2866,-2.2866,-2.2866,-2.2866,-2.2866,-2.2786,-2.2251,-2.177,-2.1289,-2.1209,-2.1109,-2.1102,-2.1102,-2.1102,-2.1102,-2.1102,-2.1102,-2.1102,-2.1082,-2.0969,-2.0735,-2.0681,-2.0394,-1.9907,-1.9833,-1.9659,-1.9477,-1.9424,-1.9424,-1.9424,-1.9424,-1.9424,-1.9424,-1.9424,-1.943,-1.9424,-1.9424,-1.9424,-1.9424,-1.945,-1.9491,-1.9437,-1.9424,-1.9437,-1.9497,-1.9593,-1.9733,-1.9867,-2.0207,-2.0501,-2.0575,-2.0742,-2.0942,-2.0926,-2.0744,-2.0657,-2.0672,-2.0482,-2.0227,-1.9966,-1.9775,-1.9647,-1.9462,-1.938,-1.9355,-1.9261,-1.954,-1.9598,-1.9452,-1.9331,-1.9103,-1.8803,-1.8921,-1.8933,-1.8776,-1.8819,-1.8939,-1.8976,-1.9,-1.8976,-1.8957,-1.9289,-1.9567,-1.967,-1.9833,-2.0026,-2.008,-2.0062,-2.0032,-1.9778,-1.9525,-1.9458,-1.9326,-1.9187,-1.9145,-1.9142,-1.9136,-1.9136,-1.9136,-1.9136,-1.9136,-1.9136,-1.9136,-1.9136,-2.5472,-2.4631,-2.3406,-2.2866,-2.2866,-2.2866,-2.2866,-2.2866,-2.2866,-2.2866,-2.2866,-2.2866,-2.2866,-2.2866,-2.2866,-2.2866,-2.2726,-2.2251,-2.167,-2.1229,-2.1109,-2.1102,-2.1102,-2.1102,-2.1102,-2.1102,-2.1102,-2.1102,-2.1102,-2.1096,-2.1036,-2.0895,-2.0875,-2.0581,-2.0087,-1.9993,-1.9773,-1.9504,-1.9424,-1.9424,-1.9424,-1.9424,-1.9424,-1.9424,-1.9437,-1.9419,-1.9559,-1.9579,-1.9653,-1.9733,-1.976,-1.9626,-1.9406,-1.943,-1.9491,-1.9586,-1.9693,-1.9973,-2.0227,-2.0481,-2.0722,-2.0869,-2.1036,-2.0949,-2.0919,-2.0672,-2.0545,-2.0354,-2.0164,-1.9973,-1.9641,-1.9456,-1.9264,-1.9176,-1.8963,-1.8909,-1.8979,-1.9185,-1.9386,-1.9322,-1.9188,-1.8997,-1.8873,-1.8976,-1.8921,-1.8782,-1.8909,-1.9018,-1.9024,-1.9036,-1.9018,-1.9096,-1.9446,-1.9694,-1.9778,-1.9983,-2.0297,-2.0364,-2.0382,-2.0376,-2.0273,-2.0014,-1.9772,-1.9579,-1.9362,-1.9138,-1.9136,-1.9136,-1.909,-1.9136,-1.9136,-1.9136,-1.9136,-1.9136,-1.9136,-2.5749,-2.4769,-2.3454,-2.2866,-2.2866,-2.2866,-2.2866,-2.2866,-2.2866,-2.2866,-2.2866,-2.2866,-2.2866,-2.2866,-2.2866,-2.2839,-2.2585,-2.2245,-2.1663,-2.1162,-2.1102,-2.1102,-2.1102,-2.1102,-2.1102,-2.1102,-2.1102,-2.1102,-2.1102,-2.1102,-2.1082,-2.1089,-2.1096,-2.0742,-2.028,-2.014,-1.9927,-1.9446,-1.9424,-1.9424,-1.9424,-1.9424,-1.9424,-1.9424,-1.943,-1.9506,-1.9693,-1.9786,-1.99,-2.0207,-2.0173,-1.9967,-1.9659,-1.9512,-1.9586,-1.986,-1.9953,-2.0194,-2.0508,-2.0708,-2.0862,-2.1096,-2.1102,-2.0982,-2.0799,-2.0545,-2.0361,-2.017,-1.9979,-1.9781,-1.9514,-1.9328,-1.9136,-1.9106,-1.8867,-1.8764,-1.8782,-1.8945,-1.91,-1.9045,-1.9015,-1.8918,-1.8885,-1.8963,-1.8879,-1.8843,-1.8988,-1.9142,-1.9148,-1.9084,-1.9078,-1.9181,-1.9513,-1.9965,-2.0104,-2.0165,-2.0472,-2.0527,-2.065,-2.0587,-2.0569,-2.0297,-1.9983,-1.9742,-1.9525,-1.9332,-1.9199,-1.9211,-1.9193,-1.912,-1.9136,-1.9136,-1.9136,-1.9136,-1.9136,-2.5099,-2.4056,-2.3236,-2.2866,-2.2866,-2.2866,-2.2866,-2.2866,-2.2866,-2.2866,-2.2866,-2.2866,-2.2866,-2.2866,-2.2866,-2.2612,-2.2265,-2.2004,-2.167,-2.1189,-2.1102,-2.1102,-2.1102,-2.1102,-2.1102,-2.1102,-2.1102,-2.1102,-2.1102,-2.1102,-2.1102,-2.1102,-2.1102,-2.0802,-2.0414,-2.0207,-2.0007,-1.9566,-1.9524,-1.9517,-1.9477,-1.9437,-1.9424,-1.9424,-1.9424,-1.9539,-1.9753,-1.9826,-1.9933,-2.0201,-2.0234,-2.0127,-2.012,-2.0087,-2.012,-2.018,-2.0334,-2.0521,-2.0708,-2.0909,-2.1022,-2.1096,-2.1102,-2.1109,-2.0856,-2.0539,-2.0234,-1.9979,-1.959,-1.9264,-1.9206,-1.9136,-1.9136,-1.9118,-1.9012,-1.8951,-1.8969,-1.8963,-1.8951,-1.8831,-1.8801,-1.8843,-1.8927,-1.8994,-1.8969,-1.8976,-1.9084,-1.9151,-1.9227,-1.9163,-1.9163,-1.932,-1.9543,-2.0044,-2.0547,-2.0503,-2.0623,-2.0611,-2.0635,-2.0635,-2.0575,-2.0406,-2.0171,-2.0026,-1.9827,-1.9633,-1.9525,-1.9416,-1.9289,-1.9205,-1.9145,-1.9142,-1.9136,-1.9136,-1.9136,-2.4232,-2.3697,-2.2984,-2.2719,-2.2846,-2.2866,-2.2866,-2.2866,-2.2866,-2.2866,-2.2866,-2.2866,-2.2866,-2.2866,-2.2866,-2.2532,-2.2111,-2.1977,-2.165,-2.1216,-2.1102,-2.1102,-2.1102,-2.1102,-2.1102,-2.1102,-2.1102,-2.1102,-2.1102,-2.1102,-2.1102,-2.1102,-2.1102,-2.0882,-2.0568,-2.0468,-2.0214,-1.988,-1.9793,-1.972,-1.9579,-1.9524,-1.943,-1.9424,-1.9457,-1.9593,-1.9947,-2.0027,-2.0254,-2.0595,-2.0688,-2.0688,-2.0668,-2.0648,-2.0608,-2.0521,-2.0601,-2.0755,-2.0869,-2.1049,-2.1096,-2.1102,-2.1102,-2.0982,-2.0862,-2.0545,-2.0227,-1.9845,-1.9462,-1.9136,-1.9136,-1.9136,-1.9136,-1.9112,-1.8976,-1.8903,-1.8918,-1.877,-1.8734,-1.8728,-1.8861,-1.8957,-1.9012,-1.9118,-1.913,-1.912,-1.9193,-1.9229,-1.9306,-1.9332,-1.938,-1.9573,-1.9802,-2.0128,-2.0557,-2.0629,-2.0665,-2.0665,-2.0665,-2.0665,-2.0641,-2.0503,-2.0553,-2.0505,-2.0219,-1.9929,-1.9736,-1.9585,-1.944,-1.9301,-1.9223,-1.9157,-1.9096,-1.9136,-1.9132,-2.3487,-2.3381,-2.284,-2.2761,-2.3032,-2.3119,-2.3133,-2.3065,-2.3071,-2.2996,-2.2996,-2.2928,-2.2866,-2.2846,-2.2732,-2.2539,-2.1997,-2.1937,-2.157,-2.1209,-2.1102,-2.1102,-2.1102,-2.1102,-2.1102,-2.1102,-2.1102,-2.1102,-2.1102,-2.1102,-2.1102,-2.1102,-2.1102,-2.0962,-2.0715,-2.0621,-2.0488,-2.0327,-2.0167,-2.0087,-1.9806,-1.9533,-1.9424,-1.9424,-1.943,-1.9633,-2.0127,-2.0194,-2.0446,-2.0869,-2.1056,-2.1076,-2.1096,-2.1102,-2.0995,-2.0808,-2.0768,-2.0902,-2.1022,-2.1096,-2.1102,-2.1102,-2.1102,-2.0982,-2.0736,-2.0545,-2.0227,-1.9641,-1.9258,-1.9136,-1.9136,-1.9136,-1.9136,-1.9042,-1.8909,-1.877,-1.8782,-1.8758,-1.8764,-1.8825,-1.8969,-1.9036,-1.9066,-1.9136,-1.9136,-1.9151,-1.9229,-1.935,-1.9469,-1.9639,-1.9748,-1.9911,-2.0104,-2.0309,-2.0545,-2.0641,-2.0665,-2.0665,-2.0665,-2.0665,-2.0665,-2.0635,-2.0635,-2.0674,-2.0448,-2.0165,-1.9965,-1.9808,-1.9724,-1.9591,-1.938,-1.9314,-1.9392,-1.9398,-1.9422,-2.3448,-2.3178,-2.3325,-2.3384,-2.3514,-2.3812,-2.387,-2.3788,-2.3488,-2.3331,-2.3256,-2.2969,-2.2812,-2.2759,-2.2559,-2.2285,-2.1984,-2.173,-2.1463,-2.1142,-2.1102,-2.1102,-2.1102,-2.1102,-2.1102,-2.1102,-2.1102,-2.1102,-2.1102,-2.1102,-2.1102,-2.1102,-2.1082,-2.0982,-2.0768,-2.0748,-2.0521,-2.0307,-2.0247,-2.01,-1.9833,-1.9546,-1.9477,-1.945,-1.9459,-1.9693,-2.0201,-2.0253,-2.0561,-2.1015,-2.1102,-2.1102,-2.1102,-2.1102,-2.1102,-2.1069,-2.1062,-2.1069,-2.1096,-2.1102,-2.1102,-2.1102,-2.1102,-2.1046,-2.0862,-2.0425,-1.9915,-1.9264,-1.9136,-1.9102,-1.9108,-1.9078,-1.9072,-1.9066,-1.9018,-1.9045,-1.8969,-1.8879,-1.893,-1.8954,-1.9036,-1.9054,-1.9136,-1.9136,-1.9084,-1.9169,-1.9271,-1.9416,-1.9603,-1.9869,-2.0068,-2.0213,-2.0285,-2.0466,-2.0557,-2.0647,-2.0665,-2.0665,-2.0665,-2.0665,-2.0665,-2.0665,-2.0665,-2.0611,-2.049,-2.0418,-2.0255,-2.0122,-2.005,-1.9887,-1.9682,-1.9706,-1.9802,-1.9778,-1.9682,-2.4797,-2.4485,-2.4574,-2.4742,-2.4857,-2.5,-2.487,-2.4474,-2.3951,-2.3493,-2.3094,-2.2626,-2.2365,-2.2352,-2.2218,-2.2011,-2.1829,-2.1668,-2.139,-2.1162,-2.1102,-2.1102,-2.1102,-2.1102,-2.1102,-2.1102,-2.1102,-2.1102,-2.1102,-2.1102,-2.1102,-2.1102,-2.1102,-2.1076,-2.0902,-2.0922,-2.0862,-2.0675,-2.0441,-2.0187,-2.0007,-1.978,-1.9613,-1.9619,-1.9753,-2.0067,-2.0354,-2.0494,-2.0675,-2.1036,-2.1102,-2.1102,-2.1102,-2.1102,-2.1102,-2.1102,-2.1096,-2.1096,-2.1102,-2.1102,-2.1102,-2.1109,-2.1046,-2.0982,-2.0729,-2.024,-1.9875,-1.969,-1.9279,-1.9145,-1.9211,-1.9151,-1.9096,-1.9136,-1.9136,-1.9136,-1.9136,-1.9136,-1.91,-1.9124,-1.9136,-1.9136,-1.9136,-1.9136,-1.909,-1.9163,-1.9398,-1.9676,-1.9899,-2.0177,-2.0346,-2.0484,-2.0521,-2.0569,-2.0611,-2.0665,-2.0659,-2.0659,-2.0647,-2.0653,-2.0665,-2.0665,-2.0665,-2.0665,-2.0605,-2.0539,-2.0484,-2.0364,-2.0213,-2.0098,-1.9989,-2.0002,-2.0008,-1.9911,-1.9802,-2.6697,-2.6331,-2.5931,-2.581,-2.5977,-2.5929,-2.5543,-2.4963,-2.4158,-2.3492,-2.2962,-2.2334,-2.2004,-2.1957,-2.1924,-2.177,-2.1628,-2.1541,-2.1323,-2.1169,-2.1102,-2.1102,-2.1102,-2.1102,-2.1102,-2.1102,-2.1102,-2.1102,-2.1102,-2.1102,-2.1102,-2.1102,-2.1102,-2.1096,-2.1102,-2.1076,-2.1036,-2.0995,-2.0494,-2.0294,-2.0261,-1.9967,-1.988,-1.994,-2.0127,-2.0368,-2.0621,-2.0661,-2.0808,-2.1042,-2.1102,-2.1102,-2.1102,-2.1102,-2.1102,-2.1102,-2.1102,-2.1102,-2.1102,-2.1102,-2.1102,-2.1046,-2.0919,-2.0729,-2.0361,-1.9876,-1.9668,-1.976,-1.9514,-1.9384,-1.9356,-1.9229,-1.9108,-1.9136,-1.9136,-1.9136,-1.9136,-1.9136,-1.9136,-1.9136,-1.9136,-1.9136,-1.9136,-1.9136,-1.9102,-1.9163,-1.9452,-1.9863,-2.0165,-2.043,-2.0509,-2.0611,-2.0617,-2.0617,-2.0629,-2.0653,-2.0653,-2.0647,-2.0635,-2.0641,-2.0653,-2.0665,-2.0665,-2.0665,-2.0665,-2.0641,-2.0575,-2.0466,-2.037,-2.034,-2.0291,-2.0195,-2.014,-2.0068,-1.9983,-2.9103,-2.8621,-2.7081,-2.6354,-2.6161,-2.6041,-2.5656,-2.5016,-2.3955,-2.3291,-2.2734,-2.2279,-2.1904,-2.1884,-2.1748,-2.1628,-2.1588,-2.1263,-2.1162,-2.1122,-2.1102,-2.1102,-2.1102,-2.1102,-2.1102,-2.1102,-2.1102,-2.1102,-2.1102,-2.1102,-2.1102,-2.1102,-2.1102,-2.1102,-2.1102,-2.1102,-2.1102,-2.1002,-2.0568,-2.0428,-2.0401,-2.0201,-2.0,-2.0174,-2.0254,-2.0374,-2.0655,-2.0715,-2.0822,-2.1096,-2.1102,-2.1102,-2.1102,-2.1102,-2.1102,-2.1102,-2.1102,-2.1102,-2.1102,-2.1102,-2.1109,-2.1046,-2.0729,-2.0374,-1.9984,-1.9986,-1.9844,-1.9662,-1.9578,-1.956,-1.9434,-1.9265,-1.9163,-1.9197,-1.9197,-1.9136,-1.9136,-1.9136,-1.9136,-1.9136,-1.9136,-1.9136,-1.9136,-1.9136,-1.9136,-1.9126,-1.9543,-1.9959,-2.0334,-2.0587,-2.0605,-2.0653,-2.0653,-2.0647,-2.0629,-2.0623,-2.0605,-2.0599,-2.0593,-2.0617,-2.0641,-2.0653,-2.0665,-2.0665,-2.0665,-2.0665,-2.0665,-2.0575,-2.0539,-2.0611,-2.0581,-2.0442,-2.0412,-2.04,-2.0309,-2.9331,-2.8943,-2.83,-2.7739,-2.727,-2.6775,-2.6029,-2.4976,-2.378,-2.2702,-2.1842,-2.1571,-2.145,-2.1416,-2.1363,-2.1276,-2.1269,-2.1182,-2.1116,-2.1102,-2.1102,-2.1102,-2.1102,-2.1102,-2.1102,-2.1102,-2.1102,-2.1102,-2.1102,-2.1102,-2.1102,-2.1102,-2.1102,-2.1102,-2.1102,-2.1102,-2.1102,-2.1009,-2.0742,-2.0588,-2.0575,-2.0521,-2.0394,-2.0481,-2.0728,-2.0802,-2.0935,-2.0942,-2.1015,-2.1069,-2.1096,-2.1102,-2.1102,-2.1102,-2.1102,-2.1102,-2.1102,-2.1102,-2.1039,-2.1039,-2.1046,-2.0729,-2.0354,-1.9966,-1.9776,-1.976,-1.988,-1.9851,-1.9802,-1.976,-1.9905,-1.9597,-1.9326,-1.9342,-1.9275,-1.9197,-1.9136,-1.9136,-1.9136,-1.9136,-1.9136,-1.9136,-1.9136,-1.9136,-1.9136,-1.9114,-1.9591,-2.0044,-2.0418,-2.0665,-2.0665,-2.0665,-2.0665,-2.0665,-2.0647,-2.0605,-2.0551,-2.0557,-2.0557,-2.0587,-2.0623,-2.0653,-2.0665,-2.0665,-2.0665,-2.0665,-2.0665,-2.0665,-2.0665,-2.0665,-2.0665,-2.0629,-2.0647,-2.0665,-2.0545,-2.94,-2.8984,-2.8984,-2.8558,-2.7771,-2.7021,-2.5989,-2.4702,-2.3355,-2.2223,-2.1102,-2.1102,-2.1102,-2.1102,-2.1109,-2.1116,-2.1136,-2.1109,-2.1109,-2.1102,-2.1102,-2.1102,-2.1102,-2.1102,-2.1102,-2.1102,-2.1102,-2.1102,-2.1102,-2.1102,-2.1102,-2.1102,-2.1102,-2.1102,-2.1102,-2.1102,-2.1102,-2.1042,-2.0848,-2.0755,-2.0782,-2.0702,-2.0735,-2.0782,-2.0975,-2.1036,-2.1062,-2.1062,-2.1069,-2.1096,-2.1102,-2.1102,-2.1102,-2.1102,-2.1102,-2.1102,-2.1102,-2.1046,-2.0982,-2.0919,-2.0729,-2.0278,-1.996,-1.979,-1.9723,-1.968,-1.9881,-2.0208,-2.0092,-2.0086,-2.0261,-1.9857,-1.9519,-1.9499,-1.9403,-1.9312,-1.9179,-1.9136,-1.9136,-1.9136,-1.912,-1.9229,-1.936,-1.9403,-1.9422,-1.9428,-1.9645,-2.0098,-2.049,-2.0665,-2.0665,-2.0665,-2.0665,-2.0665,-2.0665,-2.0551,-2.0466,-2.0563,-2.0569,-2.0575,-2.0599,-2.0641,-2.0665,-2.0665,-2.0665,-2.0665,-2.0665,-2.0665,-2.0665,-2.0665,-2.0665,-2.0665,-2.0665,-2.0659,-2.0611,-2.9518,-2.9044,-2.8984,-2.843,-2.7452,-2.6424,-2.5264,-2.4038,-2.2731,-2.1727,-2.1109,-2.1102,-2.1102,-2.1102,-2.1102,-2.1102,-2.1102,-2.1102,-2.1102,-2.1102,-2.1102,-2.1102,-2.1102,-2.1102,-2.1102,-2.1102,-2.1102,-2.1102,-2.1102,-2.1102,-2.1102,-2.1102,-2.1102,-2.1102,-2.1102,-2.1102,-2.1102,-2.1062,-2.0822,-2.0889,-2.0949,-2.0835,-2.0882,-2.0995,-2.1076,-2.1102,-2.1102,-2.1102,-2.1102,-2.1102,-2.1102,-2.1102,-2.1102,-2.1102,-2.1102,-2.1102,-2.1046,-2.0919,-2.0609,-2.0609,-2.0304,-1.9889,-1.9677,-1.9684,-1.9632,-1.9796,-1.9989,-2.0321,-2.0297,-2.0273,-2.0207,-2.0044,-1.9863,-1.9705,-1.9621,-1.9499,-1.9384,-1.9265,-1.9301,-1.9332,-1.9392,-1.9476,-1.9561,-1.9717,-1.9778,-1.9839,-1.9869,-2.014,-2.0551,-2.0665,-2.0665,-2.0665,-2.0665,-2.0665,-2.0629,-2.0454,-2.04,-2.0509,-2.0587,-2.0599,-2.0611,-2.0653,-2.0665,-2.0665,-2.0665,-2.0665,-2.0665,-2.0665,-2.0665,-2.0665,-2.0665,-2.0665,-2.0665,-2.0659,-2.0617,-2.9509,-2.8984,-2.8984,-2.8259,-2.7108,-2.5867,-2.4579,-2.3355,-2.2104,-2.1292,-2.1109,-2.1102,-2.1102,-2.1102,-2.1102,-2.1102,-2.1102,-2.1102,-2.1102,-2.1102,-2.1102,-2.1102,-2.1102,-2.1102,-2.1102,-2.1102,-2.1102,-2.1102,-2.1102,-2.1102,-2.1102,-2.1102,-2.1102,-2.1102,-2.1102,-2.1102,-2.1102,-2.1096,-2.1015,-2.1015,-2.1082,-2.1015,-2.0995,-2.1102,-2.1102,-2.1102,-2.1102,-2.1102,-2.1102,-2.1102,-2.1102,-2.1102,-2.1102,-2.1102,-2.1109,-2.1046,-2.0919,-2.0469,-2.0094,-1.9915,-1.9939,-1.9776,-1.9662,-1.9703,-2.0002,-2.0062,-2.0279,-2.0442,-2.0496,-2.0503,-2.0565,-2.0291,-2.0153,-2.0093,-1.9996,-1.9778,-1.9676,-1.967,-1.9682,-1.9694,-1.9742,-1.9766,-1.9827,-1.9984,-2.0044,-2.0122,-2.0146,-2.0267,-2.0611,-2.0659,-2.0665,-2.0665,-2.0665,-2.0665,-2.0617,-2.0509,-2.0472,-2.0581,-2.0629,-2.0641,-2.0659,-2.0665,-2.0665,-2.0665,-2.0665,-2.0665,-2.0665,-2.0665,-2.0665,-2.0665,-2.0665,-2.0665,-2.0665,-2.0665,-2.0653,-2.9437,-2.9044,-2.8984,-2.8199,-2.6865,-2.5554,-2.407,-2.248,-2.1481,-2.1102,-2.1102,-2.1102,-2.1102,-2.1102,-2.1102,-2.1102,-2.1102,-2.1102,-2.1102,-2.1102,-2.1102,-2.1102,-2.1102,-2.1102,-2.1102,-2.1102,-2.1102,-2.1102,-2.1102,-2.1102,-2.1102,-2.1102,-2.1102,-2.1102,-2.1102,-2.1102,-2.1102,-2.1096,-2.1069,-2.1076,-2.1102,-2.1082,-2.1089,-2.1102,-2.1102,-2.1102,-2.1102,-2.1102,-2.1102,-2.1102,-2.1102,-2.1102,-2.1102,-2.1109,-2.1052,-2.0919,-2.0475,-2.0024,-1.9705,-1.945,-1.9622,-1.9907,-1.9668,-1.9808,-2.014,-2.0237,-2.04,-2.0557,-2.0653,-2.0665,-2.0686,-2.0418,-2.0364,-2.0291,-2.0177,-2.0026,-1.9899,-1.9881,-1.9881,-1.9917,-2.0014,-2.0044,-2.0116,-2.0195,-2.0297,-2.0358,-2.0412,-2.0539,-2.0635,-2.0653,-2.0665,-2.0665,-2.0665,-2.0665,-2.0665,-2.0635,-2.0623,-2.0659,-2.0653,-2.0629,-2.0665,-2.0665,-2.0665,-2.0665,-2.0665,-2.0665,-2.0665,-2.0665,-2.0665,-2.0665,-2.0665,-2.0665,-2.0665,-2.0665,-2.0665,-2.9203,-2.9016,-2.8984,-2.8259,-2.6926,-2.5554,-2.3519,-2.1235,-2.1109,-2.1102,-2.1102,-2.1102,-2.1102,-2.1102,-2.1102,-2.1102,-2.1102,-2.1102,-2.1102,-2.1102,-2.1102,-2.1102,-2.1102,-2.1102,-2.1102,-2.1102,-2.1102,-2.1102,-2.1102,-2.1102,-2.1102,-2.1102,-2.1102,-2.1102,-2.1102,-2.1102,-2.1102,-2.1102,-2.1102,-2.1102,-2.1102,-2.1102,-2.1102,-2.1102,-2.1102,-2.1102,-2.1102,-2.1102,-2.1102,-2.1102,-2.1102,-2.1102,-2.1109,-2.1109,-2.0862,-2.0475,-1.9966,-1.9711,-1.9526,-1.927,-1.9498,-1.9838,-1.9742,-1.9863,-2.0134,-2.037,-2.049,-2.0593,-2.0665,-2.0665,-2.0635,-2.0581,-2.0527,-2.0436,-2.034,-2.0195,-2.0038,-2.0002,-2.0008,-2.008,-2.0219,-2.0315,-2.0454,-2.0545,-2.046,-2.0515,-2.0551,-2.0575,-2.0653,-2.0653,-2.0665,-2.0665,-2.0665,-2.0665,-2.0665,-2.0665,-2.0665,-2.0665,-2.0587,-2.0563,-2.0611,-2.0647,-2.0617,-2.0611,-2.0653,-2.0665,-2.0665,-2.0665,-2.0665,-2.0665,-2.0665,-2.0665,-2.0665,-2.0665,-2.0665,-2.9203,-2.9035,-2.8984,-2.8379,-2.7159,-2.5202,-2.3098,-2.1235,-2.1102,-2.1102,-2.1102,-2.1102,-2.1102,-2.1102,-2.1102,-2.1102,-2.1102,-2.1102,-2.1102,-2.1102,-2.1102,-2.1102,-2.1102,-2.1102,-2.1102,-2.1102,-2.1102,-2.1102,-2.1102,-2.1102,-2.1102,-2.1102,-2.1102,-2.1102,-2.1102,-2.1102,-2.1102,-2.1102,-2.1102,-2.1102,-2.1102,-2.1102,-2.1102,-2.1102,-2.1102,-2.1102,-2.1102,-2.1102,-2.1102,-2.1102,-2.1102,-2.1102,-2.1109,-2.0856,-2.0539,-1.996,-1.9641,-1.952,-1.9288,-1.9312,-1.9513,-1.9851,-1.9941,-2.0219,-2.0448,-2.0545,-2.0644,-2.0629,-2.0665,-2.0665,-2.0665,-2.0635,-2.0611,-2.0551,-2.0484,-2.0424,-2.0297,-2.0297,-2.0303,-2.0327,-2.0466,-2.049,-2.0653,-2.0653,-2.0581,-2.0641,-2.0665,-2.0665,-2.0665,-2.0665,-2.0665,-2.0665,-2.0665,-2.0665,-2.0665,-2.0665,-2.0665,-2.0653,-2.0557,-2.0509,-2.0587,-2.0605,-2.0557,-2.0575,-2.0647,-2.0665,-2.0665,-2.0665,-2.0665,-2.0665,-2.0665,-2.0665,-2.0665,-2.0665,-2.0665,-2.8707,-2.8538,-2.8507,-2.7984,-2.6936,-2.5513,-2.3961,-2.2654,-2.1859,-2.1418,-2.1299,-2.1292,-2.1235,-2.1102,-2.1102,-2.1102,-2.1102,-2.1102,-2.1102,-2.1102,-2.1102,-2.1102,-2.1102,-2.1102,-2.1102,-2.1102,-2.1102,-2.1102,-2.1102,-2.1102,-2.1102,-2.1102,-2.1102,-2.1102,-2.1102,-2.1102,-2.1102,-2.1102,-2.1102,-2.1102,-2.1102,-2.1102,-2.1102,-2.1102,-2.1102,-2.1102,-2.1102,-2.1102,-2.1102,-2.1102,-2.1102,-2.0982,-2.0856,-2.0475,-2.0151,-1.9641,-1.945,-1.9408,-1.9306,-1.9427,-1.9664,-1.9959,-2.0189,-2.0376,-2.0539,-2.0635,-2.0647,-2.0665,-2.0665,-2.0665,-2.0665,-2.0665,-2.0665,-2.0659,-2.0659,-2.0659,-2.0647,-2.0647,-2.0641,-2.0635,-2.0647,-2.0641,-2.0665,-2.0665,-2.0665,-2.0665,-2.0665,-2.0665,-2.0665,-2.0665,-2.0665,-2.0665,-2.0665,-2.0665,-2.0665,-2.0665,-2.0665,-2.0611,-2.0454,-2.0442,-2.0545,-2.0551,-2.049,-2.0557,-2.0659,-2.0665,-2.0665,-2.0665,-2.0665,-2.0665,-2.0665,-2.0665,-2.0665,-2.0665,-2.0665,-2.7958,-2.7858,-2.7801,-2.7374,-2.6473,-2.6136,-2.5623,-2.4871,-2.3216,-2.2104,-2.1853,-2.1677,-2.1425,-2.1166,-2.1102,-2.1102,-2.1102,-2.1102,-2.1102,-2.1102,-2.1102,-2.1102,-2.1102,-2.1102,-2.1102,-2.1102,-2.1102,-2.1102,-2.1102,-2.1102,-2.1102,-2.1102,-2.1102,-2.1102,-2.1102,-2.1102,-2.1102,-2.1102,-2.1102,-2.1102,-2.1102,-2.1102,-2.1102,-2.1102,-2.1102,-2.1102,-2.1102,-2.1102,-2.1102,-2.1102,-2.0982,-2.0862,-2.0412,-2.003,-1.9705,-1.9514,-1.9258,-1.934,-1.9427,-1.9507,-1.9802,-2.008,-2.0309,-2.0454,-2.0599,-2.0665,-2.0665,-2.0665,-2.0665,-2.0665,-2.0665,-2.0665,-2.0665,-2.0665,-2.0665,-2.0665,-2.0665,-2.0665,-2.0665,-2.0665,-2.0665,-2.0665,-2.0665,-2.0665,-2.0665,-2.0665,-2.0665,-2.0665,-2.0665,-2.0665,-2.0665,-2.0665,-2.0665,-2.0665,-2.0665,-2.0665,-2.0665,-2.0581,-2.0412,-2.0442,-2.0587,-2.0533,-2.0487,-2.0539,-2.0665,-2.0665,-2.0665,-2.0665,-2.0665,-2.0665,-2.0665,-2.0665,-2.0665,-2.0665,-2.0665,-2.807,-2.8086,-2.7931,-2.7472,-2.6804,-2.6739,-2.6415,-2.5753,-2.4826,-2.3775,-2.2772,-2.223,-2.1607,-2.1172,-2.1102,-2.1102,-2.1102,-2.1102,-2.1102,-2.1102,-2.1102,-2.1102,-2.1102,-2.1102,-2.1102,-2.1102,-2.1102,-2.1102,-2.1102,-2.1102,-2.1102,-2.1102,-2.1102,-2.1102,-2.1102,-2.1102,-2.1102,-2.1102,-2.1102,-2.1102,-2.1102,-2.1102,-2.1102,-2.1102,-2.1102,-2.1102,-2.1102,-2.1102,-2.1102,-2.1102,-2.0862,-2.0412,-1.9833,-1.9705,-1.9456,-1.9264,-1.9142,-1.93,-1.947,-1.967,-1.9941,-2.0219,-2.0436,-2.0557,-2.0647,-2.0659,-2.0665,-2.0665,-2.0665,-2.0665,-2.0665,-2.0665,-2.0665,-2.0665,-2.0665,-2.0665,-2.0665,-2.0665,-2.0665,-2.0665,-2.0665,-2.0665,-2.0665,-2.0665,-2.0665,-2.0665,-2.0665,-2.0665,-2.0665,-2.0665,-2.0665,-2.0665,-2.0665,-2.0665,-2.0665,-2.0665,-2.0665,-2.0581,-2.043,-2.0503,-2.0617,-2.0587,-2.0533,-2.0593,-2.0665,-2.0665,-2.0665,-2.0665,-2.0665,-2.0665,-2.0665,-2.0665,-2.0665,-2.0665,-2.0665,-2.785,-2.767,-2.7616,-2.738,-2.7124,-2.7446,-2.7447,-2.7004,-2.6296,-2.5186,-2.3876,-2.2849,-2.1859,-2.1166,-2.1102,-2.1102,-2.1102,-2.1102,-2.1102,-2.1102,-2.1102,-2.1102,-2.1102,-2.1102,-2.1102,-2.1102,-2.1102,-2.1102,-2.1102,-2.1102,-2.1102,-2.1102,-2.1102,-2.1102,-2.1102,-2.1102,-2.1102,-2.1102,-2.1102,-2.1102,-2.1102,-2.1102,-2.1102,-2.1102,-2.1102,-2.1102,-2.1102,-2.1039,-2.0982,-2.0786,-2.0412,-2.0094,-1.9641,-1.9456,-1.9264,-1.92,-1.9179,-1.9241,-1.9561,-1.9827,-2.0068,-2.0364,-2.0539,-2.0653,-2.0653,-2.0665,-2.0665,-2.0665,-2.0665,-2.0665,-2.0665,-2.0665,-2.0665,-2.0665,-2.0665,-2.0665,-2.0665,-2.0665,-2.0665,-2.0665,-2.0665,-2.0665,-2.0665,-2.0665,-2.0665,-2.0665,-2.0665,-2.0665,-2.0665,-2.0665,-2.0665,-2.0665,-2.0665,-2.0665,-2.0665,-2.0665,-2.0665,-2.0563,-2.0454,-2.0436,-2.0484,-2.0599,-2.0665,-2.0665,-2.0665,-2.0665,-2.0665,-2.0665,-2.0665,-2.0665,-2.0665,-2.0665,-2.0665,-2.0665,-2.0665,-2.7549,-2.7054,-2.7188,-2.7158,-2.7267,-2.7958,-2.8147,-2.7957,-2.7151,-2.5998,-2.4633,-2.3161,-2.2041,-2.1355,-2.1102,-2.1102,-2.1102,-2.1102,-2.1102,-2.1102,-2.1102,-2.1102,-2.1102,-2.1102,-2.1102,-2.1102,-2.1102,-2.1102,-2.1102,-2.1102,-2.1102,-2.1102,-2.1102,-2.1102,-2.1102,-2.1102,-2.1102,-2.1102,-2.1102,-2.1102,-2.1102,-2.1102,-2.1102,-2.1102,-2.1102,-2.1102,-2.1102,-2.1046,-2.0926,-2.0539,-2.0087,-1.9705,-1.945,-1.9264,-1.92,-1.9142,-1.9227,-1.9416,-1.9742,-1.9929,-2.0243,-2.0515,-2.0623,-2.0665,-2.0665,-2.0665,-2.0665,-2.0665,-2.0665,-2.0665,-2.0665,-2.0665,-2.0665,-2.0665,-2.0665,-2.0665,-2.0665,-2.0665,-2.0665,-2.0665,-2.0665,-2.0665,-2.0665,-2.0665,-2.0665,-2.0665,-2.0665,-2.0665,-2.0665,-2.0665,-2.0665,-2.0665,-2.0665,-2.0665,-2.0665,-2.0665,-2.0665,-2.0629,-2.0527,-2.0406,-2.0376,-2.0557,-2.0665,-2.0665,-2.0665,-2.0665,-2.0665,-2.0665,-2.0665,-2.0665,-2.0665,-2.0665,-2.0665,-2.0665,-2.0665,-2.752,-2.6991,-2.7184,-2.7134,-2.6955,-2.7432,-2.7545,-2.7125,-2.6261,-2.5256,-2.4201,-2.3161,-2.2048,-2.1102,-2.1102,-2.1102,-2.1102,-2.1102,-2.1102,-2.1102,-2.1102,-2.1102,-2.1102,-2.1102,-2.1102,-2.1102,-2.1102,-2.1102,-2.1102,-2.1102,-2.1102,-2.1102,-2.1102,-2.1102,-2.1102,-2.1102,-2.1102,-2.1102,-2.1102,-2.1102,-2.1102,-2.1102,-2.1102,-2.1102,-2.1102,-2.1102,-2.1102,-2.1102,-2.0919,-2.0539,-1.9966,-1.9526,-1.9365,-1.9255,-1.9209,-1.9241,-1.9384,-1.9573,-1.9863,-2.0062,-2.0364,-2.0593,-2.0665,-2.0665,-2.0665,-2.0665,-2.0665,-2.0665,-2.0665,-2.0665,-2.0665,-2.0665,-2.0665,-2.0665,-2.0665,-2.0665,-2.0665,-2.0665,-2.0665,-2.0665,-2.0665,-2.0665,-2.0665,-2.0665,-2.0665,-2.0665,-2.0665,-2.0665,-2.0665,-2.0665,-2.0665,-2.0665,-2.0665,-2.0665,-2.0665,-2.0665,-2.0665,-2.0641,-2.0623,-2.0539,-2.0521,-2.0599,-2.0665,-2.0665,-2.0665,-2.0665,-2.0665,-2.0665,-2.0665,-2.0665,-2.0665,-2.0665,-2.0665,-2.0665,-2.0665]},{"header":{"parameterUnit":"m.s-1","parameterCategory":1,"la1":31.0,"la2":29.5877,"lo1":-88.7671,"lo2":-86.6584,"dy":0.0162,"dx":0.0185,"nx":115,"ny":88,"refTime":"2026-03-18T12:00:00:Z","depth":0,"parameterNumber":3,"parameterNumberName":"V-component_of_WINDS"},"data":[0.0,0.0,0.0,0.0,0.0,0.0,0.0,0.0,0.0,0.0,0.0,0.0,0.0,0.0,0.0,0.0,0.0,0.0,0.0,0.0,0.0,0.0,0.0,0.0,0.0,0.0,0.0,0.0,0.0,0.0,0.0,0.0,0.0,0.0,0.0,0.0,0.0,0.0,0.0,0.0,0.0,0.0,0.0,0.0,0.0,0.0,0.0,0.0,0.0,0.0,0.0,0.0,0.0,0.0,0.0,0.0,0.0,0.0,0.0,0.0,0.0,0.0,0.0,0.0,0.0,0.0,0.0,0.0,0.0,0.0,0.0,0.0,0.0,0.0,0.0,0.0,0.0,0.0,0.0,0.0,0.0,0.0,0.0,0.0,0.0,0.0,0.0,0.0,0.0,0.0,0.0,0.0,0.0,0.0,0.0,0.0,0.0,0.0,0.0,0.0,0.0,0.0,0.0,0.0,0.0,0.0,0.0,0.0,0.0,0.0,0.0,0.0,0.0,0.0,0.0,0.0,0.0,0.0,0.0,0.0,0.0,0.0,0.0,0.0,0.0,0.0,0.0,0.0,0.0,0.0,0.0,0.0,0.0,0.0,0.0,0.0,0.0,0.0,0.0,0.0,0.0,0.0,0.0,0.0,0.0,0.0,0.0,0.0,0.0,0.0,0.0,0.0,0.0,0.0,0.0,0.0,0.0,0.0,0.0,0.0,0.0,0.0,0.0,0.0,0.0,0.0,0.0,0.0,0.0,0.0,0.0,0.0,0.0,0.0,0.0,0.0,0.0,0.0,0.0,0.0,0.0,0.0,0.0,0.0,0.0,0.0,0.0,0.0,0.0,0.0,0.0,0.0,0.0,0.0,0.0,0.0,0.0,0.0,0.0,0.0,0.0,0.0,0.0,0.0,0.0,0.0,0.0,0.0,0.0,0.0,0.0,0.0,0.0,0.0,0.0,0.0,0.0,0.0,0.0,0.0,0.0,0.0,0.0,0.0,0.0,0.0,0.0,0.0,0.0,0.0,0.0,0.0,0.0,0.0,0.0,0.0,0.0,0.0,0.0,0.0,0.0,0.0,0.0,0.0,0.0,0.0,0.0,0.0,0.0,0.0,0.0,0.0,0.0,0.0,0.0,0.0,0.0,0.0,0.0,0.0,0.0,0.0,0.0,0.0,0.0,0.0,0.0,0.0,0.0,0.0,0.0,0.0,0.0,0.0,0.0,0.0,0.0,0.0,0.0,0.0,0.0,0.0,0.0,0.0,0.0,0.0,0.0,0.0,0.0,0.0,0.0,0.0,0.0,0.0,0.0,0.0,0.0,0.0,0.0,0.0,0.0,0.0,0.0,0.0,0.0,0.0,0.0,0.0,0.0,0.0,0.0,0.0,0.0,0.0,0.0,0.0,0.0,0.0,0.0,0.0,0.0,0.0,0.0,0.0,0.0,0.0,0.0,0.0,0.0,0.0,0.0,0.0,0.0,0.0,0.0,0.0,0.0,0.0,0.0,0.0,0.0,0.0,0.0,0.0,0.0,0.0,0.0,0.0,0.0,0.0,0.0,0.0,0.0,0.0,0.0,0.0,0.0,0.0,0.0,0.0,0.0,0.0,0.0,0.0,0.0,0.0,0.0,0.0,0.0,0.0,0.0,0.0,0.0,0.0,0.0,0.0,0.0,0.0,0.0,0.0,0.0,0.0,0.0,0.0,0.0,0.0,0.0,0.0,0.0,0.0,0.0,0.0,0.0,0.0,0.0,0.0,0.0,0.0,0.0,0.0,0.0,0.0,0.0,0.0,0.0,0.0,0.0,0.0,0.0,0.0,0.0,0.0,0.0,0.0,0.0,0.0,0.0,0.0,0.0,0.0,0.0,0.0,0.0,0.0,0.0,0.0,0.0,0.0,0.0,0.0,0.0,0.0,0.0,0.0,0.0,0.0,0.0,0.0,0.0,0.0,0.0,0.0,0.0,0.0,0.0,0.0,0.0,0.0,0.0,0.0,0.0,0.0,0.0,0.0,0.0,0.0,0.0,0.0,0.0,0.0,0.0,0.0,0.0,0.0,0.0,0.0,0.0,0.0,0.0,0.0,0.0,0.0,0.0,0.0,0.0,0.0,0.0,0.0,0.0,0.0,0.0,0.0,0.0,0.0,0.0,0.0,0.0,0.0,0.0,0.0,0.0,0.0,0.0,0.0,0.0,0.0,0.0,0.0,0.0,0.0,0.0,0.0,0.0,0.0,0.0,0.0,0.0,0.0,0.0,0.0,0.0,0.0,0.0,0.0,0.0,0.0,0.0,0.0,0.0,0.0,0.0,0.0,0.0,0.0,0.0,0.0,0.0,0.0,0.0,0.0,0.0,0.0,0.0,0.0,0.0,0.0,0.0,0.0,0.0,0.0,0.0,0.0,0.0,0.0,0.0,0.0,0.0,0.0,0.0,0.0,0.0,0.0,0.0,0.0,0.0,0.0,0.0,0.0,0.0,0.0,0.0,0.0,0.0,0.0,0.0,0.0,0.0,0.0,0.0,0.0,0.0,0.0,0.0,0.0,0.0,0.0,0.0,0.0,0.0,0.0,0.0,0.0,0.0,0.0,0.0,0.0,0.0,0.0,0.0,0.0,0.0,0.0,0.0,0.0,0.0,0.0,0.0,0.0,0.0,0.0,0.0,0.0,0.0,0.0,0.0,0.0,0.0,0.0,0.0,0.0,0.0,0.0,0.0,0.0,0.0,0.0,0.0,0.0,0.0,0.0,0.0,0.0,0.0,0.0,0.0,0.0,0.0,0.0,0.0,0.0,0.0,0.0,0.0,0.0,0.0,0.0,0.0,0.0,0.0,0.0,0.0,0.0,0.0,0.0,0.0,0.0,0.0,0.0,0.0,0.0,0.0,0.0,0.0,0.0,0.0,0.0,0.0,0.0,0.0,0.0,0.0,0.0,0.0,0.0,0.0,0.0,0.0,0.0,0.0,0.0,0.0,0.0,0.0,0.0,0.0,0.0,0.0,0.0,0.0,0.0,0.0,0.0,0.0,0.0,0.0,0.0,0.0,0.0,0.0,0.0,0.0,0.0,0.0,0.0,0.0,0.0,0.0,0.0,0.0,0.0,0.0,0.0,0.0,0.0,0.0,0.0,0.0,0.0,0.0,0.0,0.0,0.0,0.0,0.0,0.0,0.0,0.0,0.0,0.0,0.0,0.0,0.0,0.0,0.0,0.0,0.0,0.0,0.0,0.0,0.0,0.0,0.0,0.0,0.0,0.0,0.0,0.0,0.0,0.0,0.0,0.0,0.0,0.0,0.0,0.0,0.0,0.0,0.0,0.0,0.0,0.0,0.0,0.0,0.0,0.0,0.0,0.0,0.0,0.0,0.0,0.0,0.0,0.0,0.0,0.0,0.0,0.0,0.0,0.0,0.0,0.0,0.0,0.0,0.0,0.0,0.0,0.0,0.0,0.0,0.0,0.0,0.0,0.0,0.0,0.0,0.0,0.0,0.0,0.0,0.0,0.0,0.0,0.0,0.0,0.0,0.0,0.0,0.0,0.0,0.0,0.0,0.0,0.0,0.0,0.0,0.0,0.0,0.0,0.0,0.0,0.0,0.0,0.0,0.0,0.0,0.0,0.0,0.0,0.0,0.0,0.0,0.0,0.0,0.0,0.0,0.0,0.0,0.0,0.0,0.0,0.0,0.0,0.0,0.0,0.0,0.0,0.0,0.0,0.0,0.0,0.0,0.0,0.0,0.0,0.0,0.0,0.0,0.0,0.0,0.0,0.0,0.0,0.0,0.0,0.0,0.0,0.0,0.0,0.0,0.0,0.0,0.0,0.0,0.0,0.0,0.0,0.0,0.0,0.0,0.0,0.0,0.0,0.0,0.0,0.0,0.0,0.0,0.0,0.0,0.0,0.0,0.0,0.0,0.0,0.0,0.0,0.0,0.0,0.0,0.0,0.0,0.0,0.0,0.0,0.0,0.0,0.0,0.0,0.0,0.0,0.0,0.0,0.0,0.0,0.0,0.0,0.0,0.0,0.0,0.0,0.0,0.0,0.0,0.0,0.0,0.0,0.0,0.0,0.0,0.0,0.0,0.0,0.0,0.0,0.0,0.0,0.0,0.0,0.0,0.0,0.0,0.0,0.0,0.0,0.0,0.0,0.0,0.0,0.0,0.0,0.0,0.0,0.0,0.0,0.0,0.0,0.0,0.0,0.0,0.0,0.0,0.0,0.0,0.0,0.0,0.0,0.0,0.0,0.0,0.0,0.0,0.0,0.0,0.0,0.0,0.0,-1.3881,0.0,0.0,0.0,0.0,0.0,0.0,0.0,0.0,0.0,0.0,0.0,0.0,0.0,0.0,0.0,0.0,0.0,0.0,0.0,0.0,0.0,0.0,0.0,0.0,0.0,0.0,0.0,0.0,0.0,0.0,0.0,0.0,0.0,0.0,0.0,0.0,0.0,0.0,0.0,0.0,0.0,0.0,0.0,0.0,0.0,0.0,0.0,0.0,0.0,0.0,0.0,0.0,0.0,0.0,0.0,0.0,0.0,0.0,0.0,0.0,0.0,0.0,0.0,0.0,0.0,0.0,0.0,0.0,0.0,0.0,0.0,0.0,0.0,0.0,0.0,0.0,0.0,0.0,0.0,0.0,0.0,0.0,0.0,0.0,0.0,0.0,0.0,0.0,0.0,0.0,0.0,0.0,0.0,0.0,0.0,0.0,0.0,0.0,0.0,0.0,0.0,0.0,0.0,0.0,0.0,0.0,0.0,0.0,0.0,0.0,-1.5497,-1.5311,-1.4757,-1.4253,-1.391,0.0,0.0,0.0,0.0,0.0,0.0,0.0,0.0,0.0,0.0,0.0,0.0,0.0,0.0,0.0,0.0,0.0,0.0,0.0,0.0,0.0,0.0,0.0,0.0,0.0,0.0,0.0,0.0,0.0,0.0,0.0,0.0,0.0,0.0,0.0,0.0,0.0,0.0,0.0,0.0,0.0,0.0,0.0,0.0,0.0,0.0,0.0,0.0,0.0,0.0,0.0,0.0,0.0,0.0,0.0,0.0,0.0,0.0,0.0,0.0,0.0,0.0,0.0,0.0,0.0,0.0,0.0,0.0,0.0,0.0,0.0,0.0,0.0,0.0,0.0,0.0,0.0,0.0,0.0,0.0,0.0,0.0,0.0,0.0,0.0,0.0,0.0,0.0,0.0,0.0,0.0,0.0,0.0,0.0,0.0,0.0,0.0,0.0,0.0,0.0,0.0,0.0,0.0,0.0,0.0,0.0,0.0,0.0,0.0,0.0,0.0,0.0,-1.4792,-1.4474,-1.402,0.0,0.0,0.0,0.0,0.0,0.0,0.0,0.0,0.0,0.0,0.0,0.0,0.0,0.0,0.0,0.0,0.0,0.0,0.0,0.0,0.0,0.0,0.0,0.0,0.0,0.0,0.0,0.0,0.0,0.0,0.0,0.0,0.0,0.0,0.0,0.0,0.0,0.0,0.0,0.0,0.0,0.0,0.0,0.0,0.0,0.0,0.0,0.0,0.0,0.0,0.0,0.0,0.0,0.0,0.0,0.0,0.0,0.0,0.0,0.0,0.0,0.0,0.0,0.0,0.0,0.0,0.0,0.0,0.0,0.0,0.0,0.0,0.0,0.0,0.0,0.0,0.0,0.0,0.0,0.0,0.0,0.0,0.0,0.0,0.0,0.0,0.0,0.0,0.0,0.0,0.0,0.0,0.0,0.0,0.0,0.0,0.0,0.0,0.0,0.0,0.0,0.0,0.0,0.0,0.0,0.0,0.0,0.0,0.0,0.0,-1.5414,-1.593,-1.537,0.0,-1.5062,0.0,0.0,0.0,0.0,0.0,0.0,0.0,0.0,0.0,0.0,0.0,0.0,0.0,0.0,0.0,0.0,0.0,0.0,0.0,0.0,0.0,0.0,0.0,0.0,0.0,0.0,0.0,0.0,0.0,0.0,0.0,0.0,0.0,0.0,0.0,0.0,0.0,0.0,0.0,0.0,0.0,0.0,0.0,0.0,0.0,0.0,0.0,0.0,0.0,0.0,0.0,0.0,0.0,0.0,0.0,0.0,0.0,0.0,0.0,0.0,0.0,0.0,0.0,0.0,0.0,0.0,0.0,0.0,0.0,0.0,0.0,0.0,0.0,0.0,0.0,0.0,0.0,0.0,0.0,0.0,0.0,0.0,0.0,0.0,0.0,0.0,0.0,0.0,0.0,0.0,0.0,0.0,0.0,0.0,0.0,0.0,0.0,0.0,0.0,0.0,0.0,0.0,0.0,0.0,0.0,0.0,0.0,0.0,0.0,0.0,-1.5114,-1.5785,-1.5529,-1.5415,0.0,0.0,0.0,0.0,0.0,0.0,0.0,0.0,0.0,0.0,0.0,0.0,0.0,0.0,0.0,0.0,0.0,0.0,0.0,0.0,0.0,0.0,0.0,0.0,0.0,0.0,0.0,0.0,0.0,0.0,0.0,0.0,0.0,0.0,0.0,0.0,0.0,0.0,0.0,0.0,0.0,0.0,0.0,0.0,0.0,0.0,0.0,0.0,0.0,0.0,0.0,0.0,0.0,0.0,0.0,0.0,0.0,0.0,0.0,0.0,0.0,0.0,0.0,0.0,0.0,0.0,0.0,0.0,0.0,0.0,0.0,0.0,0.0,0.0,0.0,0.0,0.0,0.0,0.0,0.0,0.0,0.0,0.0,0.0,0.0,0.0,0.0,0.0,0.0,0.0,0.0,0.0,0.0,0.0,0.0,0.0,0.0,0.0,0.0,0.0,0.0,0.0,0.0,0.0,0.0,0.0,0.0,0.0,0.0,0.0,-1.3354,0.0,-1.5511,-1.5595,-1.5595,-1.5595,0.0,0.0,0.0,0.0,0.0,0.0,0.0,0.0,0.0,0.0,0.0,0.0,0.0,0.0,0.0,0.0,0.0,0.0,0.0,0.0,0.0,0.0,0.0,0.0,0.0,0.0,0.0,0.0,0.0,0.0,0.0,0.0,0.0,0.0,0.0,0.0,0.0,0.0,0.0,0.0,0.0,0.0,0.0,0.0,0.0,0.0,0.0,0.0,0.0,0.0,0.0,0.0,0.0,0.0,0.0,0.0,0.0,0.0,0.0,0.0,0.0,0.0,0.0,0.0,0.0,0.0,0.0,0.0,0.0,0.0,0.0,0.0,0.0,0.0,0.0,0.0,0.0,0.0,0.0,0.0,0.0,0.0,0.0,0.0,0.0,0.0,0.0,0.0,0.0,0.0,0.0,0.0,0.0,0.0,0.0,0.0,0.0,0.0,0.0,0.0,0.0,0.0,0.0,0.0,0.0,0.0,0.0,0.0,0.0,-1.2374,-1.343,-1.5477,-1.5578,-1.5578,0.0,0.0,0.0,0.0,0.0,0.0,0.0,0.0,0.0,0.0,0.0,0.0,0.0,0.0,0.0,0.0,0.0,0.0,0.0,0.0,0.0,0.0,0.0,0.0,0.0,0.0,0.0,0.0,0.0,0.0,0.0,0.0,0.0,0.0,0.0,0.0,0.0,0.0,0.0,0.0,0.0,0.0,0.0,0.0,0.0,0.0,0.0,0.0,0.0,0.0,0.0,0.0,0.0,0.0,0.0,0.0,0.0,0.0,0.0,0.0,0.0,0.0,0.0,0.0,0.0,0.0,0.0,0.0,0.0,0.0,0.0,0.0,0.0,0.0,0.0,0.0,0.0,0.0,0.0,0.0,0.0,0.0,0.0,0.0,0.0,0.0,0.0,0.0,0.0,0.0,0.0,0.0,0.0,0.0,0.0,0.0,0.0,0.0,0.0,0.0,0.0,0.0,0.0,0.0,0.0,0.0,0.0,0.0,0.0,-1.0937,-1.2254,-1.3371,-1.4158,-1.4192,-1.3963,0.0,0.0,0.0,0.0,0.0,0.0,0.0,0.0,0.0,0.0,0.0,0.0,0.0,0.0,0.0,0.0,0.0,0.0,0.0,0.0,0.0,0.0,0.0,0.0,0.0,0.0,0.0,0.0,0.0,0.0,0.0,0.0,0.0,0.0,0.0,0.0,0.0,0.0,0.0,0.0,0.0,0.0,0.0,0.0,0.0,0.0,0.0,0.0,0.0,0.0,0.0,0.0,0.0,0.0,0.0,0.0,0.0,0.0,0.0,0.0,0.0,0.0,0.0,0.0,0.0,0.0,0.0,0.0,0.0,0.0,0.0,0.0,0.0,0.0,0.0,0.0,0.0,0.0,0.0,0.0,0.0,0.0,0.0,0.0,0.0,0.0,0.0,0.0,0.0,0.0,0.0,0.0,0.0,0.0,0.0,0.0,0.0,0.0,0.0,0.0,0.0,0.0,0.0,0.0,0.0,0.0,0.0,0.0,0.0,-1.1627,0.0,-1.4534,0.0,-1.4279,-1.3905,0.0,0.0,0.0,0.0,0.0,0.0,0.0,0.0,0.0,0.0,0.0,0.0,0.0,0.0,0.0,0.0,0.0,0.0,0.0,0.0,0.0,0.0,0.0,0.0,0.0,0.0,0.0,0.0,0.0,0.0,0.0,0.0,0.0,0.0,0.0,0.0,0.0,0.0,0.0,0.0,0.0,0.0,0.0,0.0,0.0,0.0,0.0,0.0,0.0,0.0,0.0,0.0,0.0,0.0,0.0,0.0,0.0,0.0,0.0,0.0,0.0,0.0,0.0,0.0,0.0,0.0,0.0,0.0,0.0,0.0,0.0,0.0,0.0,0.0,0.0,0.0,0.0,0.0,0.0,0.0,0.0,0.0,0.0,0.0,0.0,0.0,0.0,0.0,0.0,0.0,0.0,0.0,0.0,0.0,0.0,0.0,0.0,0.0,0.0,0.0,0.0,0.0,0.0,0.0,0.0,0.0,0.0,0.0,-1.4631,-1.4692,-1.6054,-1.6685,-1.6829,-1.5947,-1.5579,0.0,0.0,0.0,0.0,0.0,0.0,0.0,0.0,0.0,0.0,0.0,0.0,0.0,0.0,0.0,0.0,0.0,0.0,0.0,0.0,0.0,0.0,0.0,0.0,0.0,0.0,0.0,0.0,0.0,0.0,0.0,0.0,0.0,0.0,0.0,0.0,0.0,0.0,0.0,0.0,0.0,0.0,0.0,0.0,0.0,0.0,0.0,0.0,0.0,0.0,0.0,0.0,0.0,0.0,0.0,0.0,0.0,0.0,0.0,0.0,0.0,0.0,0.0,0.0,0.0,0.0,0.0,0.0,0.0,0.0,0.0,0.0,0.0,0.0,0.0,0.0,0.0,0.0,0.0,0.0,0.0,0.0,0.0,0.0,0.0,0.0,0.0,0.0,0.0,0.0,0.0,0.0,0.0,0.0,0.0,0.0,0.0,0.0,0.0,0.0,0.0,0.0,0.0,0.0,0.0,0.0,0.0,0.0,0.0,-1.4779,-1.5635,-1.5892,-1.5395,-1.4606,-1.3947,0.0,0.0,0.0,0.0,0.0,0.0,0.0,0.0,0.0,0.0,0.0,0.0,0.0,0.0,0.0,0.0,0.0,0.0,0.0,0.0,0.0,0.0,0.0,0.0,0.0,0.0,0.0,0.0,0.0,0.0,0.0,0.0,0.0,0.0,0.0,0.0,0.0,0.0,0.0,0.0,0.0,0.0,0.0,0.0,0.0,0.0,0.0,0.0,0.0,0.0,0.0,0.0,0.0,0.0,0.0,0.0,0.0,0.0,0.0,0.0,0.0,0.0,0.0,0.0,0.0,0.0,0.0,0.0,0.0,0.0,0.0,0.0,0.0,0.0,0.0,0.0,0.0,0.0,0.0,0.0,0.0,0.0,0.0,0.0,0.0,0.0,0.0,0.0,0.0,0.0,0.0,0.0,0.0,0.0,0.0,0.0,0.0,0.0,0.0,0.0,0.0,0.0,0.0,0.0,0.0,0.0,0.0,0.0,0.0,-1.7332,-1.7986,-1.8037,-1.7308,-1.6239,-1.5329,-1.4581,0.0,0.0,0.0,0.0,0.0,0.0,0.0,0.0,0.0,0.0,0.0,0.0,0.0,0.0,0.0,0.0,0.0,0.0,0.0,0.0,0.0,0.0,0.0,0.0,0.0,0.0,0.0,0.0,0.0,0.0,0.0,0.0,0.0,0.0,0.0,0.0,0.0,0.0,0.0,0.0,0.0,0.0,0.0,0.0,0.0,0.0,0.0,0.0,0.0,0.0,0.0,0.0,0.0,0.0,0.0,0.0,0.0,0.0,0.0,0.0,0.0,0.0,0.0,0.0,0.0,0.0,0.0,0.0,0.0,0.0,0.0,0.0,0.0,0.0,0.0,0.0,0.0,0.0,0.0,0.0,0.0,0.0,0.0,0.0,0.0,0.0,0.0,0.0,0.0,0.0,0.0,0.0,0.0,0.0,0.0,0.0,0.0,0.0,0.0,0.0,0.0,0.0,0.0,0.0,0.0,0.0,0.0,0.0,-2.1763,-2.2543,-2.2509,-2.1595,-2.0148,-1.9062,0.0,0.0,0.0,0.0,0.0,0.0,0.0,0.0,0.0,0.0,0.0,0.0,0.0,0.0,0.0,0.0,0.0,0.0,0.0,0.0,0.0,0.0,0.0,0.0,0.0,0.0,0.0,0.0,0.0,0.0,0.0,0.0,0.0,0.0,0.0,0.0,0.0,0.0,0.0,0.0,0.0,0.0,0.0,0.0,0.0,0.0,0.0,0.0,0.0,0.0,0.0,0.0,0.0,0.0,0.0,0.0,0.0,0.0,0.0,0.0,0.0,0.0,0.0,0.0,0.0,0.0,0.0,0.0,0.0,0.0,0.0,0.0,0.0,0.0,0.0,0.0,0.0,0.0,0.0,0.0,0.0,0.0,0.0,0.0,0.0,0.0,0.0,0.0,0.0,0.0,0.0,0.0,0.0,0.0,0.0,0.0,0.0,0.0,0.0,0.0,0.0,0.0,0.0,0.0,0.0,0.0,0.0,0.0,0.0,-2.4074,-2.5402,-2.4919,-2.2509,-2.1492,-2.0125,0.0,0.0,0.0,0.0,0.0,0.0,0.0,0.0,0.0,0.0,0.0,0.0,0.0,0.0,0.0,0.0,0.0,0.0,0.0,0.0,0.0,0.0,0.0,0.0,0.0,0.0,0.0,0.0,0.0,0.0,0.0,0.0,0.0,0.0,0.0,0.0,0.0,0.0,0.0,0.0,0.0,0.0,0.0,0.0,0.0,0.0,0.0,0.0,0.0,0.0,0.0,0.0,0.0,0.0,0.0,0.0,0.0,0.0,0.0,0.0,0.0,0.0,0.0,0.0,0.0,0.0,0.0,0.0,0.0,0.0,0.0,0.0,0.0,0.0,0.0,0.0,0.0,0.0,0.0,0.0,0.0,0.0,0.0,0.0,0.0,0.0,0.0,0.0,0.0,0.0,0.0,0.0,0.0,0.0,0.0,0.0,0.0,0.0,0.0,0.0,0.0,0.0,0.0,0.0,0.0,0.0,0.0,0.0,-2.3595,-2.5419,-2.6954,-2.6609,-2.4195,-2.2785,-2.1147,0.0,0.0,0.0,0.0,0.0,0.0,0.0,0.0,0.0,0.0,0.0,0.0,0.0,0.0,0.0,0.0,0.0,0.0,0.0,0.0,0.0,0.0,0.0,0.0,0.0,0.0,0.0,0.0,0.0,0.0,0.0,0.0,0.0,0.0,0.0,0.0,0.0,0.0,0.0,0.0,0.0,0.0,0.0,0.0,0.0,0.0,0.0,0.0,0.0,0.0,0.0,0.0,0.0,0.0,0.0,0.0,0.0,0.0,0.0,0.0,0.0,0.0,0.0,0.0,0.0,0.0,0.0,0.0,0.0,0.0,0.0,0.0,0.0,0.0,0.0,0.0,0.0,0.0,0.0,0.0,0.0,0.0,0.0,0.0,0.0,0.0,0.0,0.0,0.0,0.0,0.0,0.0,0.0,0.0,0.0,0.0,0.0,0.0,0.0,0.0,0.0,0.0,0.0,0.0,0.0,0.0,0.0,0.0,-2.4043,-2.6299,-2.7678,-2.7696,-2.6249,-2.4178,-2.225,0.0,0.0,0.0,0.0,0.0,0.0,0.0,0.0,0.0,0.0,0.0,0.0,0.0,0.0,0.0,0.0,0.0,0.0,0.0,0.0,0.0,0.0,0.0,0.0,0.0,0.0,0.0,0.0,0.0,0.0,0.0,0.0,0.0,0.0,0.0,0.0,0.0,0.0,0.0,0.0,0.0,0.0,0.0,0.0,0.0,0.0,0.0,0.0,0.0,0.0,0.0,0.0,0.0,0.0,0.0,0.0,0.0,0.0,0.0,0.0,0.0,0.0,0.0,0.0,0.0,0.0,0.0,0.0,0.0,0.0,0.0,0.0,0.0,0.0,0.0,0.0,0.0,0.0,0.0,0.0,0.0,0.0,0.0,0.0,0.0,0.0,0.0,0.0,0.0,0.0,0.0,0.0,0.0,0.0,0.0,0.0,0.0,0.0,0.0,0.0,0.0,0.0,0.0,0.0,0.0,0.0,0.0,0.0,-2.5626,-2.7833,-2.823,-2.7971,-2.7057,-2.5971,-2.4095,0.0,0.0,0.0,0.0,0.0,0.0,0.0,0.0,0.0,0.0,0.0,0.0,0.0,0.0,0.0,0.0,0.0,0.0,0.0,0.0,0.0,0.0,0.0,0.0,0.0,0.0,0.0,0.0,0.0,0.0,0.0,0.0,0.0,0.0,0.0,0.0,0.0,0.0,0.0,0.0,0.0,0.0,0.0,0.0,0.0,0.0,0.0,0.0,-1.8062,0.0,0.0,0.0,0.0,0.0,0.0,0.0,0.0,0.0,0.0,0.0,0.0,0.0,0.0,0.0,0.0,0.0,0.0,0.0,0.0,0.0,0.0,0.0,0.0,0.0,0.0,0.0,0.0,0.0,0.0,0.0,0.0,0.0,0.0,0.0,0.0,0.0,0.0,0.0,0.0,0.0,0.0,0.0,0.0,0.0,0.0,0.0,0.0,0.0,0.0,0.0,0.0,0.0,0.0,0.0,0.0,0.0,0.0,0.0,-2.7006,-2.8851,-2.9282,-2.8937,-2.7868,-2.7402,-2.5422,0.0,0.0,0.0,0.0,0.0,0.0,0.0,0.0,0.0,0.0,0.0,0.0,0.0,0.0,0.0,0.0,0.0,0.0,0.0,0.0,0.0,0.0,0.0,0.0,0.0,0.0,0.0,0.0,0.0,0.0,0.0,0.0,0.0,0.0,0.0,0.0,0.0,0.0,0.0,0.0,0.0,0.0,0.0,0.0,0.0,0.0,0.0,0.0,0.0,0.0,0.0,0.0,0.0,0.0,0.0,0.0,0.0,0.0,0.0,0.0,0.0,0.0,0.0,0.0,0.0,0.0,0.0,0.0,0.0,0.0,0.0,0.0,0.0,0.0,0.0,0.0,0.0,0.0,0.0,0.0,0.0,0.0,0.0,0.0,0.0,0.0,0.0,0.0,0.0,0.0,0.0,0.0,0.0,0.0,0.0,0.0,0.0,0.0,0.0,0.0,0.0,0.0,0.0,0.0,0.0,0.0,0.0,-2.6109,-2.8211,-2.9644,-3.0334,-3.0076,-2.8799,-2.8435,-2.6344,-2.2332,0.0,0.0,0.0,0.0,0.0,0.0,0.0,0.0,0.0,0.0,0.0,0.0,0.0,0.0,0.0,0.0,0.0,0.0,0.0,0.0,0.0,0.0,0.0,0.0,0.0,0.0,0.0,0.0,0.0,0.0,0.0,0.0,0.0,0.0,0.0,0.0,0.0,0.0,-1.2082,-1.5055,0.0,0.0,0.0,0.0,0.0,0.0,0.0,0.0,-1.6159,0.0,0.0,0.0,0.0,0.0,0.0,0.0,0.0,0.0,0.0,0.0,0.0,0.0,0.0,0.0,0.0,0.0,0.0,0.0,0.0,0.0,0.0,0.0,0.0,0.0,0.0,0.0,0.0,0.0,0.0,0.0,0.0,0.0,0.0,0.0,0.0,0.0,0.0,0.0,0.0,0.0,0.0,0.0,0.0,0.0,0.0,0.0,0.0,0.0,0.0,0.0,0.0,0.0,0.0,0.0,0.0,-2.4171,-2.6958,-2.912,-3.0525,-3.0663,-3.0611,-3.0352,-2.8633,-2.6698,-2.4749,0.0,0.0,0.0,0.0,0.0,0.0,0.0,0.0,0.0,0.0,0.0,0.0,0.0,0.0,0.0,0.0,0.0,0.0,0.0,0.0,0.0,0.0,0.0,0.0,0.0,0.0,0.0,0.0,0.0,0.0,0.0,0.0,0.0,0.0,0.0,0.0,0.0,0.0,0.0,-1.6952,-1.8756,0.0,0.0,0.0,0.0,0.0,0.0,0.0,0.0,-1.697,0.0,0.0,0.0,0.0,0.0,0.0,0.0,0.0,0.0,0.0,0.0,0.0,0.0,0.0,0.0,0.0,0.0,0.0,0.0,0.0,0.0,0.0,0.0,0.0,0.0,0.0,0.0,0.0,0.0,0.0,0.0,0.0,0.0,0.0,0.0,0.0,0.0,0.0,0.0,0.0,0.0,0.0,0.0,0.0,0.0,0.0,0.0,0.0,0.0,0.0,0.0,0.0,0.0,0.0,0.0,-2.4563,-2.7713,-2.9858,-3.0924,-3.1166,-3.0957,-3.0282,-2.892,-2.6933,0.0,0.0,0.0,0.0,0.0,0.0,0.0,0.0,0.0,0.0,0.0,0.0,0.0,0.0,0.0,0.0,0.0,0.0,0.0,0.0,0.0,0.0,0.0,0.0,0.0,0.0,0.0,0.0,0.0,0.0,0.0,0.0,0.0,0.0,0.0,0.0,0.0,0.0,0.0,0.0,-1.9487,-2.1132,-1.9708,0.0,0.0,0.0,0.0,0.0,0.0,-1.773,-1.7315,0.0,0.0,0.0,0.0,0.0,0.0,0.0,0.0,0.0,0.0,0.0,0.0,0.0,0.0,0.0,0.0,0.0,0.0,0.0,0.0,0.0,0.0,0.0,0.0,0.0,0.0,0.0,0.0,0.0,0.0,0.0,0.0,0.0,0.0,0.0,0.0,0.0,0.0,0.0,0.0,0.0,0.0,0.0,0.0,0.0,0.0,0.0,0.0,0.0,0.0,0.0,0.0,0.0,0.0,0.0,-2.4818,-2.8304,-3.0453,-3.116,-3.1655,-3.141,-3.0381,-2.9271,-2.7176,0.0,0.0,0.0,0.0,0.0,0.0,0.0,0.0,0.0,0.0,0.0,0.0,0.0,0.0,0.0,0.0,0.0,0.0,0.0,0.0,0.0,0.0,0.0,0.0,0.0,0.0,0.0,0.0,0.0,0.0,0.0,0.0,0.0,0.0,0.0,0.0,0.0,0.0,0.0,0.0,0.0,-2.348,-2.1686,-2.3214,0.0,0.0,0.0,0.0,-2.0068,-1.9177,0.0,0.0,0.0,0.0,0.0,0.0,0.0,0.0,0.0,0.0,0.0,0.0,0.0,0.0,0.0,0.0,0.0,0.0,0.0,0.0,0.0,0.0,0.0,0.0,0.0,0.0,0.0,0.0,0.0,0.0,0.0,0.0,0.0,0.0,0.0,0.0,0.0,0.0,0.0,0.0,0.0,0.0,0.0,0.0,0.0,0.0,0.0,0.0,0.0,0.0,0.0,0.0,0.0,0.0,0.0,0.0,-2.4928,-2.8544,-3.0769,-3.1439,-3.1966,-3.2265,-3.2221,-2.9612,-2.7699,0.0,0.0,0.0,0.0,0.0,0.0,0.0,0.0,0.0,0.0,0.0,0.0,0.0,0.0,0.0,0.0,0.0,0.0,0.0,0.0,0.0,0.0,0.0,0.0,0.0,0.0,0.0,0.0,0.0,0.0,0.0,0.0,0.0,0.0,0.0,0.0,0.0,0.0,0.0,0.0,0.0,-2.5055,-2.4314,-2.5081,-2.587,0.0,0.0,-2.3682,-2.5015,-2.3802,0.0,0.0,0.0,0.0,0.0,0.0,0.0,0.0,0.0,0.0,0.0,0.0,0.0,0.0,0.0,0.0,0.0,0.0,0.0,0.0,0.0,0.0,0.0,0.0,0.0,0.0,0.0,0.0,0.0,0.0,0.0,0.0,0.0,0.0,0.0,0.0,0.0,0.0,0.0,0.0,0.0,0.0,0.0,0.0,0.0,0.0,0.0,0.0,0.0,0.0,0.0,0.0,0.0,0.0,0.0,-2.3067,-2.583,-2.9972,-3.2206,-3.2476,-3.2985,-3.2703,-3.1546,-2.9446,-2.7592,0.0,0.0,0.0,0.0,0.0,0.0,0.0,0.0,0.0,0.0,0.0,0.0,0.0,0.0,0.0,0.0,0.0,0.0,0.0,0.0,0.0,0.0,0.0,0.0,0.0,0.0,0.0,0.0,0.0,0.0,0.0,0.0,0.0,0.0,0.0,0.0,0.0,0.0,0.0,0.0,0.0,0.0,-2.6429,-2.8146,0.0,0.0,0.0,-2.7276,-2.8816,0.0,0.0,0.0,0.0,0.0,0.0,0.0,0.0,0.0,0.0,0.0,0.0,0.0,0.0,0.0,0.0,0.0,0.0,0.0,0.0,0.0,0.0,0.0,0.0,0.0,0.0,0.0,0.0,0.0,0.0,0.0,0.0,0.0,0.0,0.0,0.0,0.0,0.0,0.0,0.0,0.0,0.0,0.0,0.0,0.0,0.0,0.0,0.0,0.0,0.0,0.0,0.0,0.0,0.0,0.0,0.0,0.0,-2.6512,-3.1051,-3.3462,-3.3587,-3.3962,-3.3286,-3.1463,-2.9574,0.0,0.0,0.0,0.0,0.0,0.0,0.0,0.0,0.0,0.0,0.0,0.0,0.0,0.0,0.0,0.0,0.0,0.0,0.0,0.0,0.0,0.0,0.0,0.0,0.0,0.0,0.0,-1.2141,0.0,0.0,0.0,0.0,0.0,0.0,0.0,0.0,0.0,0.0,0.0,0.0,0.0,0.0,-2.9385,-2.8858,-3.1206,-3.2642,0.0,0.0,-3.0722,-3.2082,-3.0674,-2.9034,0.0,0.0,0.0,0.0,0.0,0.0,0.0,0.0,0.0,0.0,0.0,0.0,0.0,0.0,0.0,0.0,0.0,0.0,0.0,0.0,0.0,0.0,0.0,0.0,0.0,0.0,0.0,0.0,0.0,0.0,0.0,0.0,0.0,0.0,0.0,0.0,0.0,0.0,0.0,0.0,0.0,0.0,0.0,0.0,0.0,0.0,0.0,0.0,0.0,0.0,0.0,0.0,0.0,0.0,0.0,-2.6549,-3.1175,-3.3927,-3.4563,-3.4579,-3.4166,-3.3281,-3.0368,-2.8044,0.0,0.0,0.0,0.0,0.0,0.0,0.0,0.0,0.0,0.0,0.0,0.0,0.0,0.0,0.0,0.0,0.0,0.0,0.0,0.0,0.0,0.0,0.0,0.0,0.0,0.0,0.0,0.0,0.0,0.0,0.0,0.0,0.0,0.0,0.0,0.0,0.0,0.0,0.0,0.0,0.0,-3.0551,-3.2125,-3.3805,-3.4912,0.0,0.0,-3.3954,-3.4792,-3.281,-3.1127,-3.1146,0.0,0.0,0.0,0.0,0.0,0.0,0.0,0.0,0.0,0.0,0.0,0.0,0.0,0.0,0.0,0.0,0.0,0.0,0.0,0.0,0.0,0.0,0.0,0.0,0.0,0.0,0.0,0.0,0.0,0.0,0.0,0.0,0.0,0.0,0.0,0.0,0.0,0.0,0.0,0.0,0.0,0.0,0.0,0.0,0.0,0.0,0.0,0.0,0.0,0.0,0.0,0.0,0.0,-2.4409,-2.7303,-3.2567,-3.5139,-3.4914,-3.5374,-3.5009,-3.3721,-3.1064,-2.8929,0.0,0.0,0.0,0.0,0.0,0.0,0.0,0.0,0.0,0.0,0.0,0.0,0.0,0.0,0.0,0.0,0.0,0.0,0.0,0.0,0.0,0.0,0.0,0.0,0.0,0.0,0.0,0.0,-1.3313,-1.3183,-1.3025,0.0,0.0,0.0,0.0,0.0,0.0,0.0,0.0,0.0,0.0,-3.1297,-3.4037,-3.5351,0.0,0.0,-3.6621,-3.6515,-3.6822,-3.519,-3.3216,-3.1272,-2.8116,0.0,0.0,0.0,0.0,0.0,0.0,0.0,0.0,0.0,0.0,0.0,0.0,0.0,0.0,0.0,0.0,0.0,0.0,0.0,0.0,0.0,0.0,0.0,0.0,0.0,0.0,0.0,0.0,0.0,0.0,0.0,0.0,0.0,0.0,0.0,0.0,0.0,0.0,0.0,0.0,0.0,0.0,0.0,0.0,0.0,0.0,0.0,0.0,0.0,0.0,0.0,0.0,-2.5181,-2.8154,-3.3513,-3.6009,-3.5389,-3.5991,-3.5605,-3.4174,-3.2063,-2.9953,0.0,0.0,0.0,0.0,0.0,0.0,0.0,0.0,0.0,0.0,0.0,0.0,0.0,0.0,0.0,0.0,0.0,0.0,0.0,0.0,0.0,0.0,0.0,0.0,0.0,0.0,0.0,0.0,-1.4851,-1.4273,-1.4068,0.0,0.0,0.0,0.0,0.0,0.0,0.0,0.0,0.0,0.0,-3.2354,-3.5404,-3.6551,-3.7429,-3.8488,-3.8414,-3.8265,-3.8265,-3.6718,-3.4711,-3.2444,0.0,0.0,0.0,0.0,0.0,0.0,0.0,0.0,0.0,0.0,0.0,0.0,0.0,0.0,0.0,0.0,0.0,0.0,0.0,0.0,0.0,0.0,0.0,0.0,0.0,0.0,0.0,0.0,0.0,0.0,-1.4695,0.0,0.0,0.0,0.0,0.0,0.0,0.0,0.0,0.0,0.0,0.0,0.0,0.0,0.0,0.0,0.0,0.0,0.0,0.0,0.0,0.0,0.0,-2.6521,-2.8987,-3.3825,-3.6285,-3.6248,-3.6285,-3.5899,-3.4986,-3.3408,-3.1041,-2.7842,0.0,0.0,0.0,0.0,0.0,0.0,0.0,0.0,0.0,0.0,0.0,0.0,0.0,0.0,0.0,0.0,0.0,0.0,0.0,0.0,0.0,0.0,0.0,0.0,0.0,0.0,-1.6435,-1.4214,-1.3169,0.0,0.0,0.0,0.0,0.0,0.0,0.0,0.0,0.0,0.0,-3.0902,-3.3856,-3.6309,-3.7355,-3.8446,-4.0048,-3.9621,-3.9101,-3.9064,-3.7058,-3.5473,0.0,0.0,0.0,0.0,0.0,0.0,0.0,0.0,0.0,0.0,0.0,0.0,0.0,0.0,0.0,0.0,0.0,0.0,0.0,0.0,0.0,0.0,0.0,0.0,0.0,0.0,0.0,-2.2106,-2.1317,0.0,0.0,0.0,0.0,0.0,0.0,0.0,0.0,0.0,0.0,0.0,-2.7813,-2.8338,0.0,0.0,0.0,0.0,0.0,0.0,0.0,0.0,0.0,0.0,0.0,0.0,-2.6862,-2.9831,-3.4082,-3.6285,-3.6303,-3.6831,-3.6703,-3.5881,-3.4284,-3.1127,-2.6366,0.0,0.0,0.0,0.0,0.0,0.0,0.0,0.0,0.0,0.0,0.0,0.0,0.0,0.0,0.0,0.0,0.0,0.0,0.0,0.0,0.0,0.0,0.0,0.0,0.0,-1.7837,0.0,0.0,0.0,0.0,0.0,0.0,0.0,0.0,0.0,0.0,0.0,-2.6859,-3.0129,-3.1515,-3.3299,-3.6278,-3.7851,-3.8897,0.0,0.0,0.0,0.0,0.0,0.0,0.0,0.0,0.0,0.0,0.0,0.0,0.0,0.0,-3.286,-2.9898,-2.9359,-2.8672,-2.6479,0.0,0.0,0.0,0.0,0.0,0.0,0.0,0.0,0.0,0.0,0.0,0.0,0.0,0.0,-2.5878,0.0,-2.4428,0.0,0.0,0.0,0.0,0.0,0.0,0.0,0.0,-3.1146,-3.2797,-3.1592,-3.2357,-3.3293,0.0,-3.3765,-3.1604,0.0,0.0,0.0,0.0,0.0,0.0,0.0,0.0,-2.7835,-3.1017,-3.4504,-3.6431,-3.674,-3.7235,-3.7254,-3.6721,-3.4541,-3.1256,-2.6796,-2.485,-2.3189,0.0,0.0,0.0,0.0,0.0,0.0,0.0,0.0,0.0,0.0,0.0,0.0,0.0,0.0,0.0,0.0,0.0,0.0,0.0,0.0,0.0,0.0,0.0,-1.9944,0.0,0.0,0.0,0.0,0.0,0.0,0.0,0.0,0.0,-2.4374,-2.6357,-2.8619,-3.1058,-3.2611,-3.4364,-3.6779,0.0,0.0,0.0,0.0,0.0,0.0,0.0,-3.7926,-3.7665,-3.7145,-3.7058,-3.7907,-3.8451,-3.899,-3.9524,0.0,0.0,-3.4748,-3.3949,-3.3262,-3.1087,-3.0679,-3.0493,-2.9917,-3.027,-3.0995,0.0,0.0,0.0,0.0,0.0,0.0,0.0,0.0,-2.9934,-2.9299,0.0,-2.6806,0.0,0.0,0.0,0.0,0.0,-2.8227,0.0,0.0,-3.5014,-3.7162,-3.645,-3.7144,-3.7566,-3.7603,-3.7511,-3.6578,-3.4821,-3.1097,0.0,0.0,0.0,0.0,0.0,0.0,-2.9402,-3.2528,-3.5055,-3.674,-3.7456,-3.7566,-3.7566,-3.7364,-3.4339,-3.1537,-2.9133,-2.6751,-2.5136,-2.4355,-2.273,0.0,0.0,0.0,0.0,0.0,0.0,0.0,0.0,0.0,0.0,0.0,0.0,0.0,0.0,0.0,0.0,0.0,0.0,0.0,0.0,-2.1835,0.0,0.0,0.0,0.0,0.0,0.0,0.0,0.0,0.0,0.0,-2.6846,-2.9735,-3.1529,-3.0946,0.0,0.0,0.0,0.0,-4.1698,-4.4748,-4.3986,-4.3299,-4.3986,-4.2129,-4.0866,-4.1664,0.0,0.0,-4.2946,-4.3039,-4.3058,-4.3039,-4.3615,-4.3373,-4.1014,-3.9078,-3.7387,-3.5714,-3.525,-3.494,-3.3707,-3.4376,-3.5473,-3.7257,0.0,0.0,0.0,0.0,-3.3188,-3.4431,-3.5675,-3.4683,-3.4541,-3.4871,-3.1861,0.0,0.0,0.0,0.0,0.0,0.0,-3.3848,-3.4412,-3.8251,-3.9643,-3.8888,-3.9108,-3.9515,-4.0029,-3.8909,-3.7808,-3.6762,-3.562,-3.2939,-2.8833,0.0,0.0,0.0,0.0,-2.9959,-3.2601,-3.5605,-3.7272,-3.7511,-3.8631,-3.8392,-3.6703,-3.4578,-3.2596,-3.076,-2.8385,-2.7273,-2.7556,-2.4465,0.0,0.0,0.0,0.0,0.0,0.0,0.0,0.0,0.0,0.0,0.0,0.0,0.0,0.0,0.0,0.0,0.0,0.0,0.0,-2.1934,-2.2036,-2.1972,0.0,0.0,0.0,0.0,0.0,0.0,0.0,0.0,0.0,-3.0954,-3.2385,-3.3802,0.0,0.0,-3.9635,-4.0438,-4.2463,-4.4228,-4.5157,-4.6345,0.0,-4.6698,-4.5584,-4.5026,-4.5825,-4.6903,-4.7943,-4.8797,-4.8426,-4.8017,-4.7961,-4.7237,-4.6382,-4.5639,-4.2816,-3.9733,-3.7113,-3.6365,-3.6643,-3.7243,-3.7782,-3.8599,-4.3333,-3.8985,-3.8215,-3.7609,-3.7276,-3.8362,-3.9774,-4.1203,-3.9772,-3.9622,-4.0139,-3.6927,-3.5312,-3.4912,-3.3164,0.0,0.0,0.0,-3.7995,-3.8322,-4.1515,-4.258,-4.1846,-4.2121,-4.2359,-4.2506,-4.1882,-4.0983,-3.9879,-4.021,-3.8377,-3.4472,0.0,0.0,-2.9696,-3.0179,-3.1463,-3.3573,-3.6468,-3.797,-3.7973,-3.8909,-3.8432,-3.6372,-3.5312,-3.388,-3.1935,-3.0173,-2.9292,-2.9427,-2.6253,-2.4061,0.0,0.0,0.0,0.0,0.0,0.0,0.0,0.0,0.0,0.0,0.0,-1.5901,0.0,0.0,0.0,0.0,-2.047,-2.2254,-2.4206,-2.4158,0.0,0.0,0.0,0.0,0.0,0.0,0.0,-3.0772,-3.2836,-3.4393,-3.5059,-3.7012,-3.8089,-3.7251,-3.957,-4.1646,-4.2445,0.0,-4.5992,-4.6624,-4.8259,-4.9243,-4.876,-4.7999,-4.7738,-4.8537,-4.9726,-5.0729,-5.1249,-5.0952,-5.0506,-5.0098,-4.9317,-4.8351,-4.7404,-4.5157,-4.2779,-4.0178,-3.9881,-4.0267,-4.0568,-4.081,-4.1534,-4.825,-4.7333,-4.4397,-4.2983,-4.2818,-4.4268,-4.5773,-4.7076,-4.4782,-4.4232,-4.4745,-4.1589,-3.9717,-3.8854,-3.812,0.0,-3.8117,-4.1038,-4.2029,-4.159,-4.4544,-4.5516,-4.4856,-4.5535,-4.5516,-4.4819,-4.5424,-4.4929,-4.3533,-4.4195,-4.3388,-4.1003,-3.594,-3.3243,-3.3018,-3.2913,-3.3683,-3.5298,-3.7683,-3.8927,-3.8982,-3.8872,-3.8028,-3.645,-3.6321,-3.5165,-3.2821,-3.1916,-3.1146,-3.0375,-2.8143,-2.6502,-2.5576,0.0,0.0,0.0,0.0,0.0,0.0,0.0,0.0,0.0,0.0,0.0,0.0,0.0,0.0,0.0,-2.4705,0.0,-2.6767,-2.7402,0.0,0.0,0.0,-2.6554,-2.8305,-2.9802,-3.1654,-3.4105,0.0,0.0,-3.8924,-4.2656,-4.3572,-3.9164,-4.1401,-4.3729,-4.4488,-4.6067,-4.7516,-4.9002,-4.9949,-5.0488,-5.0562,-4.993,-4.9689,-5.0376,-5.1063,-5.1621,-5.1676,-5.1658,-5.1268,-5.0543,-5.0265,-4.954,-4.7218,-4.6773,-4.6197,-4.4599,-4.4618,-4.4581,-4.341,-4.3615,-4.4153,-5.1922,-5.1662,-5.093,-4.8819,-4.5993,-4.636,-4.748,-4.8802,-4.7058,-4.6672,-4.7241,-4.4065,-4.1864,-4.0524,-4.0341,-4.091,-4.2119,-4.289,-4.3754,-4.4764,-4.5535,-4.5792,-4.5645,-4.581,-4.581,-4.5553,-4.4544,-4.3882,-4.3533,-4.3681,-4.2873,-4.115,-4.0359,-3.8762,-3.6395,-3.5734,-3.6229,-3.7793,-3.9609,-4.082,-4.1405,-4.0249,-3.8836,-3.7254,-3.6629,-3.5422,-3.3587,-3.2761,-3.2216,-3.1995,-3.0308,-2.8705,-2.7284,-2.554,0.0,0.0,0.0,0.0,0.0,0.0,0.0,0.0,0.0,-1.9753,-2.0583,0.0,-2.2105,0.0,-2.4512,-2.6439,-2.8253,-2.8044,0.0,0.0,-2.9565,-3.0127,-3.2324,-3.3543,-3.5103,-3.7465,-3.9191,-4.056,-4.1569,-4.5277,-4.7233,-4.5562,-4.7526,-4.9303,-4.9634,-5.0469,-5.1268,-5.1621,-5.2327,-5.294,-5.2865,-5.2791,-5.2624,-5.2902,-5.3088,-5.3218,-5.3218,-5.3218,-5.2977,-5.2159,-5.1472,-5.0636,-4.9429,-4.8779,-4.8259,-4.7646,-4.5937,-4.4636,-4.5398,-4.5788,-4.6252,-5.4069,-5.3739,-5.3739,-5.2194,-4.9809,-4.9809,-5.0362,-5.1077,-4.9848,-4.9536,-4.9793,-4.7682,-4.625,-4.5425,-4.5406,-4.5902,-4.6728,-4.6746,-4.7241,-4.8067,-4.8086,-4.8086,-4.8086,-4.8067,-4.7682,-4.6929,-4.57,-4.4911,-4.458,-4.458,-4.3938,-4.2728,-4.315,-4.2304,-4.021,-3.9001,-3.8707,-3.9221,-4.0487,-4.148,-4.2231,-4.1075,-3.9515,-3.7566,-3.707,-3.5862,-3.3862,-3.3036,-3.2601,-3.2546,-3.1072,-2.9641,-2.8393,-2.6814,-2.5026,0.0,0.0,0.0,0.0,0.0,0.0,0.0,0.0,0.0,0.0,0.0,-2.453,-2.5568,-2.7129,-2.876,-3.0436,-3.0821,-3.1549,-3.291,-3.3392,-3.4305,-3.6053,-3.7295,-3.8691,-4.0374,-4.2321,-4.3839,-4.4705,-4.8013,-5.0213,-4.9786,-5.1213,-5.2084,-5.1565,-5.1788,-5.2197,-5.2568,-5.3292,-5.3813,-5.3813,-5.3813,-5.3813,-5.3813,-5.3813,-5.3813,-5.3813,-5.3813,-5.3553,-5.2754,-5.2234,-5.1658,-5.0859,-5.0358,-5.0023,-4.9782,-4.8593,-4.7516,-4.7516,-4.7553,-4.7906,-5.5115,-5.4418,-5.4418,-5.394,-5.3185,-5.3185,-5.3185,-5.3148,-5.2344,-5.194,-5.1793,-5.1096,-5.0729,-5.0655,-5.0655,-5.0582,-5.049,-5.049,-5.0472,-5.049,-5.0582,-5.0655,-5.0655,-5.0765,-4.9994,-4.8471,-4.7535,-4.6746,-4.6067,-4.5938,-4.5553,-4.4892,-4.4929,-4.4617,-4.3808,-4.2525,-4.1479,-4.0689,-4.1368,-4.2066,-4.2708,-4.1774,-4.0212,-3.808,-3.7566,-3.6281,-3.4064,-3.317,-3.2711,-3.2564,-3.1347,-3.0265,-2.9335,-2.7868,-2.6355,0.0,-2.4649,0.0,0.0,0.0,0.0,0.0,0.0,0.0,0.0,-2.6476,-2.731,-2.9299,-3.0925,-3.2173,-3.3018,-3.4619,-3.5656,-3.5749,-3.712,-3.8427,-3.9342,-4.0643,-4.1933,-4.3011,-4.5072,-4.672,-4.768,-5.0453,-5.234,-5.2306,-5.2955,-5.3142,-5.2048,-5.1844,-5.2122,-5.2679,-5.3348,-5.3813,-5.3813,-5.3813,-5.3813,-5.3813,-5.3813,-5.3813,-5.3813,-5.3813,-5.3534,-5.281,-5.2587,-5.2289,-5.1546,-5.1361,-5.1342,-5.1268,-5.1082,-5.0618,-4.9559,-4.9224,-4.9224,-5.5155,-5.4418,-5.4418,-5.394,-5.3185,-5.3185,-5.3185,-5.313,-5.2344,-5.1628,-5.1022,-5.0857,-5.0435,-4.9849,-4.9831,-4.9444,-4.8802,-4.8783,-4.8783,-4.8802,-4.9519,-4.9831,-4.9867,-5.049,-5.0288,-4.9298,-4.7829,-4.7021,-4.6856,-4.6214,-4.5828,-4.5681,-4.6324,-4.6269,-4.5498,0.0,0.0,0.0,-4.4911,-4.5076,-4.5131,-4.3167,-4.1552,-4.0414,-3.7881,0.0,-3.4821,-3.4009,-3.3275,-3.2656,-3.2944,0.0,0.0,0.0,0.0,0.0,0.0,0.0,0.0,0.0,0.0,0.0,-3.3023,-3.2417,-3.2228,-3.221,-3.2118,-3.1977,-3.3371,-3.4674,-3.5532,-3.7643,-3.8964,-3.9016,-3.9905,-4.0835,-4.1643,-4.2195,-4.3233,-4.5397,-4.6689,-4.7966,-4.9432,-5.1343,-5.253,-5.2642,-5.3273,-5.3645,-5.3367,-5.3255,-5.3385,-5.359,-5.3701,-5.3813,-5.3813,-5.3813,-5.3813,-5.3813,-5.3813,-5.3813,-5.3813,-5.3813,-5.3534,-5.2791,-5.2605,-5.2364,-5.1584,-5.1398,-5.1491,-5.1416,-5.1435,-5.1305,-5.0989,-5.0933,-5.0933,-5.6308,0.0,-5.5574,-5.5133,0.0,-5.4381,-5.4381,-5.4308,-5.3115,-5.2362,-5.1995,-5.1995,-5.1536,-5.0747,-5.0362,-4.9738,-4.893,-4.8489,-4.8526,-4.8967,-4.9793,-5.0398,-5.0822,-5.161,-5.1371,-5.016,-4.8893,-4.7884,-4.7113,-4.6672,-4.6287,-4.5902,-4.6709,-4.6691,-4.5957,-4.6691,-4.6892,-4.6507,-4.6104,-4.5902,-4.5828,-4.4323,-4.2727,-4.1113,0.0,0.0,0.0,0.0,0.0,0.0,0.0,0.0,0.0,0.0,0.0,-2.9726,-3.0705,-3.1366,-3.1445,-3.3275,-3.5124,-3.671,-3.827,-3.8175,-3.584,-3.5638,-3.5624,-3.5661,-3.6725,-3.7753,-3.8634,-4.0487,-4.1827,-4.2231,-4.2669,-4.3272,-4.4076,-4.4309,-4.504,-4.6589,-4.7955,-4.9231,-5.049,-5.2103,-5.3087,-5.3199,-5.3515,-5.3813,-5.3813,-5.3813,-5.3813,-5.3813,-5.3813,-5.3813,-5.3813,-5.3813,-5.3813,-5.3813,-5.3813,-5.3813,-5.3813,-5.3813,-5.3645,-5.3274,-5.32,-5.3032,-5.2717,-5.2587,-5.2605,-5.2642,-5.2921,-5.3162,-5.3125,-5.2252,-5.1398,-5.7538,-5.6804,-5.6804,-5.6345,-5.5614,-5.5614,-5.5614,-5.55,0.0,0.0,0.0,-5.3482,-5.2968,-5.216,-5.1206,-5.0362,-4.9555,-4.8691,-4.8765,-4.9647,-5.0435,-5.1224,-5.2013,-5.2839,-5.2454,-5.1022,-5.0141,-4.9058,-4.7773,-4.7461,-4.7076,-4.6636,-4.7058,-4.6985,-4.6416,-4.7003,-4.7314,-4.7278,-4.6673,-4.6324,-4.6287,-4.5406,-4.3939,-4.1994,-4.0763,-3.8781,-3.5995,-3.4963,-3.4394,-3.4229,-3.3623,-3.3275,-3.3261,-3.388,-3.3715,-3.27,-3.4614,-3.5701,-3.5367,-3.7459,-3.9111,-3.99,-4.2525,-4.2543,-3.8833,-3.8704,-3.8909,-3.9294,-4.0194,-4.0965,-4.1515,-4.3259,-4.4488,-4.4911,-4.515,-4.5662,-4.636,-4.6524,-4.691,-4.796,-4.9381,-5.0527,-5.1324,-5.2732,-5.3715,-5.3774,-5.3775,-5.3813,-5.3813,-5.3813,-5.3813,-5.3813,-5.3813,-5.3813,-5.3813,-5.3813,-5.3813,-5.3813,-5.3813,-5.3813,-5.3813,-5.3813,-5.3813,-5.3757,-5.3794,-5.3757,-5.3775,-5.3701,-5.3813,-5.3813,-5.4444,-5.4982,-5.4833,-5.359,-5.2419,-5.7538,-5.6804,-5.6804,-5.6326,-5.5614,-5.5614,-5.5614,-5.5574,-5.5354,-5.5244,-5.5225,-5.4528,-5.3794,-5.2968,-5.1463,-5.0343,-4.9574,-4.8691,-4.8765,-4.9629,-5.0435,-5.1224,-5.2013,-5.2821,-5.2729,-5.1811,-5.1004,-5.0508,-5.016,-4.8857,-4.8434,-4.8913,-4.8453,-4.8067,-4.7994,-4.8086,-4.8141,-4.8103,-4.8031,-4.7957,-4.7939,-4.6489,-4.559,-4.5149,-4.2398,-4.0432,-3.9239,-3.7768,-3.6666,-3.5991,-3.5844,-3.5771,-3.5789,-3.5881,-3.6138,-3.6666,-3.8248,-3.9753,-4.1001,-4.2727,-4.4048,-4.4856,-4.5938,-4.548,-4.2947,-4.3296,-4.3167,-4.2047,-4.3185,-4.3773,-4.346,-4.5847,-4.7058,-4.6104,-4.6985,-4.7847,-4.7976,-4.807,-4.8697,-5.0115,-5.1299,-5.195,-5.2268,-5.3101,-5.3715,-5.3793,-5.3813,-5.3813,-5.3813,-5.3813,-5.3813,-5.3813,-5.3813,-5.3813,-5.3998,-5.3831,-5.3924,-5.3813,-5.3868,-5.3887,-5.3813,-5.3813,-5.3813,-5.3813,-5.3813,-5.3813,-5.3813,-5.3813,-5.3868,-5.3943,-5.4573,-5.5112,-5.5205,-5.5206,-5.5224,-5.7776,-5.7464,-5.7446,-5.7244,-5.6895,-5.6895,-5.6895,-5.6895,-5.6895,-5.64,-5.5559,-5.4748,-5.3959,-5.3096,-5.1518,-5.0362,-4.9574,-4.8691,-4.8765,-4.9629,-5.0417,-5.1224,-5.2013,-5.2821,-5.3004,-5.2637,-5.2289,-5.1885,-5.1408,-5.0655,-5.0068,-4.9592,-4.8728,-4.8324,-4.8324,-4.8324,-4.8324,-4.8324,-4.8324,-4.8324,-4.8288,-4.7168,-4.6342,-4.5883,-4.3589,-4.1809,-4.0581,-3.9423,-3.8429,-3.7624,-3.7606,-3.7606,-3.7606,-3.801,-3.8615,-3.9441,-4.0965,-4.2158,-4.291,-4.4048,-4.5241,-4.6415,-4.6874,-4.6856,-4.6177,-4.6452,-4.6342,-4.5681,-4.6673,-4.7205,-4.6856,-4.8526,-4.9352,-4.8636,-4.8893,-4.9169,-4.9517,-4.9263,-4.9686,-5.1193,-5.186,-5.2347,-5.2929,-5.3357,-5.3657,-5.3774,-5.3813,-5.3813,-5.385,-5.4203,-5.4463,-5.45,-5.4853,-5.5131,-5.515,-5.5169,-5.4983,-5.4556,-5.4463,-5.4277,-5.3943,-5.3813,-5.3813,-5.3813,-5.3813,-5.3813,-5.3813,-5.4184,-5.4388,-5.4574,-5.554,-5.6209,-5.6432,-5.671,-5.645,-5.7978,-5.7978,-5.7978,-5.7978,-5.7978,-5.7978,-5.7978,-5.7978,-5.7978,-5.7299,-5.6124,-5.5299,-5.4601,-5.3864,-5.2325,-5.1279,-5.06,-4.9609,-4.9591,-5.0398,-5.0875,-5.1499,-5.2252,-5.291,-5.3185,-5.3185,-5.3185,-5.2876,-5.2307,-5.2087,-5.1169,-4.9684,-4.893,-4.8489,-4.8324,-4.8324,-4.8324,-4.8324,-4.8324,-4.8324,-4.8288,-4.7681,-4.7039,-4.6397,-4.5076,-4.3644,-4.2233,-4.1405,-4.0616,-3.9845,-3.9606,-3.9515,-3.9551,-4.0102,-4.0873,-4.1901,-4.324,-4.4322,-4.4873,-4.5626,-4.6599,-4.7791,-4.7938,-4.8195,-4.8765,-4.904,-4.8875,-4.8526,-4.9114,-4.9739,-4.9574,-5.0435,-5.1004,-5.082,-5.0417,-5.0398,-5.0875,-5.0472,-5.06,-5.1977,-5.227,-5.261,-5.3254,-5.3499,-5.3579,-5.3737,-5.3943,-5.4073,-5.4166,-5.489,-5.5502,-5.5632,-5.6023,-5.619,-5.632,-5.6246,-5.5856,-5.513,-5.4963,-5.4593,-5.4073,-5.3813,-5.3813,-5.3813,-5.3813,-5.3813,-5.3868,-5.4444,-5.4871,-5.5019,-5.6172,-5.7435,-5.7676,-5.7732,-5.71,-5.7978,-5.7978,-5.7978,-5.7978,-5.7978,-5.7978,-5.7978,-5.7978,-5.7978,-5.7941,-5.7611,-5.6932,-5.651,-5.6271,-5.473,-5.3922,-5.372,-5.2344,-5.2068,-5.2637,-5.2179,-5.2307,-5.3004,-5.3148,-5.3185,-5.3185,-5.3185,-5.313,-5.2986,-5.2344,-5.1189,-4.9776,-4.9519,-4.9058,-4.8398,-4.8324,-4.8324,-4.8324,-4.8324,-4.8324,-4.8324,-4.8251,-4.8159,-4.8086,-4.7204,-4.6379,-4.5333,-4.4709,-4.3883,-4.3094,-4.2341,-4.1956,-4.1992,-4.2047,-4.2782,-4.4251,-4.5204,-4.6617,-4.8729,-4.9774,-5.016,-5.0435,-5.0343,-5.038,-5.0527,-5.1187,-5.0655,-4.9242,-4.9829,-5.0435,-4.9812,-5.1004,-5.161,-5.1132,-5.1408,-5.1811,-5.1848,-5.1811,-5.2105,-5.2965,-5.3004,-5.3217,-5.344,-5.3519,-5.358,-5.3774,-5.437,-5.4741,-5.489,-5.606,-5.7008,-5.7008,-5.6803,-5.6432,-5.645,-5.6339,-5.6153,-5.5353,-5.5056,-5.4834,-5.437,-5.4035,-5.385,-5.4296,-5.4017,-5.4054,-5.4147,-5.4444,-5.5094,-5.5522,-5.6543,-5.7751,-5.8364,-5.8512,-5.7639,-5.7978,-5.7978,-5.7978,-5.7978,-5.7978,-5.7978,-5.7978,-5.7978,-5.7978,-5.7978,-5.796,-5.7648,-5.7244,-5.6748,-5.5611,-5.5097,-5.5023,-5.3922,-5.3573,-5.383,-5.3096,-5.2873,-5.3167,-5.3185,-5.3185,-5.3185,-5.3185,-5.3185,-5.3059,-5.238,-5.1408,-5.0362,-4.9849,-4.915,-4.8379,-4.8324,-4.8324,-4.8324,-4.8324,-4.8545,-4.893,-4.8563,-4.8324,-4.8233,-4.7535,-4.6966,-4.6581,-4.5828,-4.5259,-4.4929,-4.4599,-4.4433,-4.4433,-4.4415,-4.4929,-4.6067,-4.737,-4.8527,-4.9555,-5.0343,-5.082,-5.082,-5.082,-5.082,-5.0839,-5.1536,-5.1518,-5.0875,-5.1536,-5.2068,-5.1793,-5.2344,-5.2582,-5.2325,-5.2546,-5.2711,-5.2711,-5.2711,-5.2876,-5.3148,-5.3185,-5.3272,-5.3459,-5.36,-5.3698,-5.3868,-5.45,-5.5019,-5.5131,-5.6432,-5.7379,-5.7546,-5.7583,-5.7732,-5.7695,-5.7713,-5.7323,-5.6729,-5.6487,-5.619,-5.5447,-5.5299,-5.5299,-5.5243,-5.5169,-5.5169,-5.5373,-5.5912,-5.6506,-5.6673,-5.7193,-5.8345,-5.8642,-5.8677,-5.7825,-5.7978,-5.7978,-5.7978,-5.7978,-5.7978,-5.7978,-5.7978,-5.7978,-5.7978,-5.7978,-5.7978,-5.7978,-5.7685,-5.7097,-5.651,-5.6253,-5.6143,-5.5427,-5.506,-5.4968,-5.4234,-5.3867,-5.3849,-5.3628,-5.3537,-5.3518,-5.3298,-5.3185,-5.313,-5.2656,-5.1922,-5.1114,-5.0306,-4.9499,-4.871,-4.8453,-4.8324,-4.8324,-4.8324,-4.871,-4.939,-4.8985,-4.8765,-4.8912,-4.8415,-4.8103,-4.8085,-4.7572,-4.7241,-4.7241,-4.704,-4.6911,-4.6911,-4.6691,-4.6929,-4.7792,-4.9334,-5.0253,-5.0271,-5.1004,-5.1463,-5.1463,-5.1481,-5.1463,-5.1555,-5.1995,-5.2289,-5.2325,-5.2876,-5.313,-5.3185,-5.3185,-5.3259,-5.346,-5.3537,-5.3537,-5.3555,-5.3518,-5.3445,-5.324,-5.3185,-5.3272,-5.3479,-5.3638,-5.3811,-5.4183,-5.4871,-5.5503,-5.58,-5.6933,-5.7862,-5.7843,-5.8345,-5.8605,-5.8677,-5.8568,-5.8345,-5.7806,-5.7379,-5.7082,-5.6506,-5.632,-5.6283,-5.5837,-5.619,-5.6283,-5.606,-5.6729,-5.7621,-5.7788,-5.8029,-5.8345,-5.8624,-5.8549,-5.7825,-5.7978,-5.8015,-5.8015,-5.8088,-5.8015,-5.8052,-5.8033,-5.8162,-5.807,-5.8052,-5.8052,-5.8033,-5.7978,-5.7905,-5.774,-5.7831,-5.774,-5.6932,-5.6547,-5.6473,-5.5739,-5.5467,-5.5427,-5.4711,-5.4326,-5.4179,-5.3518,-5.3185,-5.3185,-5.313,-5.2747,-5.1903,-5.1114,-5.0325,-4.95,-4.8746,-4.8324,-4.8324,-4.8324,-4.8746,-4.9519,-4.9592,-4.9922,-5.06,-5.06,-5.0453,-5.0508,-5.0545,-5.049,-5.0527,-4.9721,-4.9372,-4.9335,-4.8618,-4.8563,-4.9407,-5.0912,-5.183,-5.1867,-5.2491,-5.2947,-5.3002,-5.2913,-5.302,-5.2855,-5.2947,-5.3002,-5.3112,-5.3133,-5.3185,-5.3277,-5.324,-5.3537,-5.4179,-5.4308,-5.4271,-5.4308,-5.4234,-5.3977,-5.339,-5.3206,-5.3272,-5.3459,-5.3636,-5.4123,-5.4795,-5.567,-5.645,-5.71,-5.8011,-5.8475,-5.8549,-5.8624,-5.8677,-5.8677,-5.8677,-5.8345,-5.7973,-5.7695,-5.7398,-5.6766,-5.6302,-5.6376,-5.6432,-5.6636,-5.6692,-5.6562,-5.6952,-5.7788,-5.7936,-5.7416,-5.7602,-5.8549,-5.8029,-5.736,-5.9538,-5.9538,-5.9538,-5.9538,-5.9538,-5.952,-5.9538,-5.9538,-5.9557,-5.9245,-5.8841,-5.8786,-5.8492,-5.7978,-5.7978,-5.7978,-5.7923,-5.7171,-5.6804,-5.6712,-5.5978,-5.5614,-5.55,-5.4785,-5.4418,-5.4289,-5.3592,-5.3185,-5.3185,-5.3185,-5.2803,-5.2087,-5.172,-5.0932,-4.9776,-4.9317,-4.8875,-4.8379,-4.8324,-4.8967,-5.0233,-5.0362,-5.0967,-5.2176,-5.1334,-5.082,-5.082,-5.082,-5.082,-5.082,-5.0508,-5.0362,-5.0343,-5.0068,-5.0013,-5.038,-5.1389,-5.2016,-5.2107,-5.2766,-5.3185,-5.3185,-5.3185,-5.3185,-5.3185,-5.3185,-5.3185,-5.3185,-5.3185,-5.339,-5.3757,-5.3537,-5.3537,-5.4234,-5.4436,-5.4473,-5.4418,-5.4399,-5.4087,-5.3427,-5.323,-5.3297,-5.3527,-5.4001,-5.4566,-5.4976,-5.613,-5.7062,-5.7509,-5.8178,-5.8677,-5.8677,-5.8677,-5.8677,-5.8677,-5.8677,-5.8568,-5.8438,-5.8252,-5.8215,-5.7806,-5.7658,-5.7713,-5.7621,-5.7583,-5.7565,-5.7602,-5.7583,-5.8289,-5.8289,-5.7732,-5.749,-5.8586,-5.8159,-5.7472,-6.0401,-6.0401,-6.0401,-6.0401,-6.0401,-6.0401,-6.0401,-6.0401,-6.0401,-6.0089,-5.9606,-5.9313,-5.8914,-5.8382,-5.8125,-5.7978,-5.7941,-5.7428,-5.7189,-5.7134,-5.662,-5.6381,-5.6235,-5.5556,-5.517,-5.5078,-5.4363,-5.3849,-5.361,-5.3592,-5.317,-5.2454,-5.2142,-5.1463,-5.051,-5.0124,-4.9664,-4.9205,-4.9094,-4.9811,-5.1022,-5.1187,-5.1811,-5.2839,-5.2121,-5.1591,-5.1591,-5.1591,-5.1573,-5.1573,-5.1573,-5.1591,-5.1591,-5.1591,-5.1591,-5.1646,-5.2087,-5.2399,-5.2435,-5.2913,-5.3185,-5.3185,-5.3185,-5.3185,-5.3185,-5.3185,-5.3185,-5.3185,-5.3203,-5.3537,-5.4069,-5.3922,-5.4032,-5.4932,-5.5188,-5.506,-5.4821,-5.4785,-5.4289,-5.35,-5.3506,-5.3663,-5.3838,-5.4644,-5.5303,-5.566,-5.6837,-5.749,-5.7918,-5.8308,-5.8677,-5.8677,-5.8677,-5.8677,-5.8677,-5.8677,-5.8677,-5.8586,-5.8549,-5.8642,-5.8677,-5.8677,-5.8677,-5.8677,-5.8677,-5.8677,-5.8624,-5.8494,-5.8512,-5.8603,-5.7899,-5.7305,-5.7973,-5.8401,-5.7695,-6.0474,-6.0548,-6.0438,-6.0584,-6.0639,-6.0639,-6.0511,-6.0603,-6.0566,-6.0584,-6.0346,-5.9685,-5.9386,-5.9074,-5.8565,-5.8107,-5.8088,-5.8033,-5.7941,-5.7868,-5.7831,-5.7795,-5.7721,-5.6932,-5.6473,-5.6418,-5.5849,-5.5078,-5.4326,-5.4252,-5.3867,-5.3133,-5.2417,-5.2013,-5.1924,-5.1151,-5.0784,-5.06,-5.0545,-5.1077,-5.1867,-5.1903,-5.2289,-5.3093,-5.3057,-5.2983,-5.3057,-5.3057,-5.2983,-5.302,-5.3057,-5.3148,-5.2983,-5.2983,-5.3093,-5.2983,-5.3133,-5.317,-5.313,-5.317,-5.3185,-5.3185,-5.3185,-5.3222,-5.335,-5.3332,-5.335,-5.3479,-5.35,-5.3702,-5.4436,-5.4583,-5.506,-5.6436,-5.6528,-5.6235,-5.5702,-5.5482,-5.4968,-5.3739,-5.387,-5.4433,-5.4785,-5.5422,-5.6189,-5.6833,-5.7396,-5.7788,-5.8252,-5.8531,-5.8658,-5.8677,-5.8677,-5.8677,-5.8677,-5.8677,-5.8677,-5.8658,-5.8661,-5.8677,-5.8677,-5.8677,-5.8677,-5.8677,-5.8677,-5.8677,-5.8642,-5.8531,-5.8438,-5.8343,-5.7583,-5.736,-5.7955,-5.8401,-5.7936,-6.2053,-6.2053,-6.2028,-6.2071,-6.2071,-6.2071,-6.2071,-6.2071,-6.2028,-6.1741,-6.1245,-6.097,-6.0566,-6.0089,-5.974,-5.9355,-5.8859,-5.8799,-5.8529,-5.8088,-5.7997,-5.7978,-5.785,-5.7189,-5.651,-5.6014,-5.5721,-5.5188,-5.4583,-5.4454,-5.3995,-5.328,-5.2968,-5.2527,-5.205,-5.172,-5.1408,-5.0857,-5.082,-5.1206,-5.1903,-5.1995,-5.2399,-5.3093,-5.3185,-5.3185,-5.3185,-5.3185,-5.3185,-5.3185,-5.3185,-5.3185,-5.3185,-5.3185,-5.3185,-5.3185,-5.3185,-5.3185,-5.3185,-5.3185,-5.3185,-5.3185,-5.3185,-5.3479,-5.394,-5.4014,-5.4252,-5.4693,-5.4858,-5.5188,-5.5868,-5.6069,-5.6271,-5.6726,-5.6785,-5.651,-5.5666,-5.4693,-5.4087,-5.4127,-5.4317,-5.4751,-5.5447,-5.6232,-5.6786,-5.6813,-5.758,-5.8308,-5.8048,-5.8456,-5.8658,-5.8677,-5.8677,-5.8677,-5.8677,-5.8677,-5.8677,-5.8677,-5.8677,-5.8677,-5.8677,-5.8677,-5.8677,-5.8677,-5.8677,-5.8658,-5.8603,-5.8566,-5.8512,-5.8512,-5.8234,-5.8308,-5.8568,-5.8419,-5.8066,-6.2823,-6.2823,-6.2823,-6.2823,-6.2823,-6.2823,-6.2823,-6.2823,-6.2823,-6.253,-6.2071,-6.1704,-6.1337,-6.086,-6.0548,-6.0144,-5.9648,-5.9368,-5.8951,-5.8437,-5.807,-5.7997,-5.7941,-5.7519,-5.7024,-5.6583,-5.6473,-5.6069,-5.5317,-5.5262,-5.4748,-5.383,-5.3647,-5.3261,-5.2527,-5.2435,-5.216,-5.1756,-5.172,-5.1958,-5.2344,-5.2435,-5.2692,-5.3112,-5.3185,-5.3185,-5.3185,-5.3185,-5.3185,-5.3185,-5.3185,-5.3185,-5.3185,-5.3185,-5.3185,-5.3185,-5.3185,-5.3185,-5.3185,-5.3185,-5.3185,-5.3185,-5.3185,-5.3555,-5.4197,-5.4418,-5.4766,-5.5449,-5.5578,-5.5904,-5.6602,-5.6785,-5.6914,-5.7226,-5.7281,-5.6748,-5.5757,-5.473,-5.4201,-5.4574,-5.508,-5.5699,-5.6362,-5.709,-5.755,-5.7332,-5.7988,-5.8642,-5.8196,-5.8419,-5.8586,-5.8698,-5.8677,-5.8677,-5.8677,-5.8677,-5.8677,-5.8677,-5.8677,-5.8677,-5.8677,-5.8677,-5.8677,-5.8677,-5.8677,-5.8677,-5.864,-5.864,-5.8642,-5.8677,-5.8677,-5.8698,-5.8679,-5.8679,-5.8419,-6.278,-6.2798,-6.2805,-6.2823,-6.2823,-6.2823,-6.2823,-6.2823,-6.2823,-6.2743,-6.2585,-6.2071,-6.1704,-6.1484,-6.1062,-6.0694,-6.0346,-5.9703,-5.9258,-5.8933,-5.84,-5.7978,-5.796,-5.7868,-5.7776,-5.7795,-5.7813,-5.7428,-5.6547,-5.6528,-5.5996,-5.4454,-5.4252,-5.3977,-5.3225,-5.3167,-5.3075,-5.2965,-5.302,-5.3078,-5.3093,-5.313,-5.3148,-5.3185,-5.3185,-5.3185,-5.3185,-5.3185,-5.3185,-5.3185,-5.3185,-5.3185,-5.3185,-5.3185,-5.3185,-5.3185,-5.3185,-5.3185,-5.3185,-5.335,-5.3369,-5.3387,-5.3555,-5.3662,-5.4601,-5.4895,-5.5188,-5.5926,-5.5981,-5.618,-5.6804,-5.6991,-5.7303,-5.7836,-5.7762,-5.706,-5.5945,-5.5578,-5.5312,-5.5193,-5.6064,-5.7032,-5.7154,-5.7899,-5.8259,-5.8229,-5.8361,-5.8549,-5.8289,-5.8234,-5.8568,-5.8605,-5.8512,-5.8677,-5.8677,-5.8677,-5.8677,-5.8677,-5.8716,-5.8735,-5.8716,-5.8677,-5.8677,-5.8677,-5.8677,-5.8677,-5.8677,-5.8677,-5.8677,-5.8677,-5.8677,-5.8677,-5.8677,-5.8677,-5.8658,-6.2654,-6.2654,-6.2755,-6.2823,-6.2823,-6.2823,-6.2823,-6.2823,-6.2823,-6.2823,-6.275,-6.2603,-6.2456,-6.2438,-6.2254,-6.1869,-6.1208,-6.0438,-5.9698,-5.9111,-5.8382,-5.8015,-5.7978,-5.7978,-5.7978,-5.7978,-5.796,-5.7593,-5.6859,-5.6859,-5.6033,-5.4473,-5.4528,-5.4051,-5.3314,-5.324,-5.3185,-5.3185,-5.3185,-5.3185,-5.3185,-5.3185,-5.3185,-5.3185,-5.3185,-5.3185,-5.3185,-5.3185,-5.3185,-5.3185,-5.3185,-5.3185,-5.3185,-5.3185,-5.3185,-5.3185,-5.3185,-5.3203,-5.3314,-5.3739,-5.4032,-5.4142,-5.4528,-5.5317,-5.6088,-5.6161,-5.6565,-5.7171,-5.7373,-5.7391,-5.7652,-5.7757,-5.799,-5.8113,-5.7725,-5.7083,-5.6514,-5.6048,-5.5856,-5.6319,-5.6897,-5.7244,-5.7473,-5.7981,-5.8211,-5.7581,-5.7918,-5.8419,-5.8029,-5.8234,-5.8661,-5.8271,-5.8196,-5.8512,-5.8677,-5.8677,-5.8677,-5.8677,-5.8735,-5.8809,-5.8754,-5.8677,-5.8677,-5.8677,-5.8677,-5.8677,-5.8677,-5.8677,-5.8677,-5.8677,-5.8677,-5.8677,-5.8677,-5.8677,-5.8677,-6.236,-6.2526,-6.2723,-6.2823,-6.2823,-6.2823,-6.2823,-6.2823,-6.2823,-6.2823,-6.2823,-6.2823,-6.2823,-6.2823,-6.2805,-6.2567,-6.2016,-6.0933,-6.0181,-5.9612,-5.8547,-5.8033,-5.7978,-5.7978,-5.7978,-5.7978,-5.7978,-5.7758,-5.7391,-5.7299,-5.6583,-5.5702,-5.5409,-5.484,-5.3812,-5.3702,-5.3518,-5.3259,-5.3185,-5.3185,-5.3185,-5.3185,-5.3185,-5.3185,-5.3185,-5.3185,-5.3185,-5.3185,-5.3185,-5.3185,-5.3185,-5.3185,-5.3185,-5.3185,-5.3185,-5.3185,-5.3185,-5.3335,-5.372,-5.4179,-5.4528,-5.4876,-5.539,-5.5959,-5.6565,-5.6822,-5.7152,-5.7795,-5.796,-5.802,-5.8106,-5.8197,-5.8327,-5.8294,-5.7818,-5.7346,-5.703,-5.6952,-5.6943,-5.723,-5.75,-5.7643,-5.748,-5.8174,-5.7934,-5.7472,-5.8011,-5.8048,-5.7862,-5.8326,-5.8568,-5.8234,-5.8475,-5.9032,-5.9459,-5.9552,-5.9682,-5.9608,-5.9478,-5.9422,-5.9014,-5.8921,-5.8772,-5.8772,-5.8735,-5.8677,-5.8677,-5.8677,-5.8677,-5.8677,-5.8677,-5.8677,-5.8677,-5.8677,-5.8677,-6.2068,-6.2415,-6.2698,-6.2823,-6.2823,-6.2823,-6.2823,-6.2823,-6.2823,-6.2823,-6.2823,-6.2823,-6.2823,-6.2823,-6.2823,-6.2787,-6.2652,-6.1098,-6.0309,-5.9575,-5.8657,-5.7978,-5.7978,-5.7978,-5.7978,-5.7978,-5.7978,-5.796,-5.785,-5.7905,-5.7519,-5.6748,-5.662,-5.5849,-5.4583,-5.4308,-5.3959,-5.3314,-5.3185,-5.3185,-5.3185,-5.3185,-5.3185,-5.3185,-5.3185,-5.3185,-5.3185,-5.3185,-5.3185,-5.3185,-5.3185,-5.3185,-5.3185,-5.3185,-5.3185,-5.3259,-5.335,-5.372,-5.4308,-5.4583,-5.5005,-5.5611,-5.5831,-5.6106,-5.6859,-5.7101,-5.7381,-5.7987,-5.8038,-5.8152,-5.8242,-5.8331,-5.8415,-5.844,-5.8381,-5.8049,-5.7698,-5.799,-5.8144,-5.7585,-5.8103,-5.8111,-5.7951,-5.8066,-5.8382,-5.7509,-5.8011,-5.8159,-5.8103,-5.8364,-5.8456,-5.8271,-5.8865,-5.9757,-6.0165,-6.05,-6.0704,-6.0797,-6.0648,-6.0425,-5.9645,-5.9367,-5.9051,-5.8902,-5.8884,-5.8809,-5.8677,-5.8677,-5.8677,-5.8677,-5.8677,-5.8677,-5.8677,-5.8677,-5.8677,-6.1933,-6.2265,-6.261,-6.2823,-6.2823,-6.2823,-6.2823,-6.2823,-6.2823,-6.2823,-6.2823,-6.2823,-6.2823,-6.2823,-6.2823,-6.2823,-6.2603,-6.1135,-5.9813,-5.8492,-5.8272,-5.7997,-5.7978,-5.7978,-5.7978,-5.7978,-5.7978,-5.7978,-5.7978,-5.7923,-5.7611,-5.6969,-5.6822,-5.6033,-5.4693,-5.4491,-5.4014,-5.3332,-5.3185,-5.3185,-5.3185,-5.3185,-5.3185,-5.3185,-5.3185,-5.3203,-5.3185,-5.3185,-5.3185,-5.3185,-5.3259,-5.3369,-5.3222,-5.3185,-5.3222,-5.3387,-5.383,-5.4216,-5.4583,-5.5519,-5.6326,-5.6528,-5.6987,-5.7538,-5.7689,-5.7776,-5.7931,-5.8174,-5.8242,-5.8331,-5.84,-5.8465,-5.8508,-5.859,-5.8556,-5.8482,-5.841,-5.84,-5.836,-5.8347,-5.8408,-5.8359,-5.7656,-5.8234,-5.8271,-5.7788,-5.7918,-5.8289,-5.8401,-5.8475,-5.8401,-5.8345,-5.9367,-6.0221,-6.0537,-6.1038,-6.1633,-6.18,-6.1744,-6.1651,-6.0871,-6.0091,-5.9887,-5.9478,-5.9051,-5.8921,-5.8696,-5.8677,-5.8677,-5.8677,-5.8677,-5.8677,-5.8677,-5.8677,-5.8677,-6.1305,-6.2132,-6.2603,-6.2823,-6.2823,-6.2823,-6.2823,-6.2823,-6.2823,-6.2823,-6.2823,-6.2823,-6.2823,-6.2823,-6.2823,-6.2823,-6.2438,-6.1135,-5.9538,-5.8327,-5.7997,-5.7978,-5.7978,-5.7978,-5.7978,-5.7978,-5.7978,-5.7978,-5.7978,-5.796,-5.7795,-5.7409,-5.7354,-5.6547,-5.5188,-5.4932,-5.4326,-5.3405,-5.3185,-5.3185,-5.3185,-5.3185,-5.3185,-5.3185,-5.3222,-5.3353,-5.3739,-5.3794,-5.3995,-5.4216,-5.4289,-5.3922,-5.3316,-5.3203,-5.3369,-5.3812,-5.4106,-5.4876,-5.5574,-5.6271,-5.6932,-5.7336,-5.7795,-5.7951,-5.8065,-5.8174,-5.8219,-5.8286,-5.8353,-5.8418,-5.8489,-5.8572,-5.8635,-5.8582,-5.8364,-5.8196,-5.8194,-5.8394,-5.8574,-5.8596,-5.8619,-5.825,-5.8085,-5.8401,-5.8234,-5.7806,-5.8196,-5.8531,-5.8549,-5.8586,-5.8531,-5.8772,-5.985,-6.0611,-6.0871,-6.1503,-6.2469,-6.2673,-6.2729,-6.271,-6.2394,-6.1596,-6.0853,-6.0258,-5.9589,-5.8902,-5.8677,-5.8677,-5.8754,-5.8677,-5.8677,-5.8677,-5.8677,-5.8677,-5.8677,-6.066,-6.1887,-6.2523,-6.2823,-6.2823,-6.2823,-6.2823,-6.2823,-6.2823,-6.2823,-6.2823,-6.2823,-6.2823,-6.2823,-6.2823,-6.275,-6.2053,-6.1117,-5.952,-5.8143,-5.7978,-5.7978,-5.7978,-5.7978,-5.7978,-5.7978,-5.7978,-5.7978,-5.7978,-5.7978,-5.7923,-5.7941,-5.796,-5.6987,-5.5908,-5.5522,-5.4748,-5.3427,-5.3185,-5.3185,-5.3185,-5.3185,-5.3185,-5.3185,-5.3203,-5.3592,-5.4106,-5.4363,-5.4675,-5.5519,-5.5614,-5.4858,-5.4014,-5.361,-5.3812,-5.4564,-5.4821,-5.5482,-5.6345,-5.6895,-5.7317,-5.796,-5.7978,-5.8042,-5.8129,-5.8219,-5.8305,-5.8371,-5.8437,-5.8483,-5.8532,-5.8614,-5.8677,-5.8584,-5.8066,-5.7751,-5.7806,-5.8308,-5.8566,-5.8399,-5.8306,-5.8009,-5.8122,-5.8364,-5.8103,-5.7992,-5.8438,-5.8696,-5.8714,-5.8735,-5.8716,-5.9032,-6.0054,-6.1447,-6.1874,-6.206,-6.3007,-6.3175,-6.3319,-6.336,-6.3305,-6.2469,-6.1503,-6.076,-6.0091,-5.9497,-5.9088,-5.9125,-5.9069,-5.8846,-5.8677,-5.8677,-5.8677,-5.8677,-5.8677,-6.0593,-6.1267,-6.2354,-6.2823,-6.2823,-6.2823,-6.2823,-6.2823,-6.2823,-6.2823,-6.2823,-6.2823,-6.2823,-6.2823,-6.2823,-6.2126,-6.1172,-6.0456,-5.9538,-5.8217,-5.7978,-5.7978,-5.7978,-5.7978,-5.7978,-5.7978,-5.7978,-5.7978,-5.7978,-5.7978,-5.7978,-5.7978,-5.7978,-5.7152,-5.6088,-5.5519,-5.4968,-5.3757,-5.346,-5.3442,-5.3332,-5.3222,-5.3185,-5.3185,-5.3185,-5.3683,-5.4271,-5.4473,-5.4766,-5.55,-5.5592,-5.5486,-5.528,-5.5188,-5.528,-5.5445,-5.5868,-5.6381,-5.6895,-5.7446,-5.7758,-5.796,-5.7978,-5.7997,-5.8088,-5.8201,-5.8349,-5.8437,-5.8548,-5.8635,-5.8675,-5.8677,-5.8677,-5.8621,-5.8512,-5.8326,-5.8382,-5.8364,-5.8326,-5.7955,-5.7862,-5.7992,-5.8252,-5.8456,-5.8382,-5.8401,-5.8735,-5.8939,-5.8956,-5.8977,-5.8977,-5.9459,-6.0147,-6.1689,-6.3004,-6.31,-6.3472,-6.3435,-6.3509,-6.3509,-6.3323,-6.2803,-6.2079,-6.1633,-6.102,-6.0425,-6.0091,-5.9757,-5.9367,-5.9107,-5.8921,-5.8696,-5.8677,-5.8677,-5.8677,-5.9977,-6.1134,-6.1885,-6.242,-6.2768,-6.2823,-6.2823,-6.2823,-6.2823,-6.2823,-6.2823,-6.2823,-6.2823,-6.2823,-6.2823,-6.1906,-6.075,-6.0382,-5.9483,-5.829,-5.7978,-5.7978,-5.7978,-5.7978,-5.7978,-5.7978,-5.7978,-5.7978,-5.7978,-5.7978,-5.7978,-5.7978,-5.7978,-5.7373,-5.651,-5.6235,-5.5537,-5.462,-5.4381,-5.4179,-5.3794,-5.346,-5.3203,-5.3185,-5.3277,-5.383,-5.4803,-5.5023,-5.5647,-5.6583,-5.684,-5.684,-5.6785,-5.673,-5.662,-5.6381,-5.6602,-5.7024,-5.7336,-5.7831,-5.796,-5.7978,-5.7978,-5.8042,-5.8106,-5.8219,-5.8331,-5.8462,-5.859,-5.8677,-5.8677,-5.8677,-5.8677,-5.8603,-5.8401,-5.8178,-5.8009,-5.7769,-5.7658,-5.7639,-5.8048,-5.8345,-5.8512,-5.8621,-5.8658,-5.8846,-5.9069,-5.9181,-5.9197,-5.9497,-5.9645,-6.024,-6.0945,-6.1949,-6.3267,-6.349,-6.3602,-6.3602,-6.3602,-6.3602,-6.3527,-6.31,-6.3022,-6.2874,-6.2227,-6.1336,-6.0741,-6.0277,-5.9831,-5.9404,-5.9162,-5.8958,-5.8772,-5.8677,-5.8884,-5.9245,-6.0712,-6.1293,-6.1905,-6.243,-6.2668,-6.2705,-6.273,-6.2748,-6.2755,-6.2755,-6.278,-6.2823,-6.2768,-6.2456,-6.1716,-6.0438,-6.0272,-5.9263,-5.8272,-5.7978,-5.7978,-5.7978,-5.7978,-5.7978,-5.7978,-5.7978,-5.7978,-5.7978,-5.7978,-5.7978,-5.7978,-5.7978,-5.7593,-5.6914,-5.6657,-5.629,-5.5849,-5.5596,-5.5188,-5.4418,-5.3665,-5.3185,-5.3185,-5.3203,-5.394,-5.5299,-5.5482,-5.6367,-5.7336,-5.785,-5.7905,-5.796,-5.7978,-5.7685,-5.7171,-5.706,-5.7428,-5.7758,-5.796,-5.7978,-5.7978,-5.7978,-5.8042,-5.8152,-5.8219,-5.8331,-5.8489,-5.8617,-5.8677,-5.8677,-5.8677,-5.8677,-5.8605,-5.8196,-5.7769,-5.7806,-5.7732,-5.7751,-5.7936,-5.8382,-5.8586,-5.8679,-5.8677,-5.8677,-5.8939,-5.9181,-5.9552,-5.9698,-6.0444,-6.0778,-6.128,-6.1874,-6.2506,-6.323,-6.3527,-6.3602,-6.3602,-6.3602,-6.3602,-6.3602,-6.3509,-6.3509,-6.3393,-6.2933,-6.206,-6.1447,-6.0964,-6.0704,-6.0295,-5.9645,-5.9441,-5.9682,-5.9701,-5.9775,-5.8587,-5.903,-6.0566,-6.1317,-6.1456,-6.2032,-6.2386,-6.2376,-6.2406,-6.261,-6.2409,-6.2682,-6.2677,-6.253,-6.1979,-6.1227,-6.0401,-5.9703,-5.8969,-5.8088,-5.7978,-5.7978,-5.7978,-5.7978,-5.7978,-5.7978,-5.7978,-5.7978,-5.7978,-5.7978,-5.7978,-5.7978,-5.7923,-5.7648,-5.706,-5.7005,-5.6381,-5.5794,-5.5629,-5.5225,-5.4491,-5.3702,-5.3332,-5.3259,-5.3463,-5.4106,-5.55,-5.5835,-5.6492,-5.774,-5.7978,-5.7978,-5.7978,-5.7978,-5.7978,-5.7886,-5.7868,-5.7886,-5.796,-5.7978,-5.7978,-5.7978,-5.7978,-5.802,-5.8106,-5.8282,-5.8459,-5.8635,-5.8677,-5.8791,-5.8809,-5.8716,-5.8698,-5.8679,-5.8531,-5.8399,-5.8382,-5.8103,-5.8046,-5.812,-5.8586,-5.8642,-5.8677,-5.8677,-5.8735,-5.8995,-5.9311,-5.9757,-6.0333,-6.115,-6.1763,-6.2209,-6.2432,-6.2989,-6.3267,-6.3546,-6.3602,-6.3602,-6.3602,-6.3602,-6.3602,-6.3602,-6.3602,-6.3435,-6.3063,-6.284,-6.2339,-6.193,-6.1707,-6.1206,-6.0574,-6.0648,-6.0945,-6.0871,-6.0574,-5.737,-5.8034,-5.8781,-5.9367,-5.9826,-6.0169,-6.0413,-6.0575,-6.0804,-6.1003,-6.1156,-6.133,-6.1447,-6.141,-6.1043,-6.0474,-5.9771,-5.9331,-5.8767,-5.8143,-5.7978,-5.7978,-5.7978,-5.7978,-5.7978,-5.7978,-5.7978,-5.7978,-5.7978,-5.7978,-5.7978,-5.7978,-5.7978,-5.7905,-5.7428,-5.7483,-5.7317,-5.6804,-5.6161,-5.5464,-5.4968,-5.4344,-5.3885,-5.3904,-5.4271,-5.5133,-5.5923,-5.6308,-5.6804,-5.7795,-5.7978,-5.7978,-5.7978,-5.7978,-5.7978,-5.7978,-5.796,-5.796,-5.7978,-5.7978,-5.7978,-5.7997,-5.802,-5.8042,-5.8133,-5.8367,-5.8761,-5.9276,-5.8897,-5.8921,-5.9125,-5.8939,-5.8772,-5.8677,-5.8677,-5.8677,-5.8677,-5.8677,-5.8566,-5.864,-5.8677,-5.8677,-5.8677,-5.8677,-5.8754,-5.8977,-5.9701,-6.0555,-6.1243,-6.2097,-6.2617,-6.3044,-6.3156,-6.3305,-6.3435,-6.3602,-6.3583,-6.3583,-6.3546,-6.3565,-6.3602,-6.3602,-6.3602,-6.3602,-6.3416,-6.3212,-6.3044,-6.2673,-6.2209,-6.1856,-6.1521,-6.1558,-6.1577,-6.128,-6.0945,-5.5971,-5.679,-5.7231,-5.78,-5.8345,-5.8581,-5.892,-5.9168,-5.9607,-5.983,-6.0015,-6.0335,-6.0456,-6.0327,-6.0236,-5.9813,-5.9221,-5.8982,-5.8584,-5.8162,-5.7978,-5.7978,-5.7978,-5.7978,-5.7978,-5.7978,-5.7978,-5.7978,-5.7978,-5.7978,-5.7978,-5.7978,-5.7978,-5.796,-5.7978,-5.7905,-5.7795,-5.7685,-5.6308,-5.5757,-5.5666,-5.4858,-5.462,-5.4785,-5.5299,-5.5959,-5.6657,-5.6767,-5.7171,-5.7813,-5.7978,-5.7978,-5.7978,-5.7978,-5.7978,-5.7978,-5.7978,-5.7978,-5.7978,-5.7978,-5.7978,-5.802,-5.8065,-5.8133,-5.8305,-5.8554,-5.8995,-5.9706,-5.9396,-5.9438,-5.9571,-5.9181,-5.8809,-5.8677,-5.8677,-5.8677,-5.8677,-5.8677,-5.8677,-5.8677,-5.8677,-5.8677,-5.8677,-5.8677,-5.8791,-5.8977,-5.9868,-6.1131,-6.206,-6.2877,-6.3119,-6.3435,-6.3453,-6.3453,-6.349,-6.3565,-6.3565,-6.3546,-6.3509,-6.3527,-6.3565,-6.3602,-6.3602,-6.3602,-6.3602,-6.3527,-6.3323,-6.2989,-6.2692,-6.2599,-6.245,-6.2153,-6.1986,-6.1763,-6.1503,-5.4448,-5.4835,-5.6458,-5.7167,-5.7406,-5.8317,-5.8829,-5.8934,-5.9478,-5.9699,-5.9809,-6.0188,-6.0181,-6.0126,-5.9551,-5.9221,-5.9111,-5.8419,-5.8143,-5.8033,-5.7978,-5.7978,-5.7978,-5.7978,-5.7978,-5.7978,-5.7978,-5.7978,-5.7978,-5.7978,-5.7978,-5.7978,-5.7978,-5.7978,-5.7978,-5.7978,-5.7978,-5.7703,-5.651,-5.6124,-5.6051,-5.55,-5.495,-5.5427,-5.5647,-5.5978,-5.6748,-5.6914,-5.7207,-5.796,-5.7978,-5.7978,-5.7978,-5.7978,-5.7978,-5.7978,-5.7978,-5.7978,-5.7978,-5.7978,-5.7997,-5.802,-5.8133,-5.8342,-5.8662,-5.9301,-5.974,-6.0067,-6.0033,-5.9977,-5.9812,-5.9292,-5.8977,-5.8863,-5.8863,-5.8677,-5.8677,-5.8677,-5.8677,-5.8677,-5.8677,-5.8677,-5.8677,-5.8677,-5.8677,-5.8865,-6.0147,-6.1428,-6.258,-6.336,-6.3416,-6.3565,-6.3565,-6.3546,-6.349,-6.3472,-6.3416,-6.3397,-6.3379,-6.3453,-6.3527,-6.3565,-6.3602,-6.3602,-6.3602,-6.3602,-6.3602,-6.3323,-6.3212,-6.3435,-6.3342,-6.2914,-6.2822,-6.2784,-6.2506,-5.4303,-5.4578,-5.5243,-5.5636,-5.5911,-5.6452,-5.6951,-5.7442,-5.7947,-5.8378,-5.8809,-5.8867,-5.8933,-5.8841,-5.8694,-5.8455,-5.8437,-5.8198,-5.8015,-5.7978,-5.7978,-5.7978,-5.7978,-5.7978,-5.7978,-5.7978,-5.7978,-5.7978,-5.7978,-5.7978,-5.7978,-5.7978,-5.7978,-5.7978,-5.7978,-5.7978,-5.7978,-5.7721,-5.6987,-5.6565,-5.6528,-5.6381,-5.6033,-5.6271,-5.695,-5.7152,-5.7519,-5.7538,-5.774,-5.7886,-5.796,-5.7978,-5.7978,-5.7978,-5.7978,-5.7978,-5.7978,-5.7978,-5.8001,-5.8001,-5.802,-5.8133,-5.8286,-5.8606,-5.9103,-5.9706,-6.0509,-6.0868,-6.0945,-6.0815,-6.1261,-6.0314,-5.9478,-5.9308,-5.9104,-5.8863,-5.8677,-5.8677,-5.8677,-5.8677,-5.8677,-5.8677,-5.8677,-5.8677,-5.8677,-5.8828,-6.0295,-6.1689,-6.284,-6.3602,-6.3602,-6.3602,-6.3602,-6.3602,-6.3546,-6.3416,-6.3249,-6.3267,-6.3267,-6.336,-6.3472,-6.3565,-6.3602,-6.3602,-6.3602,-6.3602,-6.3602,-6.3602,-6.3602,-6.3602,-6.3602,-6.349,-6.3546,-6.3602,-6.323,-5.4289,-5.4512,-5.4512,-5.4714,-5.5096,-5.5402,-5.5894,-5.6474,-5.7087,-5.7516,-5.7978,-5.7978,-5.7978,-5.7978,-5.7997,-5.8015,-5.807,-5.7997,-5.7997,-5.7978,-5.7978,-5.7978,-5.7978,-5.7978,-5.7978,-5.7978,-5.7978,-5.7978,-5.7978,-5.7978,-5.7978,-5.7978,-5.7978,-5.7978,-5.7978,-5.7978,-5.7978,-5.7813,-5.7281,-5.7024,-5.7097,-5.6877,-5.6969,-5.7097,-5.7629,-5.7795,-5.7868,-5.7868,-5.7886,-5.796,-5.7978,-5.7978,-5.7978,-5.7978,-5.7978,-5.7978,-5.7978,-5.802,-5.8042,-5.8065,-5.8133,-5.8272,-5.8381,-5.8934,-5.9594,-6.0123,-6.0961,-6.1964,-6.1837,-6.1819,-6.2357,-6.1113,-6.0072,-5.9791,-5.9494,-5.9216,-5.8807,-5.8677,-5.8677,-5.8677,-5.8846,-5.9181,-5.9364,-5.9494,-5.9775,-5.9794,-6.0463,-6.1856,-6.3063,-6.3602,-6.3602,-6.3602,-6.3602,-6.3602,-6.3602,-6.3249,-6.2989,-6.3286,-6.3305,-6.3323,-6.3397,-6.3527,-6.3602,-6.3602,-6.3602,-6.3602,-6.3602,-6.3602,-6.3602,-6.3602,-6.3602,-6.3602,-6.3602,-6.3583,-6.3435,-5.4224,-5.448,-5.4512,-5.4759,-5.5212,-5.5711,-5.6247,-5.6803,-5.7338,-5.7726,-5.7997,-5.7978,-5.7978,-5.7978,-5.7978,-5.7978,-5.7978,-5.7978,-5.7978,-5.7978,-5.7978,-5.7978,-5.7978,-5.7978,-5.7978,-5.7978,-5.7978,-5.7978,-5.7978,-5.7978,-5.7978,-5.7978,-5.7978,-5.7978,-5.7978,-5.7978,-5.7978,-5.7868,-5.7207,-5.7391,-5.7556,-5.7244,-5.7373,-5.7685,-5.7905,-5.7978,-5.7978,-5.7978,-5.7978,-5.7978,-5.7978,-5.7978,-5.7978,-5.7978,-5.7978,-5.7978,-5.802,-5.8065,-5.8197,-5.8197,-5.8345,-5.8591,-5.8807,-5.9258,-5.9974,-6.0701,-6.1521,-6.2543,-6.2469,-6.2394,-6.219,-6.1689,-6.0905,-6.0422,-6.0163,-5.9791,-5.9438,-5.9292,-5.9404,-5.9497,-5.9682,-5.9942,-6.0202,-6.046,-6.0871,-6.1057,-6.115,-6.1986,-6.3249,-6.3602,-6.3602,-6.3602,-6.3602,-6.3602,-6.349,-6.2952,-6.2784,-6.3119,-6.336,-6.3397,-6.3435,-6.3565,-6.3602,-6.3602,-6.3602,-6.3602,-6.3602,-6.3602,-6.3602,-6.3602,-6.3602,-6.3602,-6.3602,-6.3583,-6.3453,-5.4207,-5.4512,-5.4512,-5.4869,-5.5425,-5.595,-5.6528,-5.7087,-5.7583,-5.7909,-5.7997,-5.7978,-5.7978,-5.7978,-5.7978,-5.7978,-5.7978,-5.7978,-5.7978,-5.7978,-5.7978,-5.7978,-5.7978,-5.7978,-5.7978,-5.7978,-5.7978,-5.7978,-5.7978,-5.7978,-5.7978,-5.7978,-5.7978,-5.7978,-5.7978,-5.7978,-5.7978,-5.796,-5.774,-5.774,-5.7923,-5.774,-5.7685,-5.7978,-5.7978,-5.7978,-5.7978,-5.7978,-5.7978,-5.7978,-5.7978,-5.7978,-5.7978,-5.7978,-5.7997,-5.802,-5.8065,-5.8205,-5.8356,-5.8459,-5.8739,-5.9103,-5.9409,-5.9971,-6.1332,-6.1744,-6.2413,-6.2914,-6.3082,-6.31,-6.3059,-6.245,-6.1797,-6.1611,-6.1314,-6.0871,-6.0555,-6.0537,-6.0574,-6.0611,-6.076,-6.0834,-6.102,-6.1277,-6.1689,-6.193,-6.2004,-6.2376,-6.3435,-6.3583,-6.3602,-6.3602,-6.3602,-6.3602,-6.3453,-6.3119,-6.3007,-6.3342,-6.349,-6.3527,-6.3583,-6.3602,-6.3602,-6.3602,-6.3602,-6.3602,-6.3602,-6.3602,-6.3602,-6.3602,-6.3602,-6.3602,-6.3602,-6.3602,-6.3565,-5.3935,-5.448,-5.4512,-5.49,-5.5543,-5.6073,-5.6704,-5.7437,-5.7839,-5.7978,-5.7978,-5.7978,-5.7978,-5.7978,-5.7978,-5.7978,-5.7978,-5.7978,-5.7978,-5.7978,-5.7978,-5.7978,-5.7978,-5.7978,-5.7978,-5.7978,-5.7978,-5.7978,-5.7978,-5.7978,-5.7978,-5.7978,-5.7978,-5.7978,-5.7978,-5.7978,-5.7978,-5.796,-5.7886,-5.7905,-5.7978,-5.7923,-5.7941,-5.7978,-5.7978,-5.7978,-5.7978,-5.7978,-5.7978,-5.7978,-5.7978,-5.7978,-5.7978,-5.7997,-5.8038,-5.8065,-5.8223,-5.8359,-5.8468,-5.8553,-5.9072,-6.0151,-6.0085,-6.0738,-6.1986,-6.2283,-6.2784,-6.3267,-6.3565,-6.3602,-6.3431,-6.284,-6.2673,-6.245,-6.2097,-6.1633,-6.1243,-6.1187,-6.1187,-6.1298,-6.1596,-6.1689,-6.1911,-6.2153,-6.2469,-6.2654,-6.2822,-6.3212,-6.3509,-6.3565,-6.3602,-6.3602,-6.3602,-6.3602,-6.3602,-6.3509,-6.3472,-6.3583,-6.3565,-6.349,-6.3602,-6.3602,-6.3602,-6.3602,-6.3602,-6.3602,-6.3602,-6.3602,-6.3602,-6.3602,-6.3602,-6.3602,-6.3602,-6.3602,-6.3602,-5.3506,-5.4428,-5.4512,-5.4869,-5.5514,-5.6073,-5.6956,-5.795,-5.7997,-5.7978,-5.7978,-5.7978,-5.7978,-5.7978,-5.7978,-5.7978,-5.7978,-5.7978,-5.7978,-5.7978,-5.7978,-5.7978,-5.7978,-5.7978,-5.7978,-5.7978,-5.7978,-5.7978,-5.7978,-5.7978,-5.7978,-5.7978,-5.7978,-5.7978,-5.7978,-5.7978,-5.7978,-5.7978,-5.7978,-5.7978,-5.7978,-5.7978,-5.7978,-5.7978,-5.7978,-5.7978,-5.7978,-5.7978,-5.7978,-5.7978,-5.7978,-5.7978,-5.7997,-5.7997,-5.8106,-5.8223,-5.84,-5.8486,-5.8569,-5.8654,-5.9566,-6.0605,-6.0534,-6.1131,-6.1967,-6.2692,-6.3063,-6.3379,-6.3602,-6.3602,-6.3509,-6.3342,-6.3175,-6.2896,-6.2599,-6.2153,-6.167,-6.1558,-6.1577,-6.18,-6.2227,-6.2524,-6.2952,-6.323,-6.297,-6.3137,-6.3249,-6.3323,-6.3565,-6.3565,-6.3602,-6.3602,-6.3602,-6.3602,-6.3602,-6.3602,-6.3602,-6.3602,-6.336,-6.3286,-6.3435,-6.3546,-6.3453,-6.3435,-6.3565,-6.3602,-6.3602,-6.3602,-6.3602,-6.3602,-6.3602,-6.3602,-6.3602,-6.3602,-6.3602,-5.3506,-5.4463,-5.4512,-5.4807,-5.5378,-5.6274,-5.717,-5.795,-5.7978,-5.7978,-5.7978,-5.7978,-5.7978,-5.7978,-5.7978,-5.7978,-5.7978,-5.7978,-5.7978,-5.7978,-5.7978,-5.7978,-5.7978,-5.7978,-5.7978,-5.7978,-5.7978,-5.7978,-5.7978,-5.7978,-5.7978,-5.7978,-5.7978,-5.7978,-5.7978,-5.7978,-5.7978,-5.7978,-5.7978,-5.7978,-5.7978,-5.7978,-5.7978,-5.7978,-5.7978,-5.7978,-5.7978,-5.7978,-5.7978,-5.7978,-5.7978,-5.7978,-5.7997,-5.8088,-5.8201,-5.8381,-5.8489,-5.8551,-5.8709,-5.9216,-6.0054,-6.1094,-6.1373,-6.2227,-6.2933,-6.323,-6.3301,-6.349,-6.3602,-6.3602,-6.3602,-6.3509,-6.3435,-6.3249,-6.3044,-6.2859,-6.2469,-6.2469,-6.2487,-6.2562,-6.2989,-6.3063,-6.3565,-6.3565,-6.3342,-6.3527,-6.3602,-6.3602,-6.3602,-6.3602,-6.3602,-6.3602,-6.3602,-6.3602,-6.3602,-6.3602,-6.3602,-6.3565,-6.3267,-6.3119,-6.336,-6.3416,-6.3267,-6.3323,-6.3546,-6.3602,-6.3602,-6.3602,-6.3602,-6.3602,-6.3602,-6.3602,-6.3602,-6.3602,-6.3602,-5.2598,-5.3532,-5.3615,-5.4044,-5.4922,-5.5984,-5.6793,-5.7327,-5.7697,-5.7862,-5.7927,-5.7909,-5.795,-5.7978,-5.7978,-5.7978,-5.7978,-5.7978,-5.7978,-5.7978,-5.7978,-5.7978,-5.7978,-5.7978,-5.7978,-5.7978,-5.7978,-5.7978,-5.7978,-5.7978,-5.7978,-5.7978,-5.7978,-5.7978,-5.7978,-5.7978,-5.7978,-5.7978,-5.7978,-5.7978,-5.7978,-5.7978,-5.7978,-5.7978,-5.7978,-5.7978,-5.7978,-5.7978,-5.7978,-5.7978,-5.7978,-5.8042,-5.8088,-5.8223,-5.8316,-5.8489,-5.8553,-5.8855,-5.9197,-5.9568,-6.0518,-6.1428,-6.2134,-6.271,-6.3212,-6.3509,-6.3546,-6.3602,-6.3602,-6.3602,-6.3602,-6.3602,-6.3602,-6.3583,-6.3583,-6.3583,-6.3546,-6.3546,-6.3527,-6.3509,-6.3546,-6.3527,-6.3602,-6.3602,-6.3602,-6.3602,-6.3602,-6.3602,-6.3602,-6.3602,-6.3602,-6.3602,-6.3602,-6.3602,-6.3602,-6.3602,-6.3602,-6.3435,-6.2952,-6.2914,-6.323,-6.3249,-6.3063,-6.3267,-6.3583,-6.3602,-6.3602,-6.3602,-6.3602,-6.3602,-6.3602,-6.3602,-6.3602,-6.3602,-6.3602,-5.1226,-5.2257,-5.2287,-5.315,-5.4279,-5.5415,-5.6063,-5.6357,-5.7102,-5.7583,-5.7679,-5.7786,-5.7881,-5.7955,-5.7978,-5.7978,-5.7978,-5.7978,-5.7978,-5.7978,-5.7978,-5.7978,-5.7978,-5.7978,-5.7978,-5.7978,-5.7978,-5.7978,-5.7978,-5.7978,-5.7978,-5.7978,-5.7978,-5.7978,-5.7978,-5.7978,-5.7978,-5.7978,-5.7978,-5.7978,-5.7978,-5.7978,-5.7978,-5.7978,-5.7978,-5.7978,-5.7978,-5.7978,-5.7978,-5.7978,-5.8042,-5.8106,-5.8246,-5.8378,-5.8468,-5.8532,-5.8617,-5.9083,-5.9568,-6.0035,-6.0945,-6.18,-6.2506,-6.2952,-6.3397,-6.3602,-6.3602,-6.3602,-6.3602,-6.3602,-6.3602,-6.3602,-6.3602,-6.3602,-6.3602,-6.3602,-6.3602,-6.3602,-6.3602,-6.3602,-6.3602,-6.3602,-6.3602,-6.3602,-6.3602,-6.3602,-6.3602,-6.3602,-6.3602,-6.3602,-6.3602,-6.3602,-6.3602,-6.3602,-6.3602,-6.3602,-6.3602,-6.3342,-6.2822,-6.2914,-6.336,-6.3193,-6.2818,-6.3212,-6.3602,-6.3602,-6.3602,-6.3602,-6.3602,-6.3602,-6.3602,-6.3602,-6.3602,-6.3602,-6.3602,-5.1165,-5.2135,-5.2948,-5.3627,-5.4203,-5.5127,-5.5694,-5.6024,-5.642,-5.6871,-5.7259,-5.7534,-5.7792,-5.7973,-5.7978,-5.7978,-5.7978,-5.7978,-5.7978,-5.7978,-5.7978,-5.7978,-5.7978,-5.7978,-5.7978,-5.7978,-5.7978,-5.7978,-5.7978,-5.7978,-5.7978,-5.7978,-5.7978,-5.7978,-5.7978,-5.7978,-5.7978,-5.7978,-5.7978,-5.7978,-5.7978,-5.7978,-5.7978,-5.7978,-5.7978,-5.7978,-5.7978,-5.7978,-5.7978,-5.7978,-5.8106,-5.8246,-5.8425,-5.8468,-5.8572,-5.8635,-5.8696,-5.9178,-5.9924,-6.0537,-6.1373,-6.2227,-6.2896,-6.3267,-6.3546,-6.3583,-6.3602,-6.3602,-6.3602,-6.3602,-6.3602,-6.3602,-6.3602,-6.3602,-6.3602,-6.3602,-6.3602,-6.3602,-6.3602,-6.3602,-6.3602,-6.3602,-6.3602,-6.3602,-6.3602,-6.3602,-6.3602,-6.3602,-6.3602,-6.3602,-6.3602,-6.3602,-6.3602,-6.3602,-6.3602,-6.3602,-6.3602,-6.3342,-6.2877,-6.31,-6.3453,-6.336,-6.3193,-6.3379,-6.3602,-6.3602,-6.3602,-6.3602,-6.3602,-6.3602,-6.3602,-6.3602,-6.3602,-6.3602,-6.3602,-5.0372,-5.1094,-5.2076,-5.2597,-5.2949,-5.4012,-5.4603,-5.491,-5.5599,-5.6239,-5.6765,-5.727,-5.7697,-5.7955,-5.7978,-5.7978,-5.7978,-5.7978,-5.7978,-5.7978,-5.7978,-5.7978,-5.7978,-5.7978,-5.7978,-5.7978,-5.7978,-5.7978,-5.7978,-5.7978,-5.7978,-5.7978,-5.7978,-5.7978,-5.7978,-5.7978,-5.7978,-5.7978,-5.7978,-5.7978,-5.7978,-5.7978,-5.7978,-5.7978,-5.7978,-5.7978,-5.7978,-5.8001,-5.8042,-5.8092,-5.8246,-5.8356,-5.8489,-5.8572,-5.8635,-5.8656,-5.8807,-5.9218,-6.0202,-6.102,-6.1763,-6.2673,-6.3212,-6.3565,-6.3565,-6.3602,-6.3602,-6.3602,-6.3602,-6.3602,-6.3602,-6.3602,-6.3602,-6.3602,-6.3602,-6.3602,-6.3602,-6.3602,-6.3602,-6.3602,-6.3602,-6.3602,-6.3602,-6.3602,-6.3602,-6.3602,-6.3602,-6.3602,-6.3602,-6.3602,-6.3602,-6.3602,-6.3602,-6.3602,-6.3602,-6.3602,-6.3602,-6.3286,-6.2952,-6.2896,-6.3044,-6.3397,-6.3602,-6.3602,-6.3602,-6.3602,-6.3602,-6.3602,-6.3602,-6.3602,-6.3602,-6.3602,-6.3602,-6.3602,-6.3602,-4.9445,-4.9828,-5.0865,-5.1346,-5.1553,-5.3,-5.3783,-5.3992,-5.5056,-5.5911,-5.6483,-5.7145,-5.7607,-5.7886,-5.7978,-5.7978,-5.7978,-5.7978,-5.7978,-5.7978,-5.7978,-5.7978,-5.7978,-5.7978,-5.7978,-5.7978,-5.7978,-5.7978,-5.7978,-5.7978,-5.7978,-5.7978,-5.7978,-5.7978,-5.7978,-5.7978,-5.7978,-5.7978,-5.7978,-5.7978,-5.7978,-5.7978,-5.7978,-5.7978,-5.7978,-5.7978,-5.7978,-5.802,-5.8084,-5.8201,-5.8338,-5.8468,-5.8553,-5.8635,-5.8656,-5.8696,-5.8956,-5.9757,-6.076,-6.1336,-6.2301,-6.3137,-6.3472,-6.3602,-6.3602,-6.3602,-6.3602,-6.3602,-6.3602,-6.3602,-6.3602,-6.3602,-6.3602,-6.3602,-6.3602,-6.3602,-6.3602,-6.3602,-6.3602,-6.3602,-6.3602,-6.3602,-6.3602,-6.3602,-6.3602,-6.3602,-6.3602,-6.3602,-6.3602,-6.3602,-6.3602,-6.3602,-6.3602,-6.3602,-6.3602,-6.3602,-6.3602,-6.349,-6.3175,-6.2803,-6.271,-6.3267,-6.3602,-6.3602,-6.3602,-6.3602,-6.3602,-6.3602,-6.3602,-6.3602,-6.3602,-6.3602,-6.3602,-6.3602,-6.3602,-4.9394,-4.984,-5.1531,-5.2263,-5.2618,-5.4129,-5.4947,-5.5156,-5.568,-5.6229,-5.667,-5.7145,-5.7625,-5.7978,-5.7978,-5.7978,-5.7978,-5.7978,-5.7978,-5.7978,-5.7978,-5.7978,-5.7978,-5.7978,-5.7978,-5.7978,-5.7978,-5.7978,-5.7978,-5.7978,-5.7978,-5.7978,-5.7978,-5.7978,-5.7978,-5.7978,-5.7978,-5.7978,-5.7978,-5.7978,-5.7978,-5.7978,-5.7978,-5.7978,-5.7978,-5.7978,-5.7978,-5.7978,-5.8065,-5.8201,-5.84,-5.8569,-5.8725,-5.8823,-5.89,-5.9218,-5.9438,-6.024,-6.1131,-6.1744,-6.2673,-6.3379,-6.3602,-6.3602,-6.3602,-6.3602,-6.3602,-6.3602,-6.3602,-6.3602,-6.3602,-6.3602,-6.3602,-6.3602,-6.3602,-6.3602,-6.3602,-6.3602,-6.3602,-6.3602,-6.3602,-6.3602,-6.3602,-6.3602,-6.3602,-6.3602,-6.3602,-6.3602,-6.3602,-6.3602,-6.3602,-6.3602,-6.3602,-6.3602,-6.3602,-6.3602,-6.3602,-6.3527,-6.3472,-6.3212,-6.3156,-6.3397,-6.3602,-6.3602,-6.3602,-6.3602,-6.3602,-6.3602,-6.3602,-6.3602,-6.3602,-6.3602,-6.3602,-6.3602,-6.3602]}]]